<?xml version="1.0" encoding="UTF-8" standalone="no" ?>
<gpx xmlns="http://www.topografix.com/GPX/1/1" xmlns:xsi="http://www.w3.org/2001/XMLSchema-instance" xsi:schemaLocation="http://www.topografix.com/GPX/1/1 http://www.topografix.com/GPX/1/1/gpx.xsd" version="1.1" creator="VisuGPX - https://www.visugpx.com">
  <metadata>
    <name>Session vtt avec Dan</name>
    <desc><![CDATA[ensoleillé mais bien gras]]></desc>
  </metadata>
  <trk>
    <name><![CDATA[SESSION VTT AC DANY]]></name>
    <trkseg>
      <trkpt lat="50.12471" lon="3.67818">
        <ele>134.72</ele>
        <time>2014-08-24T06:54:36Z</time>
      </trkpt>
      <trkpt lat="50.12471" lon="3.67818">
        <ele>134.72</ele>
        <time>2014-08-24T06:54:37Z</time>
      </trkpt>
      <trkpt lat="50.12472" lon="3.67817">
        <ele>133.28</ele>
        <time>2014-08-24T06:54:41Z</time>
      </trkpt>
      <trkpt lat="50.12474" lon="3.67815">
        <ele>133.28</ele>
        <time>2014-08-24T06:54:43Z</time>
      </trkpt>
      <trkpt lat="50.12475" lon="3.67803">
        <ele>133.76</ele>
        <time>2014-08-24T06:54:55Z</time>
      </trkpt>
      <trkpt lat="50.12475" lon="3.67802">
        <ele>133.76</ele>
        <time>2014-08-24T06:55:16Z</time>
      </trkpt>
      <trkpt lat="50.12475" lon="3.67802">
        <ele>133.76</ele>
        <time>2014-08-24T06:55:37Z</time>
      </trkpt>
      <trkpt lat="50.12473" lon="3.67799">
        <ele>133.76</ele>
        <time>2014-08-24T06:55:42Z</time>
      </trkpt>
      <trkpt lat="50.1247" lon="3.67797">
        <ele>133.76</ele>
        <time>2014-08-24T06:55:43Z</time>
      </trkpt>
      <trkpt lat="50.12468" lon="3.67796">
        <ele>133.76</ele>
        <time>2014-08-24T06:55:44Z</time>
      </trkpt>
      <trkpt lat="50.12465" lon="3.67796">
        <ele>133.76</ele>
        <time>2014-08-24T06:55:45Z</time>
      </trkpt>
      <trkpt lat="50.12463" lon="3.67798">
        <ele>133.76</ele>
        <time>2014-08-24T06:55:46Z</time>
      </trkpt>
      <trkpt lat="50.1246" lon="3.678">
        <ele>133.76</ele>
        <time>2014-08-24T06:55:47Z</time>
      </trkpt>
      <trkpt lat="50.12457" lon="3.67801">
        <ele>133.76</ele>
        <time>2014-08-24T06:55:48Z</time>
      </trkpt>
      <trkpt lat="50.12454" lon="3.67802">
        <ele>133.76</ele>
        <time>2014-08-24T06:55:49Z</time>
      </trkpt>
      <trkpt lat="50.12452" lon="3.67804">
        <ele>133.76</ele>
        <time>2014-08-24T06:55:50Z</time>
      </trkpt>
      <trkpt lat="50.12449" lon="3.67806">
        <ele>133.76</ele>
        <time>2014-08-24T06:55:51Z</time>
      </trkpt>
      <trkpt lat="50.12413" lon="3.67838">
        <ele>132.32</ele>
        <time>2014-08-24T06:56:04Z</time>
      </trkpt>
      <trkpt lat="50.12398" lon="3.67855">
        <ele>132.32</ele>
        <time>2014-08-24T06:56:09Z</time>
      </trkpt>
      <trkpt lat="50.12345" lon="3.6791">
        <ele>132.32</ele>
        <time>2014-08-24T06:56:25Z</time>
      </trkpt>
      <trkpt lat="50.12335" lon="3.6792">
        <ele>132.32</ele>
        <time>2014-08-24T06:56:28Z</time>
      </trkpt>
      <trkpt lat="50.12329" lon="3.67927">
        <ele>132.32</ele>
        <time>2014-08-24T06:56:30Z</time>
      </trkpt>
      <trkpt lat="50.12328" lon="3.67932">
        <ele>132.32</ele>
        <time>2014-08-24T06:56:31Z</time>
      </trkpt>
      <trkpt lat="50.12334" lon="3.67948">
        <ele>132.32</ele>
        <time>2014-08-24T06:56:34Z</time>
      </trkpt>
      <trkpt lat="50.12339" lon="3.67963">
        <ele>132.32</ele>
        <time>2014-08-24T06:56:37Z</time>
      </trkpt>
      <trkpt lat="50.12341" lon="3.67981">
        <ele>132.32</ele>
        <time>2014-08-24T06:56:40Z</time>
      </trkpt>
      <trkpt lat="50.12329" lon="3.68054">
        <ele>132.32</ele>
        <time>2014-08-24T06:56:51Z</time>
      </trkpt>
      <trkpt lat="50.12318" lon="3.68111">
        <ele>132.32</ele>
        <time>2014-08-24T06:57:00Z</time>
      </trkpt>
      <trkpt lat="50.123" lon="3.68193">
        <ele>132.32</ele>
        <time>2014-08-24T06:57:14Z</time>
      </trkpt>
      <trkpt lat="50.1229" lon="3.6821">
        <ele>134.24</ele>
        <time>2014-08-24T06:57:19Z</time>
      </trkpt>
      <trkpt lat="50.12278" lon="3.68197">
        <ele>134.24</ele>
        <time>2014-08-24T06:57:27Z</time>
      </trkpt>
      <trkpt lat="50.12276" lon="3.68194">
        <ele>134.24</ele>
        <time>2014-08-24T06:57:28Z</time>
      </trkpt>
      <trkpt lat="50.12235" lon="3.68138">
        <ele>134.24</ele>
        <time>2014-08-24T06:57:43Z</time>
      </trkpt>
      <trkpt lat="50.12218" lon="3.68117">
        <ele>134.72</ele>
        <time>2014-08-24T06:57:48Z</time>
      </trkpt>
      <trkpt lat="50.12214" lon="3.68112">
        <ele>134.72</ele>
        <time>2014-08-24T06:57:49Z</time>
      </trkpt>
      <trkpt lat="50.12211" lon="3.68108">
        <ele>134.72</ele>
        <time>2014-08-24T06:57:50Z</time>
      </trkpt>
      <trkpt lat="50.12208" lon="3.68104">
        <ele>134.72</ele>
        <time>2014-08-24T06:57:51Z</time>
      </trkpt>
      <trkpt lat="50.12205" lon="3.68098">
        <ele>134.72</ele>
        <time>2014-08-24T06:57:52Z</time>
      </trkpt>
      <trkpt lat="50.12202" lon="3.68095">
        <ele>134.72</ele>
        <time>2014-08-24T06:57:53Z</time>
      </trkpt>
      <trkpt lat="50.12172" lon="3.68053">
        <ele>134.72</ele>
        <time>2014-08-24T06:58:05Z</time>
      </trkpt>
      <trkpt lat="50.1213" lon="3.67996">
        <ele>135.2</ele>
        <time>2014-08-24T06:58:22Z</time>
      </trkpt>
      <trkpt lat="50.12091" lon="3.67947">
        <ele>135.2</ele>
        <time>2014-08-24T06:58:37Z</time>
      </trkpt>
      <trkpt lat="50.12044" lon="3.67882">
        <ele>135.2</ele>
        <time>2014-08-24T06:58:52Z</time>
      </trkpt>
      <trkpt lat="50.12041" lon="3.67877">
        <ele>135.2</ele>
        <time>2014-08-24T06:58:53Z</time>
      </trkpt>
      <trkpt lat="50.12038" lon="3.67872">
        <ele>135.2</ele>
        <time>2014-08-24T06:58:54Z</time>
      </trkpt>
      <trkpt lat="50.12034" lon="3.67868">
        <ele>135.2</ele>
        <time>2014-08-24T06:58:55Z</time>
      </trkpt>
      <trkpt lat="50.12031" lon="3.67863">
        <ele>135.2</ele>
        <time>2014-08-24T06:58:56Z</time>
      </trkpt>
      <trkpt lat="50.12006" lon="3.6783">
        <ele>134.72</ele>
        <time>2014-08-24T06:59:04Z</time>
      </trkpt>
      <trkpt lat="50.11964" lon="3.67774">
        <ele>135.2</ele>
        <time>2014-08-24T06:59:18Z</time>
      </trkpt>
      <trkpt lat="50.11925" lon="3.6772">
        <ele>133.76</ele>
        <time>2014-08-24T06:59:30Z</time>
      </trkpt>
      <trkpt lat="50.1189" lon="3.67674">
        <ele>133.76</ele>
        <time>2014-08-24T06:59:43Z</time>
      </trkpt>
      <trkpt lat="50.1184" lon="3.6761">
        <ele>133.76</ele>
        <time>2014-08-24T06:59:59Z</time>
      </trkpt>
      <trkpt lat="50.11778" lon="3.67524">
        <ele>133.76</ele>
        <time>2014-08-24T07:00:17Z</time>
      </trkpt>
      <trkpt lat="50.11758" lon="3.67496">
        <ele>133.76</ele>
        <time>2014-08-24T07:00:23Z</time>
      </trkpt>
      <trkpt lat="50.11695" lon="3.67411">
        <ele>133.76</ele>
        <time>2014-08-24T07:00:41Z</time>
      </trkpt>
      <trkpt lat="50.11653" lon="3.67353">
        <ele>133.76</ele>
        <time>2014-08-24T07:00:53Z</time>
      </trkpt>
      <trkpt lat="50.11593" lon="3.67273">
        <ele>133.76</ele>
        <time>2014-08-24T07:01:10Z</time>
      </trkpt>
      <trkpt lat="50.11523" lon="3.67174">
        <ele>133.76</ele>
        <time>2014-08-24T07:01:29Z</time>
      </trkpt>
      <trkpt lat="50.11466" lon="3.67099">
        <ele>133.76</ele>
        <time>2014-08-24T07:01:46Z</time>
      </trkpt>
      <trkpt lat="50.11407" lon="3.67018">
        <ele>133.76</ele>
        <time>2014-08-24T07:02:03Z</time>
      </trkpt>
      <trkpt lat="50.11378" lon="3.66979">
        <ele>133.76</ele>
        <time>2014-08-24T07:02:11Z</time>
      </trkpt>
      <trkpt lat="50.11375" lon="3.66975">
        <ele>133.76</ele>
        <time>2014-08-24T07:02:12Z</time>
      </trkpt>
      <trkpt lat="50.11301" lon="3.66873">
        <ele>133.76</ele>
        <time>2014-08-24T07:02:34Z</time>
      </trkpt>
      <trkpt lat="50.11256" lon="3.6679">
        <ele>133.76</ele>
        <time>2014-08-24T07:02:50Z</time>
      </trkpt>
      <trkpt lat="50.11233" lon="3.66732">
        <ele>133.76</ele>
        <time>2014-08-24T07:03:00Z</time>
      </trkpt>
      <trkpt lat="50.11231" lon="3.66727">
        <ele>133.76</ele>
        <time>2014-08-24T07:03:01Z</time>
      </trkpt>
      <trkpt lat="50.11229" lon="3.66721">
        <ele>133.76</ele>
        <time>2014-08-24T07:03:02Z</time>
      </trkpt>
      <trkpt lat="50.11208" lon="3.66663">
        <ele>133.76</ele>
        <time>2014-08-24T07:03:11Z</time>
      </trkpt>
      <trkpt lat="50.11175" lon="3.66582">
        <ele>133.76</ele>
        <time>2014-08-24T07:03:25Z</time>
      </trkpt>
      <trkpt lat="50.11144" lon="3.66505">
        <ele>133.76</ele>
        <time>2014-08-24T07:03:39Z</time>
      </trkpt>
      <trkpt lat="50.11141" lon="3.66499">
        <ele>133.76</ele>
        <time>2014-08-24T07:03:40Z</time>
      </trkpt>
      <trkpt lat="50.11139" lon="3.66493">
        <ele>133.76</ele>
        <time>2014-08-24T07:03:41Z</time>
      </trkpt>
      <trkpt lat="50.11093" lon="3.66378">
        <ele>133.76</ele>
        <time>2014-08-24T07:04:00Z</time>
      </trkpt>
      <trkpt lat="50.11076" lon="3.66275">
        <ele>133.76</ele>
        <time>2014-08-24T07:04:14Z</time>
      </trkpt>
      <trkpt lat="50.11079" lon="3.66232">
        <ele>133.76</ele>
        <time>2014-08-24T07:04:20Z</time>
      </trkpt>
      <trkpt lat="50.11087" lon="3.6619">
        <ele>133.76</ele>
        <time>2014-08-24T07:04:26Z</time>
      </trkpt>
      <trkpt lat="50.11094" lon="3.6617">
        <ele>133.76</ele>
        <time>2014-08-24T07:04:29Z</time>
      </trkpt>
      <trkpt lat="50.11145" lon="3.66065">
        <ele>135.2</ele>
        <time>2014-08-24T07:04:48Z</time>
      </trkpt>
      <trkpt lat="50.11195" lon="3.65963">
        <ele>135.2</ele>
        <time>2014-08-24T07:05:05Z</time>
      </trkpt>
      <trkpt lat="50.11248" lon="3.65853">
        <ele>134.72</ele>
        <time>2014-08-24T07:05:23Z</time>
      </trkpt>
      <trkpt lat="50.113" lon="3.65744">
        <ele>134.72</ele>
        <time>2014-08-24T07:05:41Z</time>
      </trkpt>
      <trkpt lat="50.11342" lon="3.65657">
        <ele>134.72</ele>
        <time>2014-08-24T07:05:57Z</time>
      </trkpt>
      <trkpt lat="50.11395" lon="3.65549">
        <ele>134.72</ele>
        <time>2014-08-24T07:06:16Z</time>
      </trkpt>
      <trkpt lat="50.11411" lon="3.65506">
        <ele>134.72</ele>
        <time>2014-08-24T07:06:23Z</time>
      </trkpt>
      <trkpt lat="50.11418" lon="3.65391">
        <ele>134.72</ele>
        <time>2014-08-24T07:06:40Z</time>
      </trkpt>
      <trkpt lat="50.11415" lon="3.65364">
        <ele>135.2</ele>
        <time>2014-08-24T07:06:44Z</time>
      </trkpt>
      <trkpt lat="50.11389" lon="3.65276">
        <ele>135.2</ele>
        <time>2014-08-24T07:06:58Z</time>
      </trkpt>
      <trkpt lat="50.11387" lon="3.6527">
        <ele>135.2</ele>
        <time>2014-08-24T07:06:59Z</time>
      </trkpt>
      <trkpt lat="50.11332" lon="3.6517">
        <ele>135.2</ele>
        <time>2014-08-24T07:07:18Z</time>
      </trkpt>
      <trkpt lat="50.11329" lon="3.65165">
        <ele>135.2</ele>
        <time>2014-08-24T07:07:19Z</time>
      </trkpt>
      <trkpt lat="50.11279" lon="3.6508">
        <ele>135.2</ele>
        <time>2014-08-24T07:07:36Z</time>
      </trkpt>
      <trkpt lat="50.11235" lon="3.65008">
        <ele>135.2</ele>
        <time>2014-08-24T07:07:50Z</time>
      </trkpt>
      <trkpt lat="50.11177" lon="3.64911">
        <ele>135.2</ele>
        <time>2014-08-24T07:08:09Z</time>
      </trkpt>
      <trkpt lat="50.11121" lon="3.64821">
        <ele>135.2</ele>
        <time>2014-08-24T07:08:26Z</time>
      </trkpt>
      <trkpt lat="50.11072" lon="3.64741">
        <ele>135.2</ele>
        <time>2014-08-24T07:08:41Z</time>
      </trkpt>
      <trkpt lat="50.11053" lon="3.64709">
        <ele>133.76</ele>
        <time>2014-08-24T07:08:47Z</time>
      </trkpt>
      <trkpt lat="50.11049" lon="3.64704">
        <ele>133.76</ele>
        <time>2014-08-24T07:08:48Z</time>
      </trkpt>
      <trkpt lat="50.11046" lon="3.647">
        <ele>133.76</ele>
        <time>2014-08-24T07:08:49Z</time>
      </trkpt>
      <trkpt lat="50.11035" lon="3.64689">
        <ele>133.76</ele>
        <time>2014-08-24T07:08:52Z</time>
      </trkpt>
      <trkpt lat="50.10963" lon="3.64627">
        <ele>134.24</ele>
        <time>2014-08-24T07:09:10Z</time>
      </trkpt>
      <trkpt lat="50.10896" lon="3.64569">
        <ele>133.76</ele>
        <time>2014-08-24T07:09:26Z</time>
      </trkpt>
      <trkpt lat="50.10892" lon="3.64565">
        <ele>133.76</ele>
        <time>2014-08-24T07:09:27Z</time>
      </trkpt>
      <trkpt lat="50.10825" lon="3.64507">
        <ele>134.24</ele>
        <time>2014-08-24T07:09:43Z</time>
      </trkpt>
      <trkpt lat="50.10808" lon="3.64492">
        <ele>134.24</ele>
        <time>2014-08-24T07:09:47Z</time>
      </trkpt>
      <trkpt lat="50.10803" lon="3.64488">
        <ele>134.24</ele>
        <time>2014-08-24T07:09:48Z</time>
      </trkpt>
      <trkpt lat="50.10739" lon="3.64432">
        <ele>134.24</ele>
        <time>2014-08-24T07:10:04Z</time>
      </trkpt>
      <trkpt lat="50.10729" lon="3.6442">
        <ele>134.24</ele>
        <time>2014-08-24T07:10:08Z</time>
      </trkpt>
      <trkpt lat="50.10735" lon="3.64401">
        <ele>133.76</ele>
        <time>2014-08-24T07:10:12Z</time>
      </trkpt>
      <trkpt lat="50.10743" lon="3.64375">
        <ele>132.8</ele>
        <time>2014-08-24T07:10:16Z</time>
      </trkpt>
      <trkpt lat="50.10751" lon="3.64332">
        <ele>133.76</ele>
        <time>2014-08-24T07:10:23Z</time>
      </trkpt>
      <trkpt lat="50.10754" lon="3.64305">
        <ele>134.72</ele>
        <time>2014-08-24T07:10:27Z</time>
      </trkpt>
      <trkpt lat="50.10757" lon="3.64282">
        <ele>134.72</ele>
        <time>2014-08-24T07:10:31Z</time>
      </trkpt>
      <trkpt lat="50.10766" lon="3.6428">
        <ele>134.72</ele>
        <time>2014-08-24T07:10:35Z</time>
      </trkpt>
      <trkpt lat="50.10779" lon="3.64292">
        <ele>134.72</ele>
        <time>2014-08-24T07:10:39Z</time>
      </trkpt>
      <trkpt lat="50.10807" lon="3.64287">
        <ele>134.72</ele>
        <time>2014-08-24T07:10:46Z</time>
      </trkpt>
      <trkpt lat="50.10815" lon="3.64295">
        <ele>134.72</ele>
        <time>2014-08-24T07:10:48Z</time>
      </trkpt>
      <trkpt lat="50.10824" lon="3.64284">
        <ele>133.28</ele>
        <time>2014-08-24T07:10:53Z</time>
      </trkpt>
      <trkpt lat="50.10811" lon="3.64218">
        <ele>133.28</ele>
        <time>2014-08-24T07:11:05Z</time>
      </trkpt>
      <trkpt lat="50.10803" lon="3.64146">
        <ele>133.28</ele>
        <time>2014-08-24T07:11:18Z</time>
      </trkpt>
      <trkpt lat="50.10806" lon="3.64064">
        <ele>133.28</ele>
        <time>2014-08-24T07:11:34Z</time>
      </trkpt>
      <trkpt lat="50.10817" lon="3.63999">
        <ele>133.28</ele>
        <time>2014-08-24T07:11:46Z</time>
      </trkpt>
      <trkpt lat="50.10827" lon="3.6393">
        <ele>133.28</ele>
        <time>2014-08-24T07:11:59Z</time>
      </trkpt>
      <trkpt lat="50.10834" lon="3.63904">
        <ele>133.28</ele>
        <time>2014-08-24T07:12:05Z</time>
      </trkpt>
      <trkpt lat="50.10833" lon="3.63893">
        <ele>133.28</ele>
        <time>2014-08-24T07:12:15Z</time>
      </trkpt>
      <trkpt lat="50.10833" lon="3.63886">
        <ele>133.28</ele>
        <time>2014-08-24T07:12:21Z</time>
      </trkpt>
      <trkpt lat="50.10854" lon="3.63871">
        <ele>133.28</ele>
        <time>2014-08-24T07:12:34Z</time>
      </trkpt>
      <trkpt lat="50.10874" lon="3.6386">
        <ele>134.72</ele>
        <time>2014-08-24T07:12:42Z</time>
      </trkpt>
      <trkpt lat="50.109" lon="3.63845">
        <ele>136.16</ele>
        <time>2014-08-24T07:12:53Z</time>
      </trkpt>
      <trkpt lat="50.10939" lon="3.63827">
        <ele>138.57</ele>
        <time>2014-08-24T07:13:08Z</time>
      </trkpt>
      <trkpt lat="50.10975" lon="3.63816">
        <ele>139.53</ele>
        <time>2014-08-24T07:13:21Z</time>
      </trkpt>
      <trkpt lat="50.11005" lon="3.63814">
        <ele>139.53</ele>
        <time>2014-08-24T07:13:28Z</time>
      </trkpt>
      <trkpt lat="50.1101" lon="3.63814">
        <ele>139.53</ele>
        <time>2014-08-24T07:13:29Z</time>
      </trkpt>
      <trkpt lat="50.11014" lon="3.63815">
        <ele>139.53</ele>
        <time>2014-08-24T07:13:30Z</time>
      </trkpt>
      <trkpt lat="50.11076" lon="3.63821">
        <ele>141.45</ele>
        <time>2014-08-24T07:13:46Z</time>
      </trkpt>
      <trkpt lat="50.11112" lon="3.63801">
        <ele>142.41</ele>
        <time>2014-08-24T07:13:58Z</time>
      </trkpt>
      <trkpt lat="50.11113" lon="3.638">
        <ele>142.41</ele>
        <time>2014-08-24T07:13:59Z</time>
      </trkpt>
      <trkpt lat="50.11114" lon="3.63799">
        <ele>142.89</ele>
        <time>2014-08-24T07:14:00Z</time>
      </trkpt>
      <trkpt lat="50.11141" lon="3.63764">
        <ele>143.85</ele>
        <time>2014-08-24T07:14:12Z</time>
      </trkpt>
      <trkpt lat="50.11141" lon="3.63759">
        <ele>143.85</ele>
        <time>2014-08-24T07:14:13Z</time>
      </trkpt>
      <trkpt lat="50.11141" lon="3.63754">
        <ele>143.85</ele>
        <time>2014-08-24T07:14:14Z</time>
      </trkpt>
      <trkpt lat="50.11141" lon="3.63748">
        <ele>143.85</ele>
        <time>2014-08-24T07:14:15Z</time>
      </trkpt>
      <trkpt lat="50.11139" lon="3.63743">
        <ele>143.85</ele>
        <time>2014-08-24T07:14:16Z</time>
      </trkpt>
      <trkpt lat="50.11138" lon="3.63738">
        <ele>143.85</ele>
        <time>2014-08-24T07:14:17Z</time>
      </trkpt>
      <trkpt lat="50.11137" lon="3.63733">
        <ele>143.85</ele>
        <time>2014-08-24T07:14:18Z</time>
      </trkpt>
      <trkpt lat="50.11137" lon="3.63728">
        <ele>143.85</ele>
        <time>2014-08-24T07:14:19Z</time>
      </trkpt>
      <trkpt lat="50.11138" lon="3.63725">
        <ele>143.85</ele>
        <time>2014-08-24T07:14:20Z</time>
      </trkpt>
      <trkpt lat="50.11138" lon="3.63723">
        <ele>143.85</ele>
        <time>2014-08-24T07:14:21Z</time>
      </trkpt>
      <trkpt lat="50.11139" lon="3.63718">
        <ele>143.85</ele>
        <time>2014-08-24T07:14:23Z</time>
      </trkpt>
      <trkpt lat="50.1114" lon="3.63714">
        <ele>143.85</ele>
        <time>2014-08-24T07:14:24Z</time>
      </trkpt>
      <trkpt lat="50.11141" lon="3.6371">
        <ele>143.85</ele>
        <time>2014-08-24T07:14:25Z</time>
      </trkpt>
      <trkpt lat="50.11164" lon="3.63642">
        <ele>144.34</ele>
        <time>2014-08-24T07:14:39Z</time>
      </trkpt>
      <trkpt lat="50.11173" lon="3.636">
        <ele>144.34</ele>
        <time>2014-08-24T07:14:48Z</time>
      </trkpt>
      <trkpt lat="50.11186" lon="3.63553">
        <ele>144.82</ele>
        <time>2014-08-24T07:14:58Z</time>
      </trkpt>
      <trkpt lat="50.11195" lon="3.63502">
        <ele>144.82</ele>
        <time>2014-08-24T07:15:08Z</time>
      </trkpt>
      <trkpt lat="50.11199" lon="3.63487">
        <ele>144.82</ele>
        <time>2014-08-24T07:15:11Z</time>
      </trkpt>
      <trkpt lat="50.112" lon="3.63483">
        <ele>144.82</ele>
        <time>2014-08-24T07:15:12Z</time>
      </trkpt>
      <trkpt lat="50.11202" lon="3.63477">
        <ele>144.82</ele>
        <time>2014-08-24T07:15:13Z</time>
      </trkpt>
      <trkpt lat="50.11203" lon="3.63472">
        <ele>144.82</ele>
        <time>2014-08-24T07:15:14Z</time>
      </trkpt>
      <trkpt lat="50.11204" lon="3.63466">
        <ele>144.82</ele>
        <time>2014-08-24T07:15:15Z</time>
      </trkpt>
      <trkpt lat="50.11218" lon="3.63412">
        <ele>145.3</ele>
        <time>2014-08-24T07:15:25Z</time>
      </trkpt>
      <trkpt lat="50.11237" lon="3.63346">
        <ele>145.3</ele>
        <time>2014-08-24T07:15:37Z</time>
      </trkpt>
      <trkpt lat="50.11254" lon="3.63285">
        <ele>143.37</ele>
        <time>2014-08-24T07:15:49Z</time>
      </trkpt>
      <trkpt lat="50.11257" lon="3.6328">
        <ele>143.37</ele>
        <time>2014-08-24T07:15:50Z</time>
      </trkpt>
      <trkpt lat="50.11262" lon="3.63265">
        <ele>143.37</ele>
        <time>2014-08-24T07:15:53Z</time>
      </trkpt>
      <trkpt lat="50.11262" lon="3.6326">
        <ele>143.37</ele>
        <time>2014-08-24T07:15:54Z</time>
      </trkpt>
      <trkpt lat="50.11276" lon="3.63216">
        <ele>144.34</ele>
        <time>2014-08-24T07:16:04Z</time>
      </trkpt>
      <trkpt lat="50.11278" lon="3.63212">
        <ele>144.34</ele>
        <time>2014-08-24T07:16:05Z</time>
      </trkpt>
      <trkpt lat="50.1128" lon="3.63207">
        <ele>144.82</ele>
        <time>2014-08-24T07:16:06Z</time>
      </trkpt>
      <trkpt lat="50.11292" lon="3.63156">
        <ele>145.3</ele>
        <time>2014-08-24T07:16:17Z</time>
      </trkpt>
      <trkpt lat="50.11303" lon="3.63106">
        <ele>145.3</ele>
        <time>2014-08-24T07:16:26Z</time>
      </trkpt>
      <trkpt lat="50.11323" lon="3.63047">
        <ele>145.3</ele>
        <time>2014-08-24T07:16:37Z</time>
      </trkpt>
      <trkpt lat="50.11327" lon="3.63035">
        <ele>144.34</ele>
        <time>2014-08-24T07:16:39Z</time>
      </trkpt>
      <trkpt lat="50.11341" lon="3.62981">
        <ele>142.41</ele>
        <time>2014-08-24T07:16:49Z</time>
      </trkpt>
      <trkpt lat="50.11348" lon="3.62959">
        <ele>141.45</ele>
        <time>2014-08-24T07:16:52Z</time>
      </trkpt>
      <trkpt lat="50.1135" lon="3.62952">
        <ele>140.97</ele>
        <time>2014-08-24T07:16:53Z</time>
      </trkpt>
      <trkpt lat="50.11352" lon="3.62946">
        <ele>140.97</ele>
        <time>2014-08-24T07:16:54Z</time>
      </trkpt>
      <trkpt lat="50.11373" lon="3.62878">
        <ele>140.97</ele>
        <time>2014-08-24T07:17:05Z</time>
      </trkpt>
      <trkpt lat="50.11392" lon="3.62819">
        <ele>140.49</ele>
        <time>2014-08-24T07:17:15Z</time>
      </trkpt>
      <trkpt lat="50.1141" lon="3.62761">
        <ele>140.49</ele>
        <time>2014-08-24T07:17:26Z</time>
      </trkpt>
      <trkpt lat="50.11411" lon="3.62756">
        <ele>141.93</ele>
        <time>2014-08-24T07:17:27Z</time>
      </trkpt>
      <trkpt lat="50.11412" lon="3.6275">
        <ele>141.93</ele>
        <time>2014-08-24T07:17:28Z</time>
      </trkpt>
      <trkpt lat="50.11414" lon="3.62744">
        <ele>141.93</ele>
        <time>2014-08-24T07:17:29Z</time>
      </trkpt>
      <trkpt lat="50.11415" lon="3.62738">
        <ele>141.93</ele>
        <time>2014-08-24T07:17:30Z</time>
      </trkpt>
      <trkpt lat="50.11417" lon="3.62733">
        <ele>141.93</ele>
        <time>2014-08-24T07:17:31Z</time>
      </trkpt>
      <trkpt lat="50.11419" lon="3.62727">
        <ele>141.93</ele>
        <time>2014-08-24T07:17:32Z</time>
      </trkpt>
      <trkpt lat="50.11421" lon="3.62722">
        <ele>141.93</ele>
        <time>2014-08-24T07:17:33Z</time>
      </trkpt>
      <trkpt lat="50.11423" lon="3.62716">
        <ele>141.93</ele>
        <time>2014-08-24T07:17:34Z</time>
      </trkpt>
      <trkpt lat="50.11425" lon="3.6271">
        <ele>141.45</ele>
        <time>2014-08-24T07:17:35Z</time>
      </trkpt>
      <trkpt lat="50.11445" lon="3.62646">
        <ele>141.93</ele>
        <time>2014-08-24T07:17:47Z</time>
      </trkpt>
      <trkpt lat="50.11459" lon="3.62592">
        <ele>141.93</ele>
        <time>2014-08-24T07:17:57Z</time>
      </trkpt>
      <trkpt lat="50.11464" lon="3.62555">
        <ele>139.53</ele>
        <time>2014-08-24T07:18:04Z</time>
      </trkpt>
      <trkpt lat="50.11463" lon="3.62551">
        <ele>139.05</ele>
        <time>2014-08-24T07:18:05Z</time>
      </trkpt>
      <trkpt lat="50.11459" lon="3.62549">
        <ele>139.05</ele>
        <time>2014-08-24T07:18:07Z</time>
      </trkpt>
      <trkpt lat="50.11456" lon="3.62549">
        <ele>139.05</ele>
        <time>2014-08-24T07:18:08Z</time>
      </trkpt>
      <trkpt lat="50.11453" lon="3.6255">
        <ele>139.05</ele>
        <time>2014-08-24T07:18:09Z</time>
      </trkpt>
      <trkpt lat="50.1145" lon="3.62551">
        <ele>139.05</ele>
        <time>2014-08-24T07:18:10Z</time>
      </trkpt>
      <trkpt lat="50.11446" lon="3.62553">
        <ele>138.57</ele>
        <time>2014-08-24T07:18:11Z</time>
      </trkpt>
      <trkpt lat="50.11442" lon="3.62554">
        <ele>138.57</ele>
        <time>2014-08-24T07:18:12Z</time>
      </trkpt>
      <trkpt lat="50.11439" lon="3.62555">
        <ele>138.57</ele>
        <time>2014-08-24T07:18:13Z</time>
      </trkpt>
      <trkpt lat="50.11423" lon="3.62561">
        <ele>138.09</ele>
        <time>2014-08-24T07:18:18Z</time>
      </trkpt>
      <trkpt lat="50.11418" lon="3.62562">
        <ele>137.61</ele>
        <time>2014-08-24T07:18:19Z</time>
      </trkpt>
      <trkpt lat="50.11414" lon="3.62563">
        <ele>137.61</ele>
        <time>2014-08-24T07:18:20Z</time>
      </trkpt>
      <trkpt lat="50.11411" lon="3.62565">
        <ele>137.61</ele>
        <time>2014-08-24T07:18:21Z</time>
      </trkpt>
      <trkpt lat="50.11408" lon="3.62566">
        <ele>137.61</ele>
        <time>2014-08-24T07:18:22Z</time>
      </trkpt>
      <trkpt lat="50.11404" lon="3.62568">
        <ele>137.13</ele>
        <time>2014-08-24T07:18:23Z</time>
      </trkpt>
      <trkpt lat="50.11401" lon="3.6257">
        <ele>137.13</ele>
        <time>2014-08-24T07:18:24Z</time>
      </trkpt>
      <trkpt lat="50.11372" lon="3.62588">
        <ele>136.16</ele>
        <time>2014-08-24T07:18:34Z</time>
      </trkpt>
      <trkpt lat="50.11368" lon="3.62587">
        <ele>136.16</ele>
        <time>2014-08-24T07:18:44Z</time>
      </trkpt>
      <trkpt lat="50.11368" lon="3.62588">
        <ele>136.16</ele>
        <time>2014-08-24T07:18:48Z</time>
      </trkpt>
      <trkpt lat="50.11381" lon="3.62578">
        <ele>136.16</ele>
        <time>2014-08-24T07:18:58Z</time>
      </trkpt>
      <trkpt lat="50.11388" lon="3.62573">
        <ele>136.16</ele>
        <time>2014-08-24T07:19:02Z</time>
      </trkpt>
      <trkpt lat="50.11389" lon="3.6257">
        <ele>136.16</ele>
        <time>2014-08-24T07:19:03Z</time>
      </trkpt>
      <trkpt lat="50.11388" lon="3.62567">
        <ele>136.16</ele>
        <time>2014-08-24T07:19:04Z</time>
      </trkpt>
      <trkpt lat="50.11388" lon="3.62564">
        <ele>136.16</ele>
        <time>2014-08-24T07:19:05Z</time>
      </trkpt>
      <trkpt lat="50.11389" lon="3.62562">
        <ele>136.16</ele>
        <time>2014-08-24T07:19:06Z</time>
      </trkpt>
      <trkpt lat="50.11389" lon="3.62559">
        <ele>136.16</ele>
        <time>2014-08-24T07:19:07Z</time>
      </trkpt>
      <trkpt lat="50.1139" lon="3.6255">
        <ele>136.16</ele>
        <time>2014-08-24T07:19:10Z</time>
      </trkpt>
      <trkpt lat="50.11389" lon="3.62542">
        <ele>136.16</ele>
        <time>2014-08-24T07:19:15Z</time>
      </trkpt>
      <trkpt lat="50.1139" lon="3.62542">
        <ele>136.16</ele>
        <time>2014-08-24T07:19:17Z</time>
      </trkpt>
      <trkpt lat="50.11393" lon="3.62545">
        <ele>136.16</ele>
        <time>2014-08-24T07:19:22Z</time>
      </trkpt>
      <trkpt lat="50.11399" lon="3.62561">
        <ele>136.16</ele>
        <time>2014-08-24T07:19:27Z</time>
      </trkpt>
      <trkpt lat="50.11399" lon="3.62565">
        <ele>137.13</ele>
        <time>2014-08-24T07:19:28Z</time>
      </trkpt>
      <trkpt lat="50.11398" lon="3.62569">
        <ele>137.13</ele>
        <time>2014-08-24T07:19:29Z</time>
      </trkpt>
      <trkpt lat="50.11387" lon="3.62603">
        <ele>138.57</ele>
        <time>2014-08-24T07:19:39Z</time>
      </trkpt>
      <trkpt lat="50.11372" lon="3.62628">
        <ele>138.57</ele>
        <time>2014-08-24T07:19:48Z</time>
      </trkpt>
      <trkpt lat="50.11346" lon="3.62672">
        <ele>138.57</ele>
        <time>2014-08-24T07:20:00Z</time>
      </trkpt>
      <trkpt lat="50.11324" lon="3.62713">
        <ele>137.13</ele>
        <time>2014-08-24T07:20:10Z</time>
      </trkpt>
      <trkpt lat="50.11303" lon="3.62755">
        <ele>135.68</ele>
        <time>2014-08-24T07:20:20Z</time>
      </trkpt>
      <trkpt lat="50.11283" lon="3.62792">
        <ele>135.2</ele>
        <time>2014-08-24T07:20:30Z</time>
      </trkpt>
      <trkpt lat="50.11277" lon="3.62801">
        <ele>135.2</ele>
        <time>2014-08-24T07:20:35Z</time>
      </trkpt>
      <trkpt lat="50.11276" lon="3.62804">
        <ele>135.2</ele>
        <time>2014-08-24T07:20:36Z</time>
      </trkpt>
      <trkpt lat="50.11258" lon="3.62838">
        <ele>136.16</ele>
        <time>2014-08-24T07:20:48Z</time>
      </trkpt>
      <trkpt lat="50.11238" lon="3.62879">
        <ele>137.61</ele>
        <time>2014-08-24T07:20:59Z</time>
      </trkpt>
      <trkpt lat="50.11224" lon="3.62906">
        <ele>138.09</ele>
        <time>2014-08-24T07:21:06Z</time>
      </trkpt>
      <trkpt lat="50.11222" lon="3.62909">
        <ele>138.09</ele>
        <time>2014-08-24T07:21:07Z</time>
      </trkpt>
      <trkpt lat="50.11206" lon="3.6294">
        <ele>139.05</ele>
        <time>2014-08-24T07:21:16Z</time>
      </trkpt>
      <trkpt lat="50.11181" lon="3.62986">
        <ele>139.53</ele>
        <time>2014-08-24T07:21:27Z</time>
      </trkpt>
      <trkpt lat="50.11154" lon="3.63035">
        <ele>140.01</ele>
        <time>2014-08-24T07:21:38Z</time>
      </trkpt>
      <trkpt lat="50.11126" lon="3.63087">
        <ele>140.01</ele>
        <time>2014-08-24T07:21:49Z</time>
      </trkpt>
      <trkpt lat="50.11123" lon="3.63093">
        <ele>140.01</ele>
        <time>2014-08-24T07:21:50Z</time>
      </trkpt>
      <trkpt lat="50.1112" lon="3.63099">
        <ele>138.57</ele>
        <time>2014-08-24T07:21:51Z</time>
      </trkpt>
      <trkpt lat="50.11117" lon="3.63105">
        <ele>138.57</ele>
        <time>2014-08-24T07:21:52Z</time>
      </trkpt>
      <trkpt lat="50.11092" lon="3.6315">
        <ele>137.13</ele>
        <time>2014-08-24T07:22:02Z</time>
      </trkpt>
      <trkpt lat="50.11083" lon="3.63174">
        <ele>137.13</ele>
        <time>2014-08-24T07:22:06Z</time>
      </trkpt>
      <trkpt lat="50.11064" lon="3.63211">
        <ele>136.16</ele>
        <time>2014-08-24T07:22:13Z</time>
      </trkpt>
      <trkpt lat="50.11062" lon="3.63217">
        <ele>136.16</ele>
        <time>2014-08-24T07:22:14Z</time>
      </trkpt>
      <trkpt lat="50.11045" lon="3.63248">
        <ele>135.2</ele>
        <time>2014-08-24T07:22:20Z</time>
      </trkpt>
      <trkpt lat="50.11041" lon="3.63253">
        <ele>135.2</ele>
        <time>2014-08-24T07:22:21Z</time>
      </trkpt>
      <trkpt lat="50.11038" lon="3.63259">
        <ele>135.2</ele>
        <time>2014-08-24T07:22:22Z</time>
      </trkpt>
      <trkpt lat="50.11035" lon="3.63265">
        <ele>135.2</ele>
        <time>2014-08-24T07:22:23Z</time>
      </trkpt>
      <trkpt lat="50.11031" lon="3.63271">
        <ele>134.72</ele>
        <time>2014-08-24T07:22:24Z</time>
      </trkpt>
      <trkpt lat="50.11024" lon="3.63282">
        <ele>134.72</ele>
        <time>2014-08-24T07:22:27Z</time>
      </trkpt>
      <trkpt lat="50.11023" lon="3.63283">
        <ele>134.72</ele>
        <time>2014-08-24T07:22:28Z</time>
      </trkpt>
      <trkpt lat="50.11012" lon="3.63258">
        <ele>134.24</ele>
        <time>2014-08-24T07:22:38Z</time>
      </trkpt>
      <trkpt lat="50.11003" lon="3.63203">
        <ele>133.28</ele>
        <time>2014-08-24T07:22:50Z</time>
      </trkpt>
      <trkpt lat="50.11007" lon="3.63174">
        <ele>132.8</ele>
        <time>2014-08-24T07:22:56Z</time>
      </trkpt>
      <trkpt lat="50.11009" lon="3.63167">
        <ele>132.32</ele>
        <time>2014-08-24T07:22:57Z</time>
      </trkpt>
      <trkpt lat="50.11009" lon="3.63161">
        <ele>132.32</ele>
        <time>2014-08-24T07:22:58Z</time>
      </trkpt>
      <trkpt lat="50.11009" lon="3.63154">
        <ele>132.32</ele>
        <time>2014-08-24T07:22:59Z</time>
      </trkpt>
      <trkpt lat="50.11008" lon="3.63148">
        <ele>132.32</ele>
        <time>2014-08-24T07:23:00Z</time>
      </trkpt>
      <trkpt lat="50.11007" lon="3.63143">
        <ele>132.32</ele>
        <time>2014-08-24T07:23:01Z</time>
      </trkpt>
      <trkpt lat="50.11007" lon="3.63137">
        <ele>132.32</ele>
        <time>2014-08-24T07:23:02Z</time>
      </trkpt>
      <trkpt lat="50.11006" lon="3.6313">
        <ele>132.32</ele>
        <time>2014-08-24T07:23:03Z</time>
      </trkpt>
      <trkpt lat="50.11002" lon="3.63074">
        <ele>133.76</ele>
        <time>2014-08-24T07:23:11Z</time>
      </trkpt>
      <trkpt lat="50.11004" lon="3.63042">
        <ele>133.76</ele>
        <time>2014-08-24T07:23:16Z</time>
      </trkpt>
      <trkpt lat="50.11005" lon="3.63035">
        <ele>133.76</ele>
        <time>2014-08-24T07:23:17Z</time>
      </trkpt>
      <trkpt lat="50.11012" lon="3.62988">
        <ele>133.76</ele>
        <time>2014-08-24T07:23:24Z</time>
      </trkpt>
      <trkpt lat="50.11013" lon="3.62982">
        <ele>133.76</ele>
        <time>2014-08-24T07:23:25Z</time>
      </trkpt>
      <trkpt lat="50.11027" lon="3.6294">
        <ele>133.76</ele>
        <time>2014-08-24T07:23:32Z</time>
      </trkpt>
      <trkpt lat="50.11029" lon="3.62933">
        <ele>133.76</ele>
        <time>2014-08-24T07:23:33Z</time>
      </trkpt>
      <trkpt lat="50.11032" lon="3.62919">
        <ele>133.76</ele>
        <time>2014-08-24T07:23:35Z</time>
      </trkpt>
      <trkpt lat="50.11033" lon="3.62912">
        <ele>133.76</ele>
        <time>2014-08-24T07:23:36Z</time>
      </trkpt>
      <trkpt lat="50.11036" lon="3.62898">
        <ele>133.76</ele>
        <time>2014-08-24T07:23:38Z</time>
      </trkpt>
      <trkpt lat="50.11037" lon="3.62891">
        <ele>133.76</ele>
        <time>2014-08-24T07:23:39Z</time>
      </trkpt>
      <trkpt lat="50.11036" lon="3.62883">
        <ele>133.76</ele>
        <time>2014-08-24T07:23:40Z</time>
      </trkpt>
      <trkpt lat="50.11035" lon="3.62876">
        <ele>133.76</ele>
        <time>2014-08-24T07:23:41Z</time>
      </trkpt>
      <trkpt lat="50.11033" lon="3.62868">
        <ele>133.76</ele>
        <time>2014-08-24T07:23:42Z</time>
      </trkpt>
      <trkpt lat="50.11032" lon="3.62859">
        <ele>132.32</ele>
        <time>2014-08-24T07:23:43Z</time>
      </trkpt>
      <trkpt lat="50.11026" lon="3.62826">
        <ele>132.32</ele>
        <time>2014-08-24T07:23:47Z</time>
      </trkpt>
      <trkpt lat="50.11024" lon="3.62818">
        <ele>132.32</ele>
        <time>2014-08-24T07:23:48Z</time>
      </trkpt>
      <trkpt lat="50.11023" lon="3.62811">
        <ele>132.32</ele>
        <time>2014-08-24T07:23:49Z</time>
      </trkpt>
      <trkpt lat="50.11021" lon="3.62804">
        <ele>132.32</ele>
        <time>2014-08-24T07:23:50Z</time>
      </trkpt>
      <trkpt lat="50.1102" lon="3.62797">
        <ele>132.32</ele>
        <time>2014-08-24T07:23:51Z</time>
      </trkpt>
      <trkpt lat="50.11019" lon="3.6279">
        <ele>132.32</ele>
        <time>2014-08-24T07:23:52Z</time>
      </trkpt>
      <trkpt lat="50.11017" lon="3.62783">
        <ele>132.32</ele>
        <time>2014-08-24T07:23:53Z</time>
      </trkpt>
      <trkpt lat="50.1101" lon="3.62763">
        <ele>132.32</ele>
        <time>2014-08-24T07:23:56Z</time>
      </trkpt>
      <trkpt lat="50.11008" lon="3.62757">
        <ele>132.32</ele>
        <time>2014-08-24T07:23:57Z</time>
      </trkpt>
      <trkpt lat="50.11005" lon="3.62751">
        <ele>132.32</ele>
        <time>2014-08-24T07:23:58Z</time>
      </trkpt>
      <trkpt lat="50.11003" lon="3.62744">
        <ele>132.32</ele>
        <time>2014-08-24T07:23:59Z</time>
      </trkpt>
      <trkpt lat="50.11001" lon="3.62738">
        <ele>132.32</ele>
        <time>2014-08-24T07:24:00Z</time>
      </trkpt>
      <trkpt lat="50.10999" lon="3.62731">
        <ele>132.32</ele>
        <time>2014-08-24T07:24:01Z</time>
      </trkpt>
      <trkpt lat="50.10997" lon="3.62724">
        <ele>132.32</ele>
        <time>2014-08-24T07:24:02Z</time>
      </trkpt>
      <trkpt lat="50.10995" lon="3.62717">
        <ele>132.32</ele>
        <time>2014-08-24T07:24:03Z</time>
      </trkpt>
      <trkpt lat="50.10994" lon="3.62711">
        <ele>132.32</ele>
        <time>2014-08-24T07:24:04Z</time>
      </trkpt>
      <trkpt lat="50.10994" lon="3.62705">
        <ele>132.32</ele>
        <time>2014-08-24T07:24:05Z</time>
      </trkpt>
      <trkpt lat="50.10994" lon="3.627">
        <ele>132.32</ele>
        <time>2014-08-24T07:24:06Z</time>
      </trkpt>
      <trkpt lat="50.10995" lon="3.62694">
        <ele>132.32</ele>
        <time>2014-08-24T07:24:07Z</time>
      </trkpt>
      <trkpt lat="50.10996" lon="3.62689">
        <ele>132.32</ele>
        <time>2014-08-24T07:24:08Z</time>
      </trkpt>
      <trkpt lat="50.11006" lon="3.62621">
        <ele>132.32</ele>
        <time>2014-08-24T07:24:19Z</time>
      </trkpt>
      <trkpt lat="50.11007" lon="3.62613">
        <ele>132.32</ele>
        <time>2014-08-24T07:24:20Z</time>
      </trkpt>
      <trkpt lat="50.11011" lon="3.62597">
        <ele>132.32</ele>
        <time>2014-08-24T07:24:22Z</time>
      </trkpt>
      <trkpt lat="50.11015" lon="3.62574">
        <ele>132.32</ele>
        <time>2014-08-24T07:24:25Z</time>
      </trkpt>
      <trkpt lat="50.11023" lon="3.62512">
        <ele>132.8</ele>
        <time>2014-08-24T07:24:34Z</time>
      </trkpt>
      <trkpt lat="50.11024" lon="3.62501">
        <ele>132.8</ele>
        <time>2014-08-24T07:24:36Z</time>
      </trkpt>
      <trkpt lat="50.11026" lon="3.62496">
        <ele>132.8</ele>
        <time>2014-08-24T07:24:37Z</time>
      </trkpt>
      <trkpt lat="50.11027" lon="3.62491">
        <ele>132.8</ele>
        <time>2014-08-24T07:24:38Z</time>
      </trkpt>
      <trkpt lat="50.11028" lon="3.62485">
        <ele>132.8</ele>
        <time>2014-08-24T07:24:39Z</time>
      </trkpt>
      <trkpt lat="50.11028" lon="3.62478">
        <ele>132.8</ele>
        <time>2014-08-24T07:24:40Z</time>
      </trkpt>
      <trkpt lat="50.11035" lon="3.62429">
        <ele>132.8</ele>
        <time>2014-08-24T07:24:49Z</time>
      </trkpt>
      <trkpt lat="50.11039" lon="3.62386">
        <ele>132.32</ele>
        <time>2014-08-24T07:24:56Z</time>
      </trkpt>
      <trkpt lat="50.11041" lon="3.62382">
        <ele>132.32</ele>
        <time>2014-08-24T07:24:57Z</time>
      </trkpt>
      <trkpt lat="50.11042" lon="3.62378">
        <ele>132.32</ele>
        <time>2014-08-24T07:24:58Z</time>
      </trkpt>
      <trkpt lat="50.11043" lon="3.62375">
        <ele>132.32</ele>
        <time>2014-08-24T07:24:59Z</time>
      </trkpt>
      <trkpt lat="50.11043" lon="3.62371">
        <ele>132.32</ele>
        <time>2014-08-24T07:25:00Z</time>
      </trkpt>
      <trkpt lat="50.11044" lon="3.62367">
        <ele>132.32</ele>
        <time>2014-08-24T07:25:01Z</time>
      </trkpt>
      <trkpt lat="50.11046" lon="3.62362">
        <ele>132.32</ele>
        <time>2014-08-24T07:25:02Z</time>
      </trkpt>
      <trkpt lat="50.11047" lon="3.62357">
        <ele>132.32</ele>
        <time>2014-08-24T07:25:03Z</time>
      </trkpt>
      <trkpt lat="50.11047" lon="3.62352">
        <ele>132.32</ele>
        <time>2014-08-24T07:25:04Z</time>
      </trkpt>
      <trkpt lat="50.11047" lon="3.62346">
        <ele>132.32</ele>
        <time>2014-08-24T07:25:05Z</time>
      </trkpt>
      <trkpt lat="50.11049" lon="3.6234">
        <ele>132.32</ele>
        <time>2014-08-24T07:25:06Z</time>
      </trkpt>
      <trkpt lat="50.11051" lon="3.62335">
        <ele>132.32</ele>
        <time>2014-08-24T07:25:07Z</time>
      </trkpt>
      <trkpt lat="50.11063" lon="3.62289">
        <ele>132.32</ele>
        <time>2014-08-24T07:25:16Z</time>
      </trkpt>
      <trkpt lat="50.11062" lon="3.62284">
        <ele>132.32</ele>
        <time>2014-08-24T07:25:17Z</time>
      </trkpt>
      <trkpt lat="50.1106" lon="3.62278">
        <ele>132.32</ele>
        <time>2014-08-24T07:25:18Z</time>
      </trkpt>
      <trkpt lat="50.11059" lon="3.62272">
        <ele>132.32</ele>
        <time>2014-08-24T07:25:19Z</time>
      </trkpt>
      <trkpt lat="50.11058" lon="3.62267">
        <ele>132.32</ele>
        <time>2014-08-24T07:25:20Z</time>
      </trkpt>
      <trkpt lat="50.11056" lon="3.62263">
        <ele>132.32</ele>
        <time>2014-08-24T07:25:21Z</time>
      </trkpt>
      <trkpt lat="50.11044" lon="3.62242">
        <ele>132.32</ele>
        <time>2014-08-24T07:25:29Z</time>
      </trkpt>
      <trkpt lat="50.11042" lon="3.62238">
        <ele>132.32</ele>
        <time>2014-08-24T07:25:30Z</time>
      </trkpt>
      <trkpt lat="50.1104" lon="3.62234">
        <ele>132.32</ele>
        <time>2014-08-24T07:25:31Z</time>
      </trkpt>
      <trkpt lat="50.11038" lon="3.62233">
        <ele>132.32</ele>
        <time>2014-08-24T07:25:32Z</time>
      </trkpt>
      <trkpt lat="50.11036" lon="3.62232">
        <ele>132.32</ele>
        <time>2014-08-24T07:25:33Z</time>
      </trkpt>
      <trkpt lat="50.11034" lon="3.62231">
        <ele>132.32</ele>
        <time>2014-08-24T07:25:34Z</time>
      </trkpt>
      <trkpt lat="50.11032" lon="3.62231">
        <ele>132.32</ele>
        <time>2014-08-24T07:25:35Z</time>
      </trkpt>
      <trkpt lat="50.1103" lon="3.62231">
        <ele>132.32</ele>
        <time>2014-08-24T07:25:36Z</time>
      </trkpt>
      <trkpt lat="50.11028" lon="3.62233">
        <ele>132.32</ele>
        <time>2014-08-24T07:25:37Z</time>
      </trkpt>
      <trkpt lat="50.11026" lon="3.62235">
        <ele>132.32</ele>
        <time>2014-08-24T07:25:38Z</time>
      </trkpt>
      <trkpt lat="50.11024" lon="3.62238">
        <ele>132.32</ele>
        <time>2014-08-24T07:25:39Z</time>
      </trkpt>
      <trkpt lat="50.11023" lon="3.6224">
        <ele>132.32</ele>
        <time>2014-08-24T07:25:40Z</time>
      </trkpt>
      <trkpt lat="50.11015" lon="3.62261">
        <ele>132.32</ele>
        <time>2014-08-24T07:25:49Z</time>
      </trkpt>
      <trkpt lat="50.11013" lon="3.62261">
        <ele>132.32</ele>
        <time>2014-08-24T07:25:50Z</time>
      </trkpt>
      <trkpt lat="50.11009" lon="3.62261">
        <ele>132.32</ele>
        <time>2014-08-24T07:25:52Z</time>
      </trkpt>
      <trkpt lat="50.11007" lon="3.62262">
        <ele>132.32</ele>
        <time>2014-08-24T07:25:53Z</time>
      </trkpt>
      <trkpt lat="50.11005" lon="3.62262">
        <ele>131.84</ele>
        <time>2014-08-24T07:25:54Z</time>
      </trkpt>
      <trkpt lat="50.11002" lon="3.62261">
        <ele>131.84</ele>
        <time>2014-08-24T07:25:55Z</time>
      </trkpt>
      <trkpt lat="50.11" lon="3.62261">
        <ele>131.84</ele>
        <time>2014-08-24T07:25:56Z</time>
      </trkpt>
      <trkpt lat="50.10998" lon="3.62261">
        <ele>131.84</ele>
        <time>2014-08-24T07:25:57Z</time>
      </trkpt>
      <trkpt lat="50.1099" lon="3.6226">
        <ele>131.84</ele>
        <time>2014-08-24T07:26:01Z</time>
      </trkpt>
      <trkpt lat="50.10988" lon="3.6226">
        <ele>131.84</ele>
        <time>2014-08-24T07:26:02Z</time>
      </trkpt>
      <trkpt lat="50.10986" lon="3.6226">
        <ele>131.84</ele>
        <time>2014-08-24T07:26:03Z</time>
      </trkpt>
      <trkpt lat="50.10984" lon="3.6226">
        <ele>133.28</ele>
        <time>2014-08-24T07:26:04Z</time>
      </trkpt>
      <trkpt lat="50.10983" lon="3.6226">
        <ele>133.28</ele>
        <time>2014-08-24T07:26:05Z</time>
      </trkpt>
      <trkpt lat="50.10956" lon="3.62262">
        <ele>134.72</ele>
        <time>2014-08-24T07:26:17Z</time>
      </trkpt>
      <trkpt lat="50.10935" lon="3.62262">
        <ele>136.64</ele>
        <time>2014-08-24T07:26:26Z</time>
      </trkpt>
      <trkpt lat="50.1091" lon="3.62265">
        <ele>137.61</ele>
        <time>2014-08-24T07:26:36Z</time>
      </trkpt>
      <trkpt lat="50.10906" lon="3.62265">
        <ele>137.61</ele>
        <time>2014-08-24T07:26:37Z</time>
      </trkpt>
      <trkpt lat="50.10873" lon="3.62266">
        <ele>138.57</ele>
        <time>2014-08-24T07:26:47Z</time>
      </trkpt>
      <trkpt lat="50.10863" lon="3.62267">
        <ele>138.57</ele>
        <time>2014-08-24T07:26:51Z</time>
      </trkpt>
      <trkpt lat="50.10861" lon="3.62268">
        <ele>139.05</ele>
        <time>2014-08-24T07:26:52Z</time>
      </trkpt>
      <trkpt lat="50.10858" lon="3.62268">
        <ele>139.05</ele>
        <time>2014-08-24T07:26:53Z</time>
      </trkpt>
      <trkpt lat="50.10855" lon="3.62268">
        <ele>139.05</ele>
        <time>2014-08-24T07:26:54Z</time>
      </trkpt>
      <trkpt lat="50.10852" lon="3.62268">
        <ele>139.05</ele>
        <time>2014-08-24T07:26:55Z</time>
      </trkpt>
      <trkpt lat="50.10849" lon="3.62268">
        <ele>139.05</ele>
        <time>2014-08-24T07:26:56Z</time>
      </trkpt>
      <trkpt lat="50.10845" lon="3.62268">
        <ele>139.05</ele>
        <time>2014-08-24T07:26:57Z</time>
      </trkpt>
      <trkpt lat="50.10842" lon="3.62267">
        <ele>139.53</ele>
        <time>2014-08-24T07:26:58Z</time>
      </trkpt>
      <trkpt lat="50.10838" lon="3.62267">
        <ele>139.53</ele>
        <time>2014-08-24T07:26:59Z</time>
      </trkpt>
      <trkpt lat="50.10835" lon="3.62267">
        <ele>139.53</ele>
        <time>2014-08-24T07:27:00Z</time>
      </trkpt>
      <trkpt lat="50.10814" lon="3.62266">
        <ele>139.53</ele>
        <time>2014-08-24T07:27:06Z</time>
      </trkpt>
      <trkpt lat="50.10786" lon="3.62236">
        <ele>139.53</ele>
        <time>2014-08-24T07:27:16Z</time>
      </trkpt>
      <trkpt lat="50.10758" lon="3.62203">
        <ele>140.01</ele>
        <time>2014-08-24T07:27:26Z</time>
      </trkpt>
      <trkpt lat="50.10734" lon="3.62173">
        <ele>140.01</ele>
        <time>2014-08-24T07:27:36Z</time>
      </trkpt>
      <trkpt lat="50.10731" lon="3.62169">
        <ele>140.01</ele>
        <time>2014-08-24T07:27:38Z</time>
      </trkpt>
      <trkpt lat="50.10729" lon="3.62169">
        <ele>140.01</ele>
        <time>2014-08-24T07:27:39Z</time>
      </trkpt>
      <trkpt lat="50.10726" lon="3.62171">
        <ele>140.01</ele>
        <time>2014-08-24T07:27:40Z</time>
      </trkpt>
      <trkpt lat="50.10724" lon="3.62173">
        <ele>140.01</ele>
        <time>2014-08-24T07:27:41Z</time>
      </trkpt>
      <trkpt lat="50.10722" lon="3.62176">
        <ele>140.01</ele>
        <time>2014-08-24T07:27:42Z</time>
      </trkpt>
      <trkpt lat="50.10692" lon="3.62209">
        <ele>140.01</ele>
        <time>2014-08-24T07:27:52Z</time>
      </trkpt>
      <trkpt lat="50.10663" lon="3.62255">
        <ele>138.57</ele>
        <time>2014-08-24T07:28:04Z</time>
      </trkpt>
      <trkpt lat="50.10633" lon="3.62302">
        <ele>137.13</ele>
        <time>2014-08-24T07:28:15Z</time>
      </trkpt>
      <trkpt lat="50.10622" lon="3.62321">
        <ele>136.64</ele>
        <time>2014-08-24T07:28:19Z</time>
      </trkpt>
      <trkpt lat="50.10619" lon="3.62325">
        <ele>136.64</ele>
        <time>2014-08-24T07:28:20Z</time>
      </trkpt>
      <trkpt lat="50.10617" lon="3.62331">
        <ele>136.64</ele>
        <time>2014-08-24T07:28:21Z</time>
      </trkpt>
      <trkpt lat="50.10593" lon="3.62394">
        <ele>135.2</ele>
        <time>2014-08-24T07:28:34Z</time>
      </trkpt>
      <trkpt lat="50.10554" lon="3.62453">
        <ele>135.2</ele>
        <time>2014-08-24T07:28:46Z</time>
      </trkpt>
      <trkpt lat="50.10487" lon="3.62525">
        <ele>136.64</ele>
        <time>2014-08-24T07:29:05Z</time>
      </trkpt>
      <trkpt lat="50.10429" lon="3.6259">
        <ele>138.09</ele>
        <time>2014-08-24T07:29:22Z</time>
      </trkpt>
      <trkpt lat="50.10367" lon="3.62655">
        <ele>139.05</ele>
        <time>2014-08-24T07:29:39Z</time>
      </trkpt>
      <trkpt lat="50.10364" lon="3.62659">
        <ele>139.05</ele>
        <time>2014-08-24T07:29:40Z</time>
      </trkpt>
      <trkpt lat="50.1036" lon="3.62662">
        <ele>139.05</ele>
        <time>2014-08-24T07:29:41Z</time>
      </trkpt>
      <trkpt lat="50.10356" lon="3.62665">
        <ele>139.05</ele>
        <time>2014-08-24T07:29:42Z</time>
      </trkpt>
      <trkpt lat="50.1035" lon="3.62664">
        <ele>139.05</ele>
        <time>2014-08-24T07:29:43Z</time>
      </trkpt>
      <trkpt lat="50.10347" lon="3.62663">
        <ele>137.61</ele>
        <time>2014-08-24T07:29:44Z</time>
      </trkpt>
      <trkpt lat="50.10343" lon="3.6266">
        <ele>137.61</ele>
        <time>2014-08-24T07:29:45Z</time>
      </trkpt>
      <trkpt lat="50.1034" lon="3.62656">
        <ele>137.61</ele>
        <time>2014-08-24T07:29:46Z</time>
      </trkpt>
      <trkpt lat="50.10336" lon="3.62652">
        <ele>137.61</ele>
        <time>2014-08-24T07:29:47Z</time>
      </trkpt>
      <trkpt lat="50.10298" lon="3.6261">
        <ele>138.09</ele>
        <time>2014-08-24T07:29:57Z</time>
      </trkpt>
      <trkpt lat="50.10264" lon="3.62548">
        <ele>138.09</ele>
        <time>2014-08-24T07:30:08Z</time>
      </trkpt>
      <trkpt lat="50.10261" lon="3.62542">
        <ele>138.09</ele>
        <time>2014-08-24T07:30:09Z</time>
      </trkpt>
      <trkpt lat="50.10213" lon="3.62456">
        <ele>138.09</ele>
        <time>2014-08-24T07:30:25Z</time>
      </trkpt>
      <trkpt lat="50.10159" lon="3.62362">
        <ele>138.09</ele>
        <time>2014-08-24T07:30:42Z</time>
      </trkpt>
      <trkpt lat="50.10119" lon="3.6228">
        <ele>138.09</ele>
        <time>2014-08-24T07:30:56Z</time>
      </trkpt>
      <trkpt lat="50.10107" lon="3.6225">
        <ele>138.09</ele>
        <time>2014-08-24T07:31:01Z</time>
      </trkpt>
      <trkpt lat="50.10106" lon="3.62243">
        <ele>138.09</ele>
        <time>2014-08-24T07:31:02Z</time>
      </trkpt>
      <trkpt lat="50.10106" lon="3.62236">
        <ele>138.09</ele>
        <time>2014-08-24T07:31:03Z</time>
      </trkpt>
      <trkpt lat="50.10104" lon="3.6216">
        <ele>139.53</ele>
        <time>2014-08-24T07:31:16Z</time>
      </trkpt>
      <trkpt lat="50.10092" lon="3.62105">
        <ele>139.53</ele>
        <time>2014-08-24T07:31:25Z</time>
      </trkpt>
      <trkpt lat="50.10087" lon="3.6208">
        <ele>140.01</ele>
        <time>2014-08-24T07:31:29Z</time>
      </trkpt>
      <trkpt lat="50.10065" lon="3.61974">
        <ele>140.01</ele>
        <time>2014-08-24T07:31:46Z</time>
      </trkpt>
      <trkpt lat="50.10058" lon="3.61941">
        <ele>140.01</ele>
        <time>2014-08-24T07:31:51Z</time>
      </trkpt>
      <trkpt lat="50.10057" lon="3.61935">
        <ele>140.01</ele>
        <time>2014-08-24T07:31:52Z</time>
      </trkpt>
      <trkpt lat="50.10055" lon="3.61922">
        <ele>140.01</ele>
        <time>2014-08-24T07:31:54Z</time>
      </trkpt>
      <trkpt lat="50.10054" lon="3.61916">
        <ele>140.01</ele>
        <time>2014-08-24T07:31:55Z</time>
      </trkpt>
      <trkpt lat="50.10053" lon="3.61909">
        <ele>140.01</ele>
        <time>2014-08-24T07:31:56Z</time>
      </trkpt>
      <trkpt lat="50.10052" lon="3.61903">
        <ele>140.01</ele>
        <time>2014-08-24T07:31:57Z</time>
      </trkpt>
      <trkpt lat="50.10051" lon="3.61897">
        <ele>140.01</ele>
        <time>2014-08-24T07:31:58Z</time>
      </trkpt>
      <trkpt lat="50.10034" lon="3.61787">
        <ele>140.01</ele>
        <time>2014-08-24T07:32:15Z</time>
      </trkpt>
      <trkpt lat="50.10019" lon="3.61683">
        <ele>141.45</ele>
        <time>2014-08-24T07:32:32Z</time>
      </trkpt>
      <trkpt lat="50.10008" lon="3.61624">
        <ele>142.89</ele>
        <time>2014-08-24T07:32:43Z</time>
      </trkpt>
      <trkpt lat="50.09996" lon="3.61554">
        <ele>144.34</ele>
        <time>2014-08-24T07:32:57Z</time>
      </trkpt>
      <trkpt lat="50.09989" lon="3.61463">
        <ele>142.41</ele>
        <time>2014-08-24T07:33:12Z</time>
      </trkpt>
      <trkpt lat="50.09992" lon="3.61386">
        <ele>141.93</ele>
        <time>2014-08-24T07:33:24Z</time>
      </trkpt>
      <trkpt lat="50.1" lon="3.61312">
        <ele>140.01</ele>
        <time>2014-08-24T07:33:37Z</time>
      </trkpt>
      <trkpt lat="50.09998" lon="3.6131">
        <ele>140.01</ele>
        <time>2014-08-24T07:33:39Z</time>
      </trkpt>
      <trkpt lat="50.09997" lon="3.61309">
        <ele>140.49</ele>
        <time>2014-08-24T07:33:40Z</time>
      </trkpt>
      <trkpt lat="50.09996" lon="3.61306">
        <ele>140.01</ele>
        <time>2014-08-24T07:33:41Z</time>
      </trkpt>
      <trkpt lat="50.09995" lon="3.61304">
        <ele>140.01</ele>
        <time>2014-08-24T07:33:42Z</time>
      </trkpt>
      <trkpt lat="50.09995" lon="3.61299">
        <ele>140.01</ele>
        <time>2014-08-24T07:33:43Z</time>
      </trkpt>
      <trkpt lat="50.09994" lon="3.61295">
        <ele>140.01</ele>
        <time>2014-08-24T07:33:44Z</time>
      </trkpt>
      <trkpt lat="50.09994" lon="3.61242">
        <ele>140.49</ele>
        <time>2014-08-24T07:33:54Z</time>
      </trkpt>
      <trkpt lat="50.09993" lon="3.61234">
        <ele>141.93</ele>
        <time>2014-08-24T07:33:56Z</time>
      </trkpt>
      <trkpt lat="50.09991" lon="3.61221">
        <ele>142.41</ele>
        <time>2014-08-24T07:33:59Z</time>
      </trkpt>
      <trkpt lat="50.09989" lon="3.61218">
        <ele>142.41</ele>
        <time>2014-08-24T07:34:00Z</time>
      </trkpt>
      <trkpt lat="50.09986" lon="3.61215">
        <ele>142.89</ele>
        <time>2014-08-24T07:34:01Z</time>
      </trkpt>
      <trkpt lat="50.0997" lon="3.6121">
        <ele>143.37</ele>
        <time>2014-08-24T07:34:07Z</time>
      </trkpt>
      <trkpt lat="50.09942" lon="3.61203">
        <ele>143.85</ele>
        <time>2014-08-24T07:34:16Z</time>
      </trkpt>
      <trkpt lat="50.09906" lon="3.61204">
        <ele>144.34</ele>
        <time>2014-08-24T07:34:26Z</time>
      </trkpt>
      <trkpt lat="50.09892" lon="3.61203">
        <ele>144.34</ele>
        <time>2014-08-24T07:34:30Z</time>
      </trkpt>
      <trkpt lat="50.09889" lon="3.61204">
        <ele>144.34</ele>
        <time>2014-08-24T07:34:31Z</time>
      </trkpt>
      <trkpt lat="50.09859" lon="3.61242">
        <ele>143.37</ele>
        <time>2014-08-24T07:34:41Z</time>
      </trkpt>
      <trkpt lat="50.09857" lon="3.61248">
        <ele>143.37</ele>
        <time>2014-08-24T07:34:42Z</time>
      </trkpt>
      <trkpt lat="50.09855" lon="3.61253">
        <ele>142.41</ele>
        <time>2014-08-24T07:34:43Z</time>
      </trkpt>
      <trkpt lat="50.09854" lon="3.61258">
        <ele>142.41</ele>
        <time>2014-08-24T07:34:44Z</time>
      </trkpt>
      <trkpt lat="50.09852" lon="3.61262">
        <ele>142.41</ele>
        <time>2014-08-24T07:34:45Z</time>
      </trkpt>
      <trkpt lat="50.09836" lon="3.61318">
        <ele>141.45</ele>
        <time>2014-08-24T07:34:55Z</time>
      </trkpt>
      <trkpt lat="50.09835" lon="3.61325">
        <ele>141.45</ele>
        <time>2014-08-24T07:34:56Z</time>
      </trkpt>
      <trkpt lat="50.09835" lon="3.61332">
        <ele>141.45</ele>
        <time>2014-08-24T07:34:57Z</time>
      </trkpt>
      <trkpt lat="50.09835" lon="3.61338">
        <ele>141.45</ele>
        <time>2014-08-24T07:34:58Z</time>
      </trkpt>
      <trkpt lat="50.09836" lon="3.61344">
        <ele>141.45</ele>
        <time>2014-08-24T07:34:59Z</time>
      </trkpt>
      <trkpt lat="50.09835" lon="3.6135">
        <ele>141.45</ele>
        <time>2014-08-24T07:35:00Z</time>
      </trkpt>
      <trkpt lat="50.09832" lon="3.61377">
        <ele>142.89</ele>
        <time>2014-08-24T07:35:04Z</time>
      </trkpt>
      <trkpt lat="50.09829" lon="3.61388">
        <ele>143.37</ele>
        <time>2014-08-24T07:35:06Z</time>
      </trkpt>
      <trkpt lat="50.09805" lon="3.61431">
        <ele>144.34</ele>
        <time>2014-08-24T07:35:16Z</time>
      </trkpt>
      <trkpt lat="50.09795" lon="3.61442">
        <ele>144.34</ele>
        <time>2014-08-24T07:35:19Z</time>
      </trkpt>
      <trkpt lat="50.09788" lon="3.61451">
        <ele>144.34</ele>
        <time>2014-08-24T07:35:21Z</time>
      </trkpt>
      <trkpt lat="50.09784" lon="3.61455">
        <ele>144.34</ele>
        <time>2014-08-24T07:35:22Z</time>
      </trkpt>
      <trkpt lat="50.09758" lon="3.6149">
        <ele>144.34</ele>
        <time>2014-08-24T07:35:32Z</time>
      </trkpt>
      <trkpt lat="50.09754" lon="3.61492">
        <ele>144.34</ele>
        <time>2014-08-24T07:35:33Z</time>
      </trkpt>
      <trkpt lat="50.09751" lon="3.6149">
        <ele>144.34</ele>
        <time>2014-08-24T07:35:34Z</time>
      </trkpt>
      <trkpt lat="50.09748" lon="3.61487">
        <ele>144.34</ele>
        <time>2014-08-24T07:35:35Z</time>
      </trkpt>
      <trkpt lat="50.09727" lon="3.61441">
        <ele>144.34</ele>
        <time>2014-08-24T07:35:45Z</time>
      </trkpt>
      <trkpt lat="50.09709" lon="3.61396">
        <ele>144.34</ele>
        <time>2014-08-24T07:35:55Z</time>
      </trkpt>
      <trkpt lat="50.09691" lon="3.61346">
        <ele>144.34</ele>
        <time>2014-08-24T07:36:06Z</time>
      </trkpt>
      <trkpt lat="50.09676" lon="3.61296">
        <ele>144.34</ele>
        <time>2014-08-24T07:36:18Z</time>
      </trkpt>
      <trkpt lat="50.09659" lon="3.61232">
        <ele>144.34</ele>
        <time>2014-08-24T07:36:31Z</time>
      </trkpt>
      <trkpt lat="50.09645" lon="3.61193">
        <ele>144.34</ele>
        <time>2014-08-24T07:36:38Z</time>
      </trkpt>
      <trkpt lat="50.09624" lon="3.61121">
        <ele>144.34</ele>
        <time>2014-08-24T07:36:51Z</time>
      </trkpt>
      <trkpt lat="50.09612" lon="3.61069">
        <ele>142.41</ele>
        <time>2014-08-24T07:36:59Z</time>
      </trkpt>
      <trkpt lat="50.09611" lon="3.61063">
        <ele>142.41</ele>
        <time>2014-08-24T07:37:00Z</time>
      </trkpt>
      <trkpt lat="50.09604" lon="3.61024">
        <ele>140.49</ele>
        <time>2014-08-24T07:37:05Z</time>
      </trkpt>
      <trkpt lat="50.0959" lon="3.60956">
        <ele>139.53</ele>
        <time>2014-08-24T07:37:13Z</time>
      </trkpt>
      <trkpt lat="50.09588" lon="3.6095">
        <ele>139.53</ele>
        <time>2014-08-24T07:37:14Z</time>
      </trkpt>
      <trkpt lat="50.09586" lon="3.60943">
        <ele>139.53</ele>
        <time>2014-08-24T07:37:15Z</time>
      </trkpt>
      <trkpt lat="50.09584" lon="3.60936">
        <ele>139.53</ele>
        <time>2014-08-24T07:37:16Z</time>
      </trkpt>
      <trkpt lat="50.09582" lon="3.60929">
        <ele>139.05</ele>
        <time>2014-08-24T07:37:17Z</time>
      </trkpt>
      <trkpt lat="50.09582" lon="3.60923">
        <ele>139.05</ele>
        <time>2014-08-24T07:37:18Z</time>
      </trkpt>
      <trkpt lat="50.09583" lon="3.60917">
        <ele>139.05</ele>
        <time>2014-08-24T07:37:19Z</time>
      </trkpt>
      <trkpt lat="50.09596" lon="3.60906">
        <ele>139.05</ele>
        <time>2014-08-24T07:37:24Z</time>
      </trkpt>
      <trkpt lat="50.09599" lon="3.60904">
        <ele>139.05</ele>
        <time>2014-08-24T07:37:25Z</time>
      </trkpt>
      <trkpt lat="50.09608" lon="3.609">
        <ele>140.49</ele>
        <time>2014-08-24T07:37:29Z</time>
      </trkpt>
      <trkpt lat="50.09636" lon="3.6088">
        <ele>141.93</ele>
        <time>2014-08-24T07:37:38Z</time>
      </trkpt>
      <trkpt lat="50.09655" lon="3.6086">
        <ele>143.37</ele>
        <time>2014-08-24T07:37:46Z</time>
      </trkpt>
      <trkpt lat="50.09658" lon="3.60858">
        <ele>143.37</ele>
        <time>2014-08-24T07:37:47Z</time>
      </trkpt>
      <trkpt lat="50.09682" lon="3.60826">
        <ele>144.34</ele>
        <time>2014-08-24T07:37:57Z</time>
      </trkpt>
      <trkpt lat="50.09684" lon="3.60823">
        <ele>144.82</ele>
        <time>2014-08-24T07:37:58Z</time>
      </trkpt>
      <trkpt lat="50.09687" lon="3.6082">
        <ele>144.82</ele>
        <time>2014-08-24T07:37:59Z</time>
      </trkpt>
      <trkpt lat="50.09689" lon="3.60816">
        <ele>144.82</ele>
        <time>2014-08-24T07:38:00Z</time>
      </trkpt>
      <trkpt lat="50.0969" lon="3.60812">
        <ele>144.82</ele>
        <time>2014-08-24T07:38:01Z</time>
      </trkpt>
      <trkpt lat="50.0969" lon="3.60806">
        <ele>144.82</ele>
        <time>2014-08-24T07:38:02Z</time>
      </trkpt>
      <trkpt lat="50.0969" lon="3.60801">
        <ele>144.82</ele>
        <time>2014-08-24T07:38:03Z</time>
      </trkpt>
      <trkpt lat="50.09691" lon="3.60795">
        <ele>144.82</ele>
        <time>2014-08-24T07:38:04Z</time>
      </trkpt>
      <trkpt lat="50.09692" lon="3.60791">
        <ele>144.82</ele>
        <time>2014-08-24T07:38:05Z</time>
      </trkpt>
      <trkpt lat="50.09694" lon="3.60787">
        <ele>144.82</ele>
        <time>2014-08-24T07:38:06Z</time>
      </trkpt>
      <trkpt lat="50.09719" lon="3.60723">
        <ele>144.82</ele>
        <time>2014-08-24T07:38:18Z</time>
      </trkpt>
      <trkpt lat="50.09737" lon="3.60664">
        <ele>144.82</ele>
        <time>2014-08-24T07:38:30Z</time>
      </trkpt>
      <trkpt lat="50.09748" lon="3.60626">
        <ele>143.37</ele>
        <time>2014-08-24T07:38:37Z</time>
      </trkpt>
      <trkpt lat="50.09761" lon="3.60596">
        <ele>143.37</ele>
        <time>2014-08-24T07:38:43Z</time>
      </trkpt>
      <trkpt lat="50.09764" lon="3.60593">
        <ele>143.37</ele>
        <time>2014-08-24T07:38:44Z</time>
      </trkpt>
      <trkpt lat="50.09766" lon="3.6059">
        <ele>143.37</ele>
        <time>2014-08-24T07:38:45Z</time>
      </trkpt>
      <trkpt lat="50.09769" lon="3.60586">
        <ele>143.37</ele>
        <time>2014-08-24T07:38:46Z</time>
      </trkpt>
      <trkpt lat="50.09771" lon="3.60582">
        <ele>143.37</ele>
        <time>2014-08-24T07:38:47Z</time>
      </trkpt>
      <trkpt lat="50.09774" lon="3.60577">
        <ele>143.37</ele>
        <time>2014-08-24T07:38:48Z</time>
      </trkpt>
      <trkpt lat="50.09777" lon="3.60572">
        <ele>143.37</ele>
        <time>2014-08-24T07:38:49Z</time>
      </trkpt>
      <trkpt lat="50.0978" lon="3.60568">
        <ele>143.37</ele>
        <time>2014-08-24T07:38:50Z</time>
      </trkpt>
      <trkpt lat="50.09802" lon="3.60547">
        <ele>142.89</ele>
        <time>2014-08-24T07:38:57Z</time>
      </trkpt>
      <trkpt lat="50.09809" lon="3.60551">
        <ele>143.37</ele>
        <time>2014-08-24T07:38:59Z</time>
      </trkpt>
      <trkpt lat="50.09813" lon="3.60553">
        <ele>142.89</ele>
        <time>2014-08-24T07:39:00Z</time>
      </trkpt>
      <trkpt lat="50.09816" lon="3.60554">
        <ele>143.37</ele>
        <time>2014-08-24T07:39:01Z</time>
      </trkpt>
      <trkpt lat="50.09819" lon="3.60555">
        <ele>143.37</ele>
        <time>2014-08-24T07:39:02Z</time>
      </trkpt>
      <trkpt lat="50.09822" lon="3.60555">
        <ele>143.37</ele>
        <time>2014-08-24T07:39:03Z</time>
      </trkpt>
      <trkpt lat="50.09826" lon="3.60554">
        <ele>143.37</ele>
        <time>2014-08-24T07:39:04Z</time>
      </trkpt>
      <trkpt lat="50.09828" lon="3.60552">
        <ele>143.37</ele>
        <time>2014-08-24T07:39:05Z</time>
      </trkpt>
      <trkpt lat="50.09829" lon="3.60549">
        <ele>143.37</ele>
        <time>2014-08-24T07:39:06Z</time>
      </trkpt>
      <trkpt lat="50.09831" lon="3.60546">
        <ele>143.37</ele>
        <time>2014-08-24T07:39:07Z</time>
      </trkpt>
      <trkpt lat="50.09849" lon="3.60525">
        <ele>143.37</ele>
        <time>2014-08-24T07:39:14Z</time>
      </trkpt>
      <trkpt lat="50.09877" lon="3.60485">
        <ele>142.89</ele>
        <time>2014-08-24T07:39:24Z</time>
      </trkpt>
      <trkpt lat="50.0989" lon="3.6046">
        <ele>142.41</ele>
        <time>2014-08-24T07:39:29Z</time>
      </trkpt>
      <trkpt lat="50.09894" lon="3.60449">
        <ele>141.93</ele>
        <time>2014-08-24T07:39:31Z</time>
      </trkpt>
      <trkpt lat="50.09895" lon="3.60443">
        <ele>141.93</ele>
        <time>2014-08-24T07:39:32Z</time>
      </trkpt>
      <trkpt lat="50.09892" lon="3.6043">
        <ele>141.45</ele>
        <time>2014-08-24T07:39:34Z</time>
      </trkpt>
      <trkpt lat="50.09885" lon="3.60401">
        <ele>140.49</ele>
        <time>2014-08-24T07:39:38Z</time>
      </trkpt>
      <trkpt lat="50.09885" lon="3.60393">
        <ele>140.01</ele>
        <time>2014-08-24T07:39:39Z</time>
      </trkpt>
      <trkpt lat="50.09886" lon="3.60385">
        <ele>140.01</ele>
        <time>2014-08-24T07:39:40Z</time>
      </trkpt>
      <trkpt lat="50.09888" lon="3.60378">
        <ele>140.01</ele>
        <time>2014-08-24T07:39:41Z</time>
      </trkpt>
      <trkpt lat="50.0989" lon="3.6037">
        <ele>139.53</ele>
        <time>2014-08-24T07:39:42Z</time>
      </trkpt>
      <trkpt lat="50.09892" lon="3.60363">
        <ele>139.53</ele>
        <time>2014-08-24T07:39:43Z</time>
      </trkpt>
      <trkpt lat="50.09895" lon="3.60356">
        <ele>139.53</ele>
        <time>2014-08-24T07:39:44Z</time>
      </trkpt>
      <trkpt lat="50.09897" lon="3.6035">
        <ele>139.53</ele>
        <time>2014-08-24T07:39:45Z</time>
      </trkpt>
      <trkpt lat="50.09899" lon="3.60343">
        <ele>139.53</ele>
        <time>2014-08-24T07:39:46Z</time>
      </trkpt>
      <trkpt lat="50.09901" lon="3.60337">
        <ele>139.05</ele>
        <time>2014-08-24T07:39:47Z</time>
      </trkpt>
      <trkpt lat="50.09903" lon="3.60329">
        <ele>138.57</ele>
        <time>2014-08-24T07:39:48Z</time>
      </trkpt>
      <trkpt lat="50.09904" lon="3.6032">
        <ele>138.09</ele>
        <time>2014-08-24T07:39:49Z</time>
      </trkpt>
      <trkpt lat="50.09907" lon="3.60312">
        <ele>138.09</ele>
        <time>2014-08-24T07:39:50Z</time>
      </trkpt>
      <trkpt lat="50.09909" lon="3.60302">
        <ele>137.61</ele>
        <time>2014-08-24T07:39:51Z</time>
      </trkpt>
      <trkpt lat="50.0991" lon="3.60293">
        <ele>137.61</ele>
        <time>2014-08-24T07:39:52Z</time>
      </trkpt>
      <trkpt lat="50.09908" lon="3.60283">
        <ele>137.13</ele>
        <time>2014-08-24T07:39:53Z</time>
      </trkpt>
      <trkpt lat="50.09906" lon="3.60274">
        <ele>136.64</ele>
        <time>2014-08-24T07:39:54Z</time>
      </trkpt>
      <trkpt lat="50.09902" lon="3.60254">
        <ele>136.16</ele>
        <time>2014-08-24T07:39:56Z</time>
      </trkpt>
      <trkpt lat="50.09899" lon="3.60245">
        <ele>135.68</ele>
        <time>2014-08-24T07:39:57Z</time>
      </trkpt>
      <trkpt lat="50.09896" lon="3.60236">
        <ele>135.68</ele>
        <time>2014-08-24T07:39:58Z</time>
      </trkpt>
      <trkpt lat="50.09894" lon="3.60226">
        <ele>135.68</ele>
        <time>2014-08-24T07:39:59Z</time>
      </trkpt>
      <trkpt lat="50.09892" lon="3.60218">
        <ele>135.2</ele>
        <time>2014-08-24T07:40:00Z</time>
      </trkpt>
      <trkpt lat="50.0989" lon="3.60209">
        <ele>135.2</ele>
        <time>2014-08-24T07:40:01Z</time>
      </trkpt>
      <trkpt lat="50.09888" lon="3.602">
        <ele>134.24</ele>
        <time>2014-08-24T07:40:02Z</time>
      </trkpt>
      <trkpt lat="50.09887" lon="3.60191">
        <ele>134.24</ele>
        <time>2014-08-24T07:40:03Z</time>
      </trkpt>
      <trkpt lat="50.09884" lon="3.60172">
        <ele>133.76</ele>
        <time>2014-08-24T07:40:05Z</time>
      </trkpt>
      <trkpt lat="50.09882" lon="3.60163">
        <ele>133.76</ele>
        <time>2014-08-24T07:40:06Z</time>
      </trkpt>
      <trkpt lat="50.0988" lon="3.60154">
        <ele>133.76</ele>
        <time>2014-08-24T07:40:07Z</time>
      </trkpt>
      <trkpt lat="50.09879" lon="3.60146">
        <ele>132.8</ele>
        <time>2014-08-24T07:40:08Z</time>
      </trkpt>
      <trkpt lat="50.09879" lon="3.60138">
        <ele>132.32</ele>
        <time>2014-08-24T07:40:09Z</time>
      </trkpt>
      <trkpt lat="50.09881" lon="3.6013">
        <ele>132.32</ele>
        <time>2014-08-24T07:40:10Z</time>
      </trkpt>
      <trkpt lat="50.09893" lon="3.60114">
        <ele>132.32</ele>
        <time>2014-08-24T07:40:13Z</time>
      </trkpt>
      <trkpt lat="50.09898" lon="3.60106">
        <ele>132.32</ele>
        <time>2014-08-24T07:40:14Z</time>
      </trkpt>
      <trkpt lat="50.09901" lon="3.60102">
        <ele>131.36</ele>
        <time>2014-08-24T07:40:15Z</time>
      </trkpt>
      <trkpt lat="50.09905" lon="3.60097">
        <ele>131.36</ele>
        <time>2014-08-24T07:40:16Z</time>
      </trkpt>
      <trkpt lat="50.09909" lon="3.60091">
        <ele>131.36</ele>
        <time>2014-08-24T07:40:17Z</time>
      </trkpt>
      <trkpt lat="50.09912" lon="3.60083">
        <ele>131.36</ele>
        <time>2014-08-24T07:40:18Z</time>
      </trkpt>
      <trkpt lat="50.09916" lon="3.60076">
        <ele>131.84</ele>
        <time>2014-08-24T07:40:19Z</time>
      </trkpt>
      <trkpt lat="50.09921" lon="3.60069">
        <ele>131.84</ele>
        <time>2014-08-24T07:40:20Z</time>
      </trkpt>
      <trkpt lat="50.09925" lon="3.60061">
        <ele>131.84</ele>
        <time>2014-08-24T07:40:21Z</time>
      </trkpt>
      <trkpt lat="50.09929" lon="3.60053">
        <ele>131.84</ele>
        <time>2014-08-24T07:40:22Z</time>
      </trkpt>
      <trkpt lat="50.09933" lon="3.60045">
        <ele>131.84</ele>
        <time>2014-08-24T07:40:23Z</time>
      </trkpt>
      <trkpt lat="50.09941" lon="3.60031">
        <ele>131.84</ele>
        <time>2014-08-24T07:40:25Z</time>
      </trkpt>
      <trkpt lat="50.09963" lon="3.60006">
        <ele>131.84</ele>
        <time>2014-08-24T07:40:30Z</time>
      </trkpt>
      <trkpt lat="50.09986" lon="3.59984">
        <ele>131.84</ele>
        <time>2014-08-24T07:40:36Z</time>
      </trkpt>
      <trkpt lat="50.09987" lon="3.59979">
        <ele>131.84</ele>
        <time>2014-08-24T07:40:37Z</time>
      </trkpt>
      <trkpt lat="50.09988" lon="3.59974">
        <ele>131.84</ele>
        <time>2014-08-24T07:40:44Z</time>
      </trkpt>
      <trkpt lat="50.09994" lon="3.59971">
        <ele>131.84</ele>
        <time>2014-08-24T07:41:15Z</time>
      </trkpt>
      <trkpt lat="50.09994" lon="3.59969">
        <ele>131.84</ele>
        <time>2014-08-24T07:41:36Z</time>
      </trkpt>
      <trkpt lat="50.09996" lon="3.59968">
        <ele>131.84</ele>
        <time>2014-08-24T07:41:52Z</time>
      </trkpt>
      <trkpt lat="50.1" lon="3.59971">
        <ele>132.32</ele>
        <time>2014-08-24T07:42:13Z</time>
      </trkpt>
      <trkpt lat="50.09995" lon="3.59973">
        <ele>132.32</ele>
        <time>2014-08-24T07:42:48Z</time>
      </trkpt>
      <trkpt lat="50.09991" lon="3.59968">
        <ele>132.32</ele>
        <time>2014-08-24T07:43:15Z</time>
      </trkpt>
      <trkpt lat="50.09994" lon="3.59971">
        <ele>132.32</ele>
        <time>2014-08-24T07:43:43Z</time>
      </trkpt>
      <trkpt lat="50.09991" lon="3.59971">
        <ele>132.32</ele>
        <time>2014-08-24T07:44:06Z</time>
      </trkpt>
      <trkpt lat="50.09995" lon="3.59973">
        <ele>132.32</ele>
        <time>2014-08-24T07:44:37Z</time>
      </trkpt>
      <trkpt lat="50.09997" lon="3.59974">
        <ele>132.32</ele>
        <time>2014-08-24T07:45:04Z</time>
      </trkpt>
      <trkpt lat="50.09997" lon="3.59972">
        <ele>132.32</ele>
        <time>2014-08-24T07:45:09Z</time>
      </trkpt>
      <trkpt lat="50.09997" lon="3.59969">
        <ele>132.32</ele>
        <time>2014-08-24T07:45:10Z</time>
      </trkpt>
      <trkpt lat="50.09998" lon="3.59967">
        <ele>132.32</ele>
        <time>2014-08-24T07:45:11Z</time>
      </trkpt>
      <trkpt lat="50.09998" lon="3.59965">
        <ele>132.32</ele>
        <time>2014-08-24T07:45:12Z</time>
      </trkpt>
      <trkpt lat="50.09998" lon="3.59963">
        <ele>132.32</ele>
        <time>2014-08-24T07:45:13Z</time>
      </trkpt>
      <trkpt lat="50.09998" lon="3.5996">
        <ele>132.32</ele>
        <time>2014-08-24T07:45:14Z</time>
      </trkpt>
      <trkpt lat="50.09998" lon="3.59957">
        <ele>132.32</ele>
        <time>2014-08-24T07:45:15Z</time>
      </trkpt>
      <trkpt lat="50.10002" lon="3.59911">
        <ele>132.8</ele>
        <time>2014-08-24T07:45:26Z</time>
      </trkpt>
      <trkpt lat="50.10018" lon="3.59863">
        <ele>132.8</ele>
        <time>2014-08-24T07:45:37Z</time>
      </trkpt>
      <trkpt lat="50.1002" lon="3.59851">
        <ele>132.32</ele>
        <time>2014-08-24T07:45:39Z</time>
      </trkpt>
      <trkpt lat="50.10038" lon="3.59773">
        <ele>132.32</ele>
        <time>2014-08-24T07:45:52Z</time>
      </trkpt>
      <trkpt lat="50.1004" lon="3.59767">
        <ele>132.32</ele>
        <time>2014-08-24T07:45:53Z</time>
      </trkpt>
      <trkpt lat="50.1006" lon="3.5968">
        <ele>132.32</ele>
        <time>2014-08-24T07:46:09Z</time>
      </trkpt>
      <trkpt lat="50.10087" lon="3.59577">
        <ele>133.76</ele>
        <time>2014-08-24T07:46:26Z</time>
      </trkpt>
      <trkpt lat="50.10087" lon="3.5948">
        <ele>134.24</ele>
        <time>2014-08-24T07:46:40Z</time>
      </trkpt>
      <trkpt lat="50.10086" lon="3.59474">
        <ele>134.24</ele>
        <time>2014-08-24T07:46:41Z</time>
      </trkpt>
      <trkpt lat="50.10081" lon="3.59436">
        <ele>134.24</ele>
        <time>2014-08-24T07:46:47Z</time>
      </trkpt>
      <trkpt lat="50.1008" lon="3.59429">
        <ele>134.24</ele>
        <time>2014-08-24T07:46:48Z</time>
      </trkpt>
      <trkpt lat="50.10072" lon="3.59315">
        <ele>134.72</ele>
        <time>2014-08-24T07:47:06Z</time>
      </trkpt>
      <trkpt lat="50.10072" lon="3.59301">
        <ele>134.72</ele>
        <time>2014-08-24T07:47:08Z</time>
      </trkpt>
      <trkpt lat="50.10072" lon="3.59295">
        <ele>134.72</ele>
        <time>2014-08-24T07:47:09Z</time>
      </trkpt>
      <trkpt lat="50.10072" lon="3.59281">
        <ele>134.72</ele>
        <time>2014-08-24T07:47:11Z</time>
      </trkpt>
      <trkpt lat="50.10073" lon="3.59274">
        <ele>134.72</ele>
        <time>2014-08-24T07:47:12Z</time>
      </trkpt>
      <trkpt lat="50.10076" lon="3.59231">
        <ele>133.28</ele>
        <time>2014-08-24T07:47:18Z</time>
      </trkpt>
      <trkpt lat="50.10095" lon="3.59104">
        <ele>132.8</ele>
        <time>2014-08-24T07:47:36Z</time>
      </trkpt>
      <trkpt lat="50.10114" lon="3.5899">
        <ele>131.84</ele>
        <time>2014-08-24T07:47:52Z</time>
      </trkpt>
      <trkpt lat="50.10119" lon="3.58962">
        <ele>131.84</ele>
        <time>2014-08-24T07:47:56Z</time>
      </trkpt>
      <trkpt lat="50.1012" lon="3.58955">
        <ele>131.84</ele>
        <time>2014-08-24T07:47:57Z</time>
      </trkpt>
      <trkpt lat="50.10121" lon="3.58947">
        <ele>131.84</ele>
        <time>2014-08-24T07:47:58Z</time>
      </trkpt>
      <trkpt lat="50.10139" lon="3.5883">
        <ele>130.4</ele>
        <time>2014-08-24T07:48:14Z</time>
      </trkpt>
      <trkpt lat="50.10142" lon="3.58809">
        <ele>130.4</ele>
        <time>2014-08-24T07:48:17Z</time>
      </trkpt>
      <trkpt lat="50.10143" lon="3.58802">
        <ele>130.88</ele>
        <time>2014-08-24T07:48:18Z</time>
      </trkpt>
      <trkpt lat="50.10149" lon="3.58673">
        <ele>128.47</ele>
        <time>2014-08-24T07:48:34Z</time>
      </trkpt>
      <trkpt lat="50.10159" lon="3.58517">
        <ele>125.59</ele>
        <time>2014-08-24T07:48:50Z</time>
      </trkpt>
      <trkpt lat="50.10177" lon="3.58385">
        <ele>122.22</ele>
        <time>2014-08-24T07:49:02Z</time>
      </trkpt>
      <trkpt lat="50.10179" lon="3.58373">
        <ele>122.22</ele>
        <time>2014-08-24T07:49:03Z</time>
      </trkpt>
      <trkpt lat="50.10181" lon="3.58362">
        <ele>121.26</ele>
        <time>2014-08-24T07:49:04Z</time>
      </trkpt>
      <trkpt lat="50.10183" lon="3.58351">
        <ele>121.26</ele>
        <time>2014-08-24T07:49:05Z</time>
      </trkpt>
      <trkpt lat="50.10197" lon="3.58279">
        <ele>118.38</ele>
        <time>2014-08-24T07:49:11Z</time>
      </trkpt>
      <trkpt lat="50.10206" lon="3.5824">
        <ele>116.94</ele>
        <time>2014-08-24T07:49:14Z</time>
      </trkpt>
      <trkpt lat="50.10216" lon="3.58154">
        <ele>114.05</ele>
        <time>2014-08-24T07:49:20Z</time>
      </trkpt>
      <trkpt lat="50.10215" lon="3.58139">
        <ele>114.05</ele>
        <time>2014-08-24T07:49:21Z</time>
      </trkpt>
      <trkpt lat="50.10214" lon="3.58125">
        <ele>113.09</ele>
        <time>2014-08-24T07:49:22Z</time>
      </trkpt>
      <trkpt lat="50.10204" lon="3.58058">
        <ele>112.13</ele>
        <time>2014-08-24T07:49:27Z</time>
      </trkpt>
      <trkpt lat="50.10204" lon="3.58046">
        <ele>112.13</ele>
        <time>2014-08-24T07:49:28Z</time>
      </trkpt>
      <trkpt lat="50.10205" lon="3.58035">
        <ele>112.13</ele>
        <time>2014-08-24T07:49:29Z</time>
      </trkpt>
      <trkpt lat="50.10208" lon="3.58024">
        <ele>112.13</ele>
        <time>2014-08-24T07:49:30Z</time>
      </trkpt>
      <trkpt lat="50.10211" lon="3.58014">
        <ele>111.65</ele>
        <time>2014-08-24T07:49:31Z</time>
      </trkpt>
      <trkpt lat="50.10214" lon="3.58005">
        <ele>111.65</ele>
        <time>2014-08-24T07:49:32Z</time>
      </trkpt>
      <trkpt lat="50.10216" lon="3.57995">
        <ele>111.65</ele>
        <time>2014-08-24T07:49:33Z</time>
      </trkpt>
      <trkpt lat="50.1022" lon="3.57976">
        <ele>110.69</ele>
        <time>2014-08-24T07:49:35Z</time>
      </trkpt>
      <trkpt lat="50.10222" lon="3.57968">
        <ele>110.69</ele>
        <time>2014-08-24T07:49:36Z</time>
      </trkpt>
      <trkpt lat="50.10227" lon="3.57955">
        <ele>110.21</ele>
        <time>2014-08-24T07:49:38Z</time>
      </trkpt>
      <trkpt lat="50.10227" lon="3.57947">
        <ele>109.25</ele>
        <time>2014-08-24T07:49:39Z</time>
      </trkpt>
      <trkpt lat="50.10227" lon="3.5794">
        <ele>109.25</ele>
        <time>2014-08-24T07:49:40Z</time>
      </trkpt>
      <trkpt lat="50.10226" lon="3.57933">
        <ele>109.25</ele>
        <time>2014-08-24T07:49:41Z</time>
      </trkpt>
      <trkpt lat="50.10225" lon="3.57927">
        <ele>109.25</ele>
        <time>2014-08-24T07:49:42Z</time>
      </trkpt>
      <trkpt lat="50.10223" lon="3.57921">
        <ele>109.25</ele>
        <time>2014-08-24T07:49:43Z</time>
      </trkpt>
      <trkpt lat="50.10221" lon="3.57916">
        <ele>110.69</ele>
        <time>2014-08-24T07:49:44Z</time>
      </trkpt>
      <trkpt lat="50.10219" lon="3.5791">
        <ele>110.69</ele>
        <time>2014-08-24T07:49:45Z</time>
      </trkpt>
      <trkpt lat="50.10196" lon="3.5785">
        <ele>114.05</ele>
        <time>2014-08-24T07:49:55Z</time>
      </trkpt>
      <trkpt lat="50.10194" lon="3.57845">
        <ele>114.05</ele>
        <time>2014-08-24T07:49:56Z</time>
      </trkpt>
      <trkpt lat="50.10189" lon="3.57833">
        <ele>114.05</ele>
        <time>2014-08-24T07:49:58Z</time>
      </trkpt>
      <trkpt lat="50.1018" lon="3.5781">
        <ele>115.98</ele>
        <time>2014-08-24T07:50:02Z</time>
      </trkpt>
      <trkpt lat="50.10178" lon="3.57804">
        <ele>115.98</ele>
        <time>2014-08-24T07:50:03Z</time>
      </trkpt>
      <trkpt lat="50.10176" lon="3.57799">
        <ele>116.46</ele>
        <time>2014-08-24T07:50:04Z</time>
      </trkpt>
      <trkpt lat="50.10172" lon="3.57788">
        <ele>116.46</ele>
        <time>2014-08-24T07:50:06Z</time>
      </trkpt>
      <trkpt lat="50.10162" lon="3.57765">
        <ele>117.42</ele>
        <time>2014-08-24T07:50:10Z</time>
      </trkpt>
      <trkpt lat="50.1016" lon="3.57759">
        <ele>118.38</ele>
        <time>2014-08-24T07:50:11Z</time>
      </trkpt>
      <trkpt lat="50.10158" lon="3.57754">
        <ele>118.38</ele>
        <time>2014-08-24T07:50:12Z</time>
      </trkpt>
      <trkpt lat="50.10156" lon="3.57749">
        <ele>118.38</ele>
        <time>2014-08-24T07:50:13Z</time>
      </trkpt>
      <trkpt lat="50.10154" lon="3.57743">
        <ele>119.34</ele>
        <time>2014-08-24T07:50:14Z</time>
      </trkpt>
      <trkpt lat="50.10152" lon="3.57738">
        <ele>119.34</ele>
        <time>2014-08-24T07:50:15Z</time>
      </trkpt>
      <trkpt lat="50.10146" lon="3.57722">
        <ele>120.3</ele>
        <time>2014-08-24T07:50:18Z</time>
      </trkpt>
      <trkpt lat="50.10137" lon="3.57653">
        <ele>123.19</ele>
        <time>2014-08-24T07:50:32Z</time>
      </trkpt>
      <trkpt lat="50.10148" lon="3.57577">
        <ele>123.19</ele>
        <time>2014-08-24T07:50:46Z</time>
      </trkpt>
      <trkpt lat="50.10164" lon="3.57486">
        <ele>123.19</ele>
        <time>2014-08-24T07:51:02Z</time>
      </trkpt>
      <trkpt lat="50.10175" lon="3.57409">
        <ele>123.67</ele>
        <time>2014-08-24T07:51:17Z</time>
      </trkpt>
      <trkpt lat="50.10177" lon="3.57334">
        <ele>125.11</ele>
        <time>2014-08-24T07:51:32Z</time>
      </trkpt>
      <trkpt lat="50.10177" lon="3.5728">
        <ele>127.99</ele>
        <time>2014-08-24T07:51:43Z</time>
      </trkpt>
      <trkpt lat="50.10177" lon="3.57227">
        <ele>129.43</ele>
        <time>2014-08-24T07:51:56Z</time>
      </trkpt>
      <trkpt lat="50.1017" lon="3.57165">
        <ele>130.88</ele>
        <time>2014-08-24T07:52:10Z</time>
      </trkpt>
      <trkpt lat="50.10141" lon="3.57107">
        <ele>131.84</ele>
        <time>2014-08-24T07:52:25Z</time>
      </trkpt>
      <trkpt lat="50.10111" lon="3.57037">
        <ele>132.32</ele>
        <time>2014-08-24T07:52:42Z</time>
      </trkpt>
      <trkpt lat="50.10125" lon="3.56997">
        <ele>133.76</ele>
        <time>2014-08-24T07:52:51Z</time>
      </trkpt>
      <trkpt lat="50.10159" lon="3.56959">
        <ele>134.72</ele>
        <time>2014-08-24T07:53:03Z</time>
      </trkpt>
      <trkpt lat="50.10196" lon="3.56918">
        <ele>135.2</ele>
        <time>2014-08-24T07:53:15Z</time>
      </trkpt>
      <trkpt lat="50.10245" lon="3.56866">
        <ele>138.09</ele>
        <time>2014-08-24T07:53:32Z</time>
      </trkpt>
      <trkpt lat="50.10284" lon="3.56821">
        <ele>139.53</ele>
        <time>2014-08-24T07:53:44Z</time>
      </trkpt>
      <trkpt lat="50.10287" lon="3.56817">
        <ele>139.53</ele>
        <time>2014-08-24T07:53:45Z</time>
      </trkpt>
      <trkpt lat="50.10338" lon="3.5676">
        <ele>140.49</ele>
        <time>2014-08-24T07:54:00Z</time>
      </trkpt>
      <trkpt lat="50.10387" lon="3.56706">
        <ele>140.97</ele>
        <time>2014-08-24T07:54:17Z</time>
      </trkpt>
      <trkpt lat="50.10397" lon="3.56696">
        <ele>140.97</ele>
        <time>2014-08-24T07:54:20Z</time>
      </trkpt>
      <trkpt lat="50.10412" lon="3.56679">
        <ele>139.53</ele>
        <time>2014-08-24T07:54:24Z</time>
      </trkpt>
      <trkpt lat="50.10445" lon="3.56644">
        <ele>137.13</ele>
        <time>2014-08-24T07:54:35Z</time>
      </trkpt>
      <trkpt lat="50.10448" lon="3.56643">
        <ele>136.64</ele>
        <time>2014-08-24T07:54:46Z</time>
      </trkpt>
      <trkpt lat="50.10449" lon="3.56642">
        <ele>136.64</ele>
        <time>2014-08-24T07:55:09Z</time>
      </trkpt>
      <trkpt lat="50.10451" lon="3.56643">
        <ele>136.64</ele>
        <time>2014-08-24T07:55:10Z</time>
      </trkpt>
      <trkpt lat="50.10453" lon="3.56644">
        <ele>136.64</ele>
        <time>2014-08-24T07:55:11Z</time>
      </trkpt>
      <trkpt lat="50.10454" lon="3.56646">
        <ele>136.64</ele>
        <time>2014-08-24T07:55:12Z</time>
      </trkpt>
      <trkpt lat="50.10456" lon="3.56649">
        <ele>136.64</ele>
        <time>2014-08-24T07:55:13Z</time>
      </trkpt>
      <trkpt lat="50.10457" lon="3.56654">
        <ele>136.64</ele>
        <time>2014-08-24T07:55:14Z</time>
      </trkpt>
      <trkpt lat="50.10458" lon="3.56659">
        <ele>136.16</ele>
        <time>2014-08-24T07:55:15Z</time>
      </trkpt>
      <trkpt lat="50.1046" lon="3.56664">
        <ele>136.16</ele>
        <time>2014-08-24T07:55:16Z</time>
      </trkpt>
      <trkpt lat="50.10462" lon="3.56669">
        <ele>136.16</ele>
        <time>2014-08-24T07:55:17Z</time>
      </trkpt>
      <trkpt lat="50.10465" lon="3.56675">
        <ele>136.16</ele>
        <time>2014-08-24T07:55:18Z</time>
      </trkpt>
      <trkpt lat="50.10467" lon="3.5668">
        <ele>135.68</ele>
        <time>2014-08-24T07:55:19Z</time>
      </trkpt>
      <trkpt lat="50.10475" lon="3.56699">
        <ele>135.2</ele>
        <time>2014-08-24T07:55:22Z</time>
      </trkpt>
      <trkpt lat="50.10537" lon="3.56817">
        <ele>132.8</ele>
        <time>2014-08-24T07:55:37Z</time>
      </trkpt>
      <trkpt lat="50.10604" lon="3.56977">
        <ele>130.4</ele>
        <time>2014-08-24T07:55:52Z</time>
      </trkpt>
      <trkpt lat="50.10671" lon="3.57105">
        <ele>126.55</ele>
        <time>2014-08-24T07:56:04Z</time>
      </trkpt>
      <trkpt lat="50.10735" lon="3.57177">
        <ele>123.67</ele>
        <time>2014-08-24T07:56:12Z</time>
      </trkpt>
      <trkpt lat="50.10815" lon="3.57263">
        <ele>119.82</ele>
        <time>2014-08-24T07:56:21Z</time>
      </trkpt>
      <trkpt lat="50.10876" lon="3.57337">
        <ele>116.46</ele>
        <time>2014-08-24T07:56:28Z</time>
      </trkpt>
      <trkpt lat="50.10908" lon="3.57387">
        <ele>114.53</ele>
        <time>2014-08-24T07:56:32Z</time>
      </trkpt>
      <trkpt lat="50.1094" lon="3.57441">
        <ele>111.17</ele>
        <time>2014-08-24T07:56:36Z</time>
      </trkpt>
      <trkpt lat="50.10968" lon="3.57501">
        <ele>108.77</ele>
        <time>2014-08-24T07:56:40Z</time>
      </trkpt>
      <trkpt lat="50.11" lon="3.5766">
        <ele>105.4</ele>
        <time>2014-08-24T07:56:50Z</time>
      </trkpt>
      <trkpt lat="50.10998" lon="3.57767">
        <ele>101.56</ele>
        <time>2014-08-24T07:56:57Z</time>
      </trkpt>
      <trkpt lat="50.10997" lon="3.57782">
        <ele>101.56</ele>
        <time>2014-08-24T07:56:58Z</time>
      </trkpt>
      <trkpt lat="50.10996" lon="3.57798">
        <ele>101.56</ele>
        <time>2014-08-24T07:56:59Z</time>
      </trkpt>
      <trkpt lat="50.10991" lon="3.57915">
        <ele>104.92</ele>
        <time>2014-08-24T07:57:07Z</time>
      </trkpt>
      <trkpt lat="50.1099" lon="3.5796">
        <ele>105.88</ele>
        <time>2014-08-24T07:57:11Z</time>
      </trkpt>
      <trkpt lat="50.10993" lon="3.57969">
        <ele>106.36</ele>
        <time>2014-08-24T07:57:12Z</time>
      </trkpt>
      <trkpt lat="50.10998" lon="3.57973">
        <ele>106.36</ele>
        <time>2014-08-24T07:57:13Z</time>
      </trkpt>
      <trkpt lat="50.11004" lon="3.57973">
        <ele>106.36</ele>
        <time>2014-08-24T07:57:14Z</time>
      </trkpt>
      <trkpt lat="50.1101" lon="3.57972">
        <ele>106.84</ele>
        <time>2014-08-24T07:57:15Z</time>
      </trkpt>
      <trkpt lat="50.11016" lon="3.57971">
        <ele>106.84</ele>
        <time>2014-08-24T07:57:16Z</time>
      </trkpt>
      <trkpt lat="50.11022" lon="3.5797">
        <ele>106.84</ele>
        <time>2014-08-24T07:57:17Z</time>
      </trkpt>
      <trkpt lat="50.11033" lon="3.5797">
        <ele>106.84</ele>
        <time>2014-08-24T07:57:19Z</time>
      </trkpt>
      <trkpt lat="50.11047" lon="3.57976">
        <ele>106.84</ele>
        <time>2014-08-24T07:57:23Z</time>
      </trkpt>
      <trkpt lat="50.11048" lon="3.57978">
        <ele>107.32</ele>
        <time>2014-08-24T07:57:32Z</time>
      </trkpt>
      <trkpt lat="50.11049" lon="3.57989">
        <ele>108.29</ele>
        <time>2014-08-24T07:57:45Z</time>
      </trkpt>
      <trkpt lat="50.11051" lon="3.57992">
        <ele>108.77</ele>
        <time>2014-08-24T07:57:55Z</time>
      </trkpt>
      <trkpt lat="50.11051" lon="3.57998">
        <ele>109.25</ele>
        <time>2014-08-24T07:57:59Z</time>
      </trkpt>
      <trkpt lat="50.11052" lon="3.58001">
        <ele>109.73</ele>
        <time>2014-08-24T07:58:00Z</time>
      </trkpt>
      <trkpt lat="50.11053" lon="3.58004">
        <ele>109.73</ele>
        <time>2014-08-24T07:58:01Z</time>
      </trkpt>
      <trkpt lat="50.11053" lon="3.58006">
        <ele>110.21</ele>
        <time>2014-08-24T07:58:02Z</time>
      </trkpt>
      <trkpt lat="50.11054" lon="3.58009">
        <ele>110.21</ele>
        <time>2014-08-24T07:58:03Z</time>
      </trkpt>
      <trkpt lat="50.11054" lon="3.58011">
        <ele>110.21</ele>
        <time>2014-08-24T07:58:04Z</time>
      </trkpt>
      <trkpt lat="50.11055" lon="3.58014">
        <ele>110.69</ele>
        <time>2014-08-24T07:58:05Z</time>
      </trkpt>
      <trkpt lat="50.11062" lon="3.58051">
        <ele>113.09</ele>
        <time>2014-08-24T07:58:17Z</time>
      </trkpt>
      <trkpt lat="50.11073" lon="3.58098">
        <ele>115.5</ele>
        <time>2014-08-24T07:58:30Z</time>
      </trkpt>
      <trkpt lat="50.11081" lon="3.58138">
        <ele>116.94</ele>
        <time>2014-08-24T07:58:41Z</time>
      </trkpt>
      <trkpt lat="50.11082" lon="3.58141">
        <ele>116.94</ele>
        <time>2014-08-24T07:58:42Z</time>
      </trkpt>
      <trkpt lat="50.11095" lon="3.58198">
        <ele>119.34</ele>
        <time>2014-08-24T07:58:59Z</time>
      </trkpt>
      <trkpt lat="50.111" lon="3.58241">
        <ele>121.26</ele>
        <time>2014-08-24T07:59:11Z</time>
      </trkpt>
      <trkpt lat="50.11101" lon="3.58292">
        <ele>122.22</ele>
        <time>2014-08-24T07:59:23Z</time>
      </trkpt>
      <trkpt lat="50.11101" lon="3.58354">
        <ele>125.11</ele>
        <time>2014-08-24T07:59:39Z</time>
      </trkpt>
      <trkpt lat="50.11101" lon="3.5843">
        <ele>127.99</ele>
        <time>2014-08-24T07:59:56Z</time>
      </trkpt>
      <trkpt lat="50.11104" lon="3.58479">
        <ele>129.92</ele>
        <time>2014-08-24T08:00:10Z</time>
      </trkpt>
      <trkpt lat="50.11106" lon="3.5848">
        <ele>129.92</ele>
        <time>2014-08-24T08:00:11Z</time>
      </trkpt>
      <trkpt lat="50.11107" lon="3.5848">
        <ele>129.92</ele>
        <time>2014-08-24T08:00:12Z</time>
      </trkpt>
      <trkpt lat="50.11109" lon="3.5848">
        <ele>129.92</ele>
        <time>2014-08-24T08:00:26Z</time>
      </trkpt>
      <trkpt lat="50.1111" lon="3.5848">
        <ele>129.92</ele>
        <time>2014-08-24T08:00:49Z</time>
      </trkpt>
      <trkpt lat="50.11109" lon="3.58479">
        <ele>129.92</ele>
        <time>2014-08-24T08:01:09Z</time>
      </trkpt>
      <trkpt lat="50.11109" lon="3.5848">
        <ele>130.88</ele>
        <time>2014-08-24T08:01:45Z</time>
      </trkpt>
      <trkpt lat="50.1111" lon="3.58477">
        <ele>130.88</ele>
        <time>2014-08-24T08:01:53Z</time>
      </trkpt>
      <trkpt lat="50.11135" lon="3.58453">
        <ele>128.95</ele>
        <time>2014-08-24T08:02:07Z</time>
      </trkpt>
      <trkpt lat="50.11146" lon="3.58451">
        <ele>128.95</ele>
        <time>2014-08-24T08:02:11Z</time>
      </trkpt>
      <trkpt lat="50.11148" lon="3.58454">
        <ele>128.95</ele>
        <time>2014-08-24T08:02:12Z</time>
      </trkpt>
      <trkpt lat="50.11149" lon="3.58458">
        <ele>128.95</ele>
        <time>2014-08-24T08:02:13Z</time>
      </trkpt>
      <trkpt lat="50.11169" lon="3.58531">
        <ele>130.88</ele>
        <time>2014-08-24T08:02:31Z</time>
      </trkpt>
      <trkpt lat="50.11187" lon="3.58588">
        <ele>133.28</ele>
        <time>2014-08-24T08:02:46Z</time>
      </trkpt>
      <trkpt lat="50.11201" lon="3.58658">
        <ele>134.24</ele>
        <time>2014-08-24T08:03:02Z</time>
      </trkpt>
      <trkpt lat="50.11213" lon="3.58736">
        <ele>135.2</ele>
        <time>2014-08-24T08:03:18Z</time>
      </trkpt>
      <trkpt lat="50.11226" lon="3.58815">
        <ele>135.68</ele>
        <time>2014-08-24T08:03:33Z</time>
      </trkpt>
      <trkpt lat="50.11227" lon="3.58821">
        <ele>135.68</ele>
        <time>2014-08-24T08:03:34Z</time>
      </trkpt>
      <trkpt lat="50.11229" lon="3.58827">
        <ele>135.68</ele>
        <time>2014-08-24T08:03:35Z</time>
      </trkpt>
      <trkpt lat="50.11251" lon="3.58896">
        <ele>135.68</ele>
        <time>2014-08-24T08:03:49Z</time>
      </trkpt>
      <trkpt lat="50.11285" lon="3.58978">
        <ele>135.68</ele>
        <time>2014-08-24T08:04:05Z</time>
      </trkpt>
      <trkpt lat="50.11319" lon="3.59074">
        <ele>136.16</ele>
        <time>2014-08-24T08:04:22Z</time>
      </trkpt>
      <trkpt lat="50.1134" lon="3.59132">
        <ele>136.16</ele>
        <time>2014-08-24T08:04:31Z</time>
      </trkpt>
      <trkpt lat="50.11342" lon="3.59139">
        <ele>136.16</ele>
        <time>2014-08-24T08:04:32Z</time>
      </trkpt>
      <trkpt lat="50.11352" lon="3.59195">
        <ele>136.16</ele>
        <time>2014-08-24T08:04:40Z</time>
      </trkpt>
      <trkpt lat="50.11372" lon="3.59284">
        <ele>137.61</ele>
        <time>2014-08-24T08:04:54Z</time>
      </trkpt>
      <trkpt lat="50.11401" lon="3.59386">
        <ele>140.01</ele>
        <time>2014-08-24T08:05:11Z</time>
      </trkpt>
      <trkpt lat="50.11429" lon="3.59473">
        <ele>141.45</ele>
        <time>2014-08-24T08:05:28Z</time>
      </trkpt>
      <trkpt lat="50.11457" lon="3.59544">
        <ele>141.45</ele>
        <time>2014-08-24T08:05:44Z</time>
      </trkpt>
      <trkpt lat="50.1146" lon="3.59544">
        <ele>141.45</ele>
        <time>2014-08-24T08:05:45Z</time>
      </trkpt>
      <trkpt lat="50.11462" lon="3.59544">
        <ele>141.45</ele>
        <time>2014-08-24T08:05:46Z</time>
      </trkpt>
      <trkpt lat="50.11514" lon="3.5954">
        <ele>141.93</ele>
        <time>2014-08-24T08:06:01Z</time>
      </trkpt>
      <trkpt lat="50.1158" lon="3.59543">
        <ele>144.34</ele>
        <time>2014-08-24T08:06:19Z</time>
      </trkpt>
      <trkpt lat="50.11633" lon="3.59543">
        <ele>147.7</ele>
        <time>2014-08-24T08:06:33Z</time>
      </trkpt>
      <trkpt lat="50.11693" lon="3.59524">
        <ele>146.74</ele>
        <time>2014-08-24T08:06:47Z</time>
      </trkpt>
      <trkpt lat="50.11742" lon="3.59503">
        <ele>144.34</ele>
        <time>2014-08-24T08:06:55Z</time>
      </trkpt>
      <trkpt lat="50.11748" lon="3.595">
        <ele>143.85</ele>
        <time>2014-08-24T08:06:56Z</time>
      </trkpt>
      <trkpt lat="50.11755" lon="3.59497">
        <ele>143.85</ele>
        <time>2014-08-24T08:06:57Z</time>
      </trkpt>
      <trkpt lat="50.1179" lon="3.59479">
        <ele>143.85</ele>
        <time>2014-08-24T08:07:03Z</time>
      </trkpt>
      <trkpt lat="50.11796" lon="3.59476">
        <ele>143.85</ele>
        <time>2014-08-24T08:07:04Z</time>
      </trkpt>
      <trkpt lat="50.11823" lon="3.59466">
        <ele>143.85</ele>
        <time>2014-08-24T08:07:09Z</time>
      </trkpt>
      <trkpt lat="50.11912" lon="3.59428">
        <ele>143.85</ele>
        <time>2014-08-24T08:07:27Z</time>
      </trkpt>
      <trkpt lat="50.11942" lon="3.59414">
        <ele>143.85</ele>
        <time>2014-08-24T08:07:33Z</time>
      </trkpt>
      <trkpt lat="50.11947" lon="3.59411">
        <ele>143.85</ele>
        <time>2014-08-24T08:07:34Z</time>
      </trkpt>
      <trkpt lat="50.11951" lon="3.59409">
        <ele>144.82</ele>
        <time>2014-08-24T08:07:35Z</time>
      </trkpt>
      <trkpt lat="50.11956" lon="3.59406">
        <ele>144.82</ele>
        <time>2014-08-24T08:07:36Z</time>
      </trkpt>
      <trkpt lat="50.1196" lon="3.59405">
        <ele>144.82</ele>
        <time>2014-08-24T08:07:37Z</time>
      </trkpt>
      <trkpt lat="50.11963" lon="3.59407">
        <ele>144.82</ele>
        <time>2014-08-24T08:07:38Z</time>
      </trkpt>
      <trkpt lat="50.11966" lon="3.59409">
        <ele>145.78</ele>
        <time>2014-08-24T08:07:39Z</time>
      </trkpt>
      <trkpt lat="50.11968" lon="3.59412">
        <ele>145.78</ele>
        <time>2014-08-24T08:07:40Z</time>
      </trkpt>
      <trkpt lat="50.12004" lon="3.59441">
        <ele>147.7</ele>
        <time>2014-08-24T08:07:53Z</time>
      </trkpt>
      <trkpt lat="50.12032" lon="3.59458">
        <ele>149.14</ele>
        <time>2014-08-24T08:08:03Z</time>
      </trkpt>
      <trkpt lat="50.12063" lon="3.59495">
        <ele>150.58</ele>
        <time>2014-08-24T08:08:15Z</time>
      </trkpt>
      <trkpt lat="50.12095" lon="3.59547">
        <ele>151.54</ele>
        <time>2014-08-24T08:08:29Z</time>
      </trkpt>
      <trkpt lat="50.12116" lon="3.59587">
        <ele>152.03</ele>
        <time>2014-08-24T08:08:39Z</time>
      </trkpt>
      <trkpt lat="50.12127" lon="3.59609">
        <ele>152.51</ele>
        <time>2014-08-24T08:08:47Z</time>
      </trkpt>
      <trkpt lat="50.12139" lon="3.59636">
        <ele>152.99</ele>
        <time>2014-08-24T08:08:59Z</time>
      </trkpt>
      <trkpt lat="50.12153" lon="3.59667">
        <ele>152.99</ele>
        <time>2014-08-24T08:09:12Z</time>
      </trkpt>
      <trkpt lat="50.12157" lon="3.59677">
        <ele>152.99</ele>
        <time>2014-08-24T08:09:16Z</time>
      </trkpt>
      <trkpt lat="50.12185" lon="3.59731">
        <ele>152.99</ele>
        <time>2014-08-24T08:09:31Z</time>
      </trkpt>
      <trkpt lat="50.12204" lon="3.59772">
        <ele>153.47</ele>
        <time>2014-08-24T08:09:44Z</time>
      </trkpt>
      <trkpt lat="50.1223" lon="3.59825">
        <ele>153.47</ele>
        <time>2014-08-24T08:09:58Z</time>
      </trkpt>
      <trkpt lat="50.12254" lon="3.59873">
        <ele>153.47</ele>
        <time>2014-08-24T08:10:09Z</time>
      </trkpt>
      <trkpt lat="50.12274" lon="3.59915">
        <ele>153.47</ele>
        <time>2014-08-24T08:10:19Z</time>
      </trkpt>
      <trkpt lat="50.12294" lon="3.59957">
        <ele>152.51</ele>
        <time>2014-08-24T08:10:30Z</time>
      </trkpt>
      <trkpt lat="50.12323" lon="3.60013">
        <ele>150.58</ele>
        <time>2014-08-24T08:10:42Z</time>
      </trkpt>
      <trkpt lat="50.12326" lon="3.60018">
        <ele>150.58</ele>
        <time>2014-08-24T08:10:43Z</time>
      </trkpt>
      <trkpt lat="50.12355" lon="3.60073">
        <ele>149.14</ele>
        <time>2014-08-24T08:10:53Z</time>
      </trkpt>
      <trkpt lat="50.12375" lon="3.60113">
        <ele>150.58</ele>
        <time>2014-08-24T08:11:01Z</time>
      </trkpt>
      <trkpt lat="50.12391" lon="3.60143">
        <ele>152.51</ele>
        <time>2014-08-24T08:11:10Z</time>
      </trkpt>
      <trkpt lat="50.12393" lon="3.60146">
        <ele>152.51</ele>
        <time>2014-08-24T08:11:11Z</time>
      </trkpt>
      <trkpt lat="50.12396" lon="3.60146">
        <ele>152.51</ele>
        <time>2014-08-24T08:11:12Z</time>
      </trkpt>
      <trkpt lat="50.12398" lon="3.60146">
        <ele>152.51</ele>
        <time>2014-08-24T08:11:13Z</time>
      </trkpt>
      <trkpt lat="50.12401" lon="3.60144">
        <ele>152.51</ele>
        <time>2014-08-24T08:11:14Z</time>
      </trkpt>
      <trkpt lat="50.12415" lon="3.60135">
        <ele>152.51</ele>
        <time>2014-08-24T08:11:21Z</time>
      </trkpt>
      <trkpt lat="50.12417" lon="3.60134">
        <ele>152.51</ele>
        <time>2014-08-24T08:11:22Z</time>
      </trkpt>
      <trkpt lat="50.12419" lon="3.60133">
        <ele>152.99</ele>
        <time>2014-08-24T08:11:23Z</time>
      </trkpt>
      <trkpt lat="50.12421" lon="3.60131">
        <ele>152.99</ele>
        <time>2014-08-24T08:11:24Z</time>
      </trkpt>
      <trkpt lat="50.12423" lon="3.60128">
        <ele>152.99</ele>
        <time>2014-08-24T08:11:25Z</time>
      </trkpt>
      <trkpt lat="50.12424" lon="3.60124">
        <ele>152.99</ele>
        <time>2014-08-24T08:11:26Z</time>
      </trkpt>
      <trkpt lat="50.12426" lon="3.60121">
        <ele>152.99</ele>
        <time>2014-08-24T08:11:27Z</time>
      </trkpt>
      <trkpt lat="50.12428" lon="3.60118">
        <ele>152.99</ele>
        <time>2014-08-24T08:11:28Z</time>
      </trkpt>
      <trkpt lat="50.12431" lon="3.60116">
        <ele>152.99</ele>
        <time>2014-08-24T08:11:29Z</time>
      </trkpt>
      <trkpt lat="50.12433" lon="3.60115">
        <ele>152.99</ele>
        <time>2014-08-24T08:11:30Z</time>
      </trkpt>
      <trkpt lat="50.12436" lon="3.60114">
        <ele>152.99</ele>
        <time>2014-08-24T08:11:31Z</time>
      </trkpt>
      <trkpt lat="50.12438" lon="3.60112">
        <ele>152.99</ele>
        <time>2014-08-24T08:11:32Z</time>
      </trkpt>
      <trkpt lat="50.1244" lon="3.6011">
        <ele>152.99</ele>
        <time>2014-08-24T08:11:33Z</time>
      </trkpt>
      <trkpt lat="50.12442" lon="3.60109">
        <ele>152.99</ele>
        <time>2014-08-24T08:11:34Z</time>
      </trkpt>
      <trkpt lat="50.12444" lon="3.60107">
        <ele>152.99</ele>
        <time>2014-08-24T08:11:35Z</time>
      </trkpt>
      <trkpt lat="50.12446" lon="3.60107">
        <ele>152.99</ele>
        <time>2014-08-24T08:11:36Z</time>
      </trkpt>
      <trkpt lat="50.12448" lon="3.60105">
        <ele>152.99</ele>
        <time>2014-08-24T08:11:37Z</time>
      </trkpt>
      <trkpt lat="50.1245" lon="3.60103">
        <ele>152.99</ele>
        <time>2014-08-24T08:11:38Z</time>
      </trkpt>
      <trkpt lat="50.12452" lon="3.60101">
        <ele>152.99</ele>
        <time>2014-08-24T08:11:39Z</time>
      </trkpt>
      <trkpt lat="50.12454" lon="3.60098">
        <ele>152.99</ele>
        <time>2014-08-24T08:11:40Z</time>
      </trkpt>
      <trkpt lat="50.12456" lon="3.60096">
        <ele>152.99</ele>
        <time>2014-08-24T08:11:41Z</time>
      </trkpt>
      <trkpt lat="50.12458" lon="3.60093">
        <ele>152.99</ele>
        <time>2014-08-24T08:11:42Z</time>
      </trkpt>
      <trkpt lat="50.12461" lon="3.6009">
        <ele>152.99</ele>
        <time>2014-08-24T08:11:43Z</time>
      </trkpt>
      <trkpt lat="50.12464" lon="3.60086">
        <ele>152.99</ele>
        <time>2014-08-24T08:11:44Z</time>
      </trkpt>
      <trkpt lat="50.12467" lon="3.60083">
        <ele>153.47</ele>
        <time>2014-08-24T08:11:45Z</time>
      </trkpt>
      <trkpt lat="50.1247" lon="3.6008">
        <ele>153.47</ele>
        <time>2014-08-24T08:11:46Z</time>
      </trkpt>
      <trkpt lat="50.12473" lon="3.60077">
        <ele>152.03</ele>
        <time>2014-08-24T08:11:47Z</time>
      </trkpt>
      <trkpt lat="50.12476" lon="3.60075">
        <ele>152.03</ele>
        <time>2014-08-24T08:11:48Z</time>
      </trkpt>
      <trkpt lat="50.12479" lon="3.60072">
        <ele>152.03</ele>
        <time>2014-08-24T08:11:49Z</time>
      </trkpt>
      <trkpt lat="50.12497" lon="3.60057">
        <ele>152.03</ele>
        <time>2014-08-24T08:11:54Z</time>
      </trkpt>
      <trkpt lat="50.125" lon="3.60057">
        <ele>152.03</ele>
        <time>2014-08-24T08:11:55Z</time>
      </trkpt>
      <trkpt lat="50.12505" lon="3.60061">
        <ele>152.03</ele>
        <time>2014-08-24T08:11:57Z</time>
      </trkpt>
      <trkpt lat="50.12527" lon="3.60078">
        <ele>152.99</ele>
        <time>2014-08-24T08:12:05Z</time>
      </trkpt>
      <trkpt lat="50.12557" lon="3.60092">
        <ele>153.47</ele>
        <time>2014-08-24T08:12:15Z</time>
      </trkpt>
      <trkpt lat="50.12565" lon="3.60092">
        <ele>153.95</ele>
        <time>2014-08-24T08:12:18Z</time>
      </trkpt>
      <trkpt lat="50.12569" lon="3.60092">
        <ele>153.95</ele>
        <time>2014-08-24T08:12:21Z</time>
      </trkpt>
      <trkpt lat="50.1257" lon="3.60091">
        <ele>153.95</ele>
        <time>2014-08-24T08:12:22Z</time>
      </trkpt>
      <trkpt lat="50.12572" lon="3.6009">
        <ele>153.95</ele>
        <time>2014-08-24T08:12:23Z</time>
      </trkpt>
      <trkpt lat="50.12573" lon="3.6009">
        <ele>153.95</ele>
        <time>2014-08-24T08:12:24Z</time>
      </trkpt>
      <trkpt lat="50.12575" lon="3.60089">
        <ele>153.95</ele>
        <time>2014-08-24T08:12:25Z</time>
      </trkpt>
      <trkpt lat="50.12577" lon="3.60087">
        <ele>153.95</ele>
        <time>2014-08-24T08:12:26Z</time>
      </trkpt>
      <trkpt lat="50.12578" lon="3.60086">
        <ele>153.95</ele>
        <time>2014-08-24T08:12:27Z</time>
      </trkpt>
      <trkpt lat="50.12582" lon="3.60084">
        <ele>153.95</ele>
        <time>2014-08-24T08:12:29Z</time>
      </trkpt>
      <trkpt lat="50.12584" lon="3.60083">
        <ele>153.95</ele>
        <time>2014-08-24T08:12:30Z</time>
      </trkpt>
      <trkpt lat="50.12586" lon="3.60082">
        <ele>153.95</ele>
        <time>2014-08-24T08:12:31Z</time>
      </trkpt>
      <trkpt lat="50.12589" lon="3.6008">
        <ele>153.95</ele>
        <time>2014-08-24T08:12:32Z</time>
      </trkpt>
      <trkpt lat="50.12595" lon="3.60072">
        <ele>153.95</ele>
        <time>2014-08-24T08:12:36Z</time>
      </trkpt>
      <trkpt lat="50.12606" lon="3.60064">
        <ele>154.43</ele>
        <time>2014-08-24T08:12:40Z</time>
      </trkpt>
      <trkpt lat="50.12632" lon="3.60084">
        <ele>154.43</ele>
        <time>2014-08-24T08:12:51Z</time>
      </trkpt>
      <trkpt lat="50.12641" lon="3.60119">
        <ele>154.91</ele>
        <time>2014-08-24T08:13:00Z</time>
      </trkpt>
      <trkpt lat="50.12635" lon="3.60137">
        <ele>155.39</ele>
        <time>2014-08-24T08:13:09Z</time>
      </trkpt>
      <trkpt lat="50.12625" lon="3.60168">
        <ele>155.39</ele>
        <time>2014-08-24T08:13:20Z</time>
      </trkpt>
      <trkpt lat="50.12618" lon="3.60196">
        <ele>155.87</ele>
        <time>2014-08-24T08:13:30Z</time>
      </trkpt>
      <trkpt lat="50.12618" lon="3.60199">
        <ele>155.87</ele>
        <time>2014-08-24T08:13:31Z</time>
      </trkpt>
      <trkpt lat="50.12613" lon="3.60241">
        <ele>156.83</ele>
        <time>2014-08-24T08:13:45Z</time>
      </trkpt>
      <trkpt lat="50.12613" lon="3.60243">
        <ele>156.83</ele>
        <time>2014-08-24T08:13:46Z</time>
      </trkpt>
      <trkpt lat="50.12611" lon="3.60251">
        <ele>156.83</ele>
        <time>2014-08-24T08:14:01Z</time>
      </trkpt>
      <trkpt lat="50.12607" lon="3.60285">
        <ele>157.31</ele>
        <time>2014-08-24T08:14:16Z</time>
      </trkpt>
      <trkpt lat="50.12602" lon="3.60319">
        <ele>157.79</ele>
        <time>2014-08-24T08:14:26Z</time>
      </trkpt>
      <trkpt lat="50.12602" lon="3.60323">
        <ele>157.79</ele>
        <time>2014-08-24T08:14:27Z</time>
      </trkpt>
      <trkpt lat="50.12602" lon="3.60327">
        <ele>157.79</ele>
        <time>2014-08-24T08:14:28Z</time>
      </trkpt>
      <trkpt lat="50.12598" lon="3.60354">
        <ele>157.79</ele>
        <time>2014-08-24T08:14:35Z</time>
      </trkpt>
      <trkpt lat="50.12599" lon="3.60358">
        <ele>157.79</ele>
        <time>2014-08-24T08:14:36Z</time>
      </trkpt>
      <trkpt lat="50.12601" lon="3.60363">
        <ele>157.79</ele>
        <time>2014-08-24T08:14:37Z</time>
      </trkpt>
      <trkpt lat="50.12618" lon="3.604">
        <ele>157.79</ele>
        <time>2014-08-24T08:14:47Z</time>
      </trkpt>
      <trkpt lat="50.12642" lon="3.60436">
        <ele>157.79</ele>
        <time>2014-08-24T08:14:59Z</time>
      </trkpt>
      <trkpt lat="50.12647" lon="3.60446">
        <ele>157.79</ele>
        <time>2014-08-24T08:15:11Z</time>
      </trkpt>
      <trkpt lat="50.12651" lon="3.60452">
        <ele>157.79</ele>
        <time>2014-08-24T08:15:25Z</time>
      </trkpt>
      <trkpt lat="50.12652" lon="3.60454">
        <ele>157.79</ele>
        <time>2014-08-24T08:15:26Z</time>
      </trkpt>
      <trkpt lat="50.12677" lon="3.60492">
        <ele>157.79</ele>
        <time>2014-08-24T08:15:39Z</time>
      </trkpt>
      <trkpt lat="50.1269" lon="3.60521">
        <ele>156.83</ele>
        <time>2014-08-24T08:15:47Z</time>
      </trkpt>
      <trkpt lat="50.1269" lon="3.60525">
        <ele>156.83</ele>
        <time>2014-08-24T08:15:48Z</time>
      </trkpt>
      <trkpt lat="50.12694" lon="3.60554">
        <ele>155.87</ele>
        <time>2014-08-24T08:15:55Z</time>
      </trkpt>
      <trkpt lat="50.12718" lon="3.60578">
        <ele>155.39</ele>
        <time>2014-08-24T08:16:04Z</time>
      </trkpt>
      <trkpt lat="50.12721" lon="3.60583">
        <ele>154.91</ele>
        <time>2014-08-24T08:16:05Z</time>
      </trkpt>
      <trkpt lat="50.12723" lon="3.60587">
        <ele>154.91</ele>
        <time>2014-08-24T08:16:06Z</time>
      </trkpt>
      <trkpt lat="50.12726" lon="3.60589">
        <ele>154.91</ele>
        <time>2014-08-24T08:16:07Z</time>
      </trkpt>
      <trkpt lat="50.12729" lon="3.60592">
        <ele>154.91</ele>
        <time>2014-08-24T08:16:08Z</time>
      </trkpt>
      <trkpt lat="50.12732" lon="3.60595">
        <ele>154.91</ele>
        <time>2014-08-24T08:16:09Z</time>
      </trkpt>
      <trkpt lat="50.12736" lon="3.60599">
        <ele>153.95</ele>
        <time>2014-08-24T08:16:10Z</time>
      </trkpt>
      <trkpt lat="50.12739" lon="3.60604">
        <ele>153.95</ele>
        <time>2014-08-24T08:16:11Z</time>
      </trkpt>
      <trkpt lat="50.12757" lon="3.60641">
        <ele>152.03</ele>
        <time>2014-08-24T08:16:18Z</time>
      </trkpt>
      <trkpt lat="50.12758" lon="3.60648">
        <ele>152.03</ele>
        <time>2014-08-24T08:16:19Z</time>
      </trkpt>
      <trkpt lat="50.1276" lon="3.60656">
        <ele>151.54</ele>
        <time>2014-08-24T08:16:20Z</time>
      </trkpt>
      <trkpt lat="50.12761" lon="3.60662">
        <ele>151.54</ele>
        <time>2014-08-24T08:16:21Z</time>
      </trkpt>
      <trkpt lat="50.12764" lon="3.60668">
        <ele>150.58</ele>
        <time>2014-08-24T08:16:22Z</time>
      </trkpt>
      <trkpt lat="50.12767" lon="3.6067">
        <ele>150.58</ele>
        <time>2014-08-24T08:16:23Z</time>
      </trkpt>
      <trkpt lat="50.12771" lon="3.6067">
        <ele>151.06</ele>
        <time>2014-08-24T08:16:24Z</time>
      </trkpt>
      <trkpt lat="50.12775" lon="3.60669">
        <ele>151.06</ele>
        <time>2014-08-24T08:16:25Z</time>
      </trkpt>
      <trkpt lat="50.12778" lon="3.60669">
        <ele>151.06</ele>
        <time>2014-08-24T08:16:26Z</time>
      </trkpt>
      <trkpt lat="50.12825" lon="3.60662">
        <ele>150.1</ele>
        <time>2014-08-24T08:16:38Z</time>
      </trkpt>
      <trkpt lat="50.12838" lon="3.60664">
        <ele>149.62</ele>
        <time>2014-08-24T08:16:41Z</time>
      </trkpt>
      <trkpt lat="50.12841" lon="3.60667">
        <ele>149.62</ele>
        <time>2014-08-24T08:16:42Z</time>
      </trkpt>
      <trkpt lat="50.12845" lon="3.60671">
        <ele>149.62</ele>
        <time>2014-08-24T08:16:43Z</time>
      </trkpt>
      <trkpt lat="50.12848" lon="3.60675">
        <ele>149.62</ele>
        <time>2014-08-24T08:16:44Z</time>
      </trkpt>
      <trkpt lat="50.12851" lon="3.60682">
        <ele>149.62</ele>
        <time>2014-08-24T08:16:45Z</time>
      </trkpt>
      <trkpt lat="50.12854" lon="3.60686">
        <ele>149.62</ele>
        <time>2014-08-24T08:16:46Z</time>
      </trkpt>
      <trkpt lat="50.12887" lon="3.60738">
        <ele>149.14</ele>
        <time>2014-08-24T08:16:57Z</time>
      </trkpt>
      <trkpt lat="50.12887" lon="3.60743">
        <ele>149.14</ele>
        <time>2014-08-24T08:16:58Z</time>
      </trkpt>
      <trkpt lat="50.12888" lon="3.60749">
        <ele>149.14</ele>
        <time>2014-08-24T08:16:59Z</time>
      </trkpt>
      <trkpt lat="50.12889" lon="3.60754">
        <ele>149.14</ele>
        <time>2014-08-24T08:17:00Z</time>
      </trkpt>
      <trkpt lat="50.1289" lon="3.60759">
        <ele>149.14</ele>
        <time>2014-08-24T08:17:01Z</time>
      </trkpt>
      <trkpt lat="50.12892" lon="3.60764">
        <ele>149.14</ele>
        <time>2014-08-24T08:17:02Z</time>
      </trkpt>
      <trkpt lat="50.12894" lon="3.60767">
        <ele>149.14</ele>
        <time>2014-08-24T08:17:03Z</time>
      </trkpt>
      <trkpt lat="50.12897" lon="3.60769">
        <ele>149.14</ele>
        <time>2014-08-24T08:17:04Z</time>
      </trkpt>
      <trkpt lat="50.12918" lon="3.60807">
        <ele>149.14</ele>
        <time>2014-08-24T08:17:14Z</time>
      </trkpt>
      <trkpt lat="50.12928" lon="3.60829">
        <ele>150.58</ele>
        <time>2014-08-24T08:17:20Z</time>
      </trkpt>
      <trkpt lat="50.12949" lon="3.6088">
        <ele>152.51</ele>
        <time>2014-08-24T08:17:32Z</time>
      </trkpt>
      <trkpt lat="50.12965" lon="3.60925">
        <ele>153.47</ele>
        <time>2014-08-24T08:17:42Z</time>
      </trkpt>
      <trkpt lat="50.12981" lon="3.60968">
        <ele>154.91</ele>
        <time>2014-08-24T08:17:52Z</time>
      </trkpt>
      <trkpt lat="50.12996" lon="3.61014">
        <ele>155.39</ele>
        <time>2014-08-24T08:18:03Z</time>
      </trkpt>
      <trkpt lat="50.13013" lon="3.61064">
        <ele>155.87</ele>
        <time>2014-08-24T08:18:16Z</time>
      </trkpt>
      <trkpt lat="50.13038" lon="3.61135">
        <ele>155.87</ele>
        <time>2014-08-24T08:18:31Z</time>
      </trkpt>
      <trkpt lat="50.13046" lon="3.61159">
        <ele>155.87</ele>
        <time>2014-08-24T08:18:37Z</time>
      </trkpt>
      <trkpt lat="50.1305" lon="3.61159">
        <ele>153.95</ele>
        <time>2014-08-24T08:18:39Z</time>
      </trkpt>
      <trkpt lat="50.13053" lon="3.61159">
        <ele>153.95</ele>
        <time>2014-08-24T08:18:40Z</time>
      </trkpt>
      <trkpt lat="50.13056" lon="3.61162">
        <ele>153.95</ele>
        <time>2014-08-24T08:18:41Z</time>
      </trkpt>
      <trkpt lat="50.13058" lon="3.61165">
        <ele>153.95</ele>
        <time>2014-08-24T08:18:42Z</time>
      </trkpt>
      <trkpt lat="50.1306" lon="3.61169">
        <ele>153.95</ele>
        <time>2014-08-24T08:18:43Z</time>
      </trkpt>
      <trkpt lat="50.13062" lon="3.61173">
        <ele>153.95</ele>
        <time>2014-08-24T08:18:44Z</time>
      </trkpt>
      <trkpt lat="50.13087" lon="3.61238">
        <ele>153.95</ele>
        <time>2014-08-24T08:18:58Z</time>
      </trkpt>
      <trkpt lat="50.131" lon="3.61315">
        <ele>152.51</ele>
        <time>2014-08-24T08:19:11Z</time>
      </trkpt>
      <trkpt lat="50.13114" lon="3.61421">
        <ele>153.95</ele>
        <time>2014-08-24T08:19:28Z</time>
      </trkpt>
      <trkpt lat="50.1313" lon="3.61545">
        <ele>155.39</ele>
        <time>2014-08-24T08:19:49Z</time>
      </trkpt>
      <trkpt lat="50.13141" lon="3.61641">
        <ele>155.39</ele>
        <time>2014-08-24T08:20:04Z</time>
      </trkpt>
      <trkpt lat="50.13148" lon="3.61687">
        <ele>155.39</ele>
        <time>2014-08-24T08:20:11Z</time>
      </trkpt>
      <trkpt lat="50.13174" lon="3.61822">
        <ele>153.95</ele>
        <time>2014-08-24T08:20:30Z</time>
      </trkpt>
      <trkpt lat="50.13187" lon="3.61944">
        <ele>153.95</ele>
        <time>2014-08-24T08:20:46Z</time>
      </trkpt>
      <trkpt lat="50.13194" lon="3.6211">
        <ele>154.91</ele>
        <time>2014-08-24T08:21:07Z</time>
      </trkpt>
      <trkpt lat="50.13194" lon="3.62231">
        <ele>156.83</ele>
        <time>2014-08-24T08:21:23Z</time>
      </trkpt>
      <trkpt lat="50.13192" lon="3.62361">
        <ele>156.83</ele>
        <time>2014-08-24T08:21:39Z</time>
      </trkpt>
      <trkpt lat="50.13224" lon="3.62509">
        <ele>156.83</ele>
        <time>2014-08-24T08:21:58Z</time>
      </trkpt>
      <trkpt lat="50.13244" lon="3.62614">
        <ele>157.79</ele>
        <time>2014-08-24T08:22:12Z</time>
      </trkpt>
      <trkpt lat="50.13245" lon="3.62731">
        <ele>159.72</ele>
        <time>2014-08-24T08:22:28Z</time>
      </trkpt>
      <trkpt lat="50.13234" lon="3.62803">
        <ele>161.16</ele>
        <time>2014-08-24T08:22:39Z</time>
      </trkpt>
      <trkpt lat="50.13233" lon="3.6281">
        <ele>161.16</ele>
        <time>2014-08-24T08:22:40Z</time>
      </trkpt>
      <trkpt lat="50.13232" lon="3.62817">
        <ele>161.16</ele>
        <time>2014-08-24T08:22:41Z</time>
      </trkpt>
      <trkpt lat="50.13217" lon="3.62934">
        <ele>163.08</ele>
        <time>2014-08-24T08:22:57Z</time>
      </trkpt>
      <trkpt lat="50.13216" lon="3.6296">
        <ele>163.08</ele>
        <time>2014-08-24T08:23:01Z</time>
      </trkpt>
      <trkpt lat="50.13215" lon="3.62985">
        <ele>163.08</ele>
        <time>2014-08-24T08:23:05Z</time>
      </trkpt>
      <trkpt lat="50.13215" lon="3.63038">
        <ele>163.08</ele>
        <time>2014-08-24T08:23:13Z</time>
      </trkpt>
      <trkpt lat="50.13216" lon="3.63045">
        <ele>163.08</ele>
        <time>2014-08-24T08:23:14Z</time>
      </trkpt>
      <trkpt lat="50.13216" lon="3.63052">
        <ele>163.08</ele>
        <time>2014-08-24T08:23:15Z</time>
      </trkpt>
      <trkpt lat="50.13218" lon="3.6318">
        <ele>163.56</ele>
        <time>2014-08-24T08:23:35Z</time>
      </trkpt>
      <trkpt lat="50.13225" lon="3.63285">
        <ele>163.56</ele>
        <time>2014-08-24T08:23:49Z</time>
      </trkpt>
      <trkpt lat="50.13235" lon="3.63344">
        <ele>163.56</ele>
        <time>2014-08-24T08:23:57Z</time>
      </trkpt>
      <trkpt lat="50.13264" lon="3.6349">
        <ele>161.64</ele>
        <time>2014-08-24T08:24:16Z</time>
      </trkpt>
      <trkpt lat="50.13284" lon="3.63647">
        <ele>161.64</ele>
        <time>2014-08-24T08:24:35Z</time>
      </trkpt>
      <trkpt lat="50.13293" lon="3.63711">
        <ele>161.64</ele>
        <time>2014-08-24T08:24:43Z</time>
      </trkpt>
      <trkpt lat="50.13296" lon="3.63743">
        <ele>163.08</ele>
        <time>2014-08-24T08:24:47Z</time>
      </trkpt>
      <trkpt lat="50.13311" lon="3.63875">
        <ele>163.56</ele>
        <time>2014-08-24T08:25:03Z</time>
      </trkpt>
      <trkpt lat="50.1332" lon="3.63964">
        <ele>164.04</ele>
        <time>2014-08-24T08:25:14Z</time>
      </trkpt>
      <trkpt lat="50.13327" lon="3.64022">
        <ele>164.52</ele>
        <time>2014-08-24T08:25:22Z</time>
      </trkpt>
      <trkpt lat="50.13333" lon="3.64089">
        <ele>164.52</ele>
        <time>2014-08-24T08:25:31Z</time>
      </trkpt>
      <trkpt lat="50.13334" lon="3.64096">
        <ele>164.52</ele>
        <time>2014-08-24T08:25:32Z</time>
      </trkpt>
      <trkpt lat="50.13337" lon="3.64136">
        <ele>164.52</ele>
        <time>2014-08-24T08:25:37Z</time>
      </trkpt>
      <trkpt lat="50.13354" lon="3.64262">
        <ele>164.52</ele>
        <time>2014-08-24T08:25:53Z</time>
      </trkpt>
      <trkpt lat="50.13376" lon="3.64379">
        <ele>162.6</ele>
        <time>2014-08-24T08:26:08Z</time>
      </trkpt>
      <trkpt lat="50.13387" lon="3.64494">
        <ele>162.6</ele>
        <time>2014-08-24T08:26:22Z</time>
      </trkpt>
      <trkpt lat="50.134" lon="3.64604">
        <ele>164.04</ele>
        <time>2014-08-24T08:26:36Z</time>
      </trkpt>
      <trkpt lat="50.1342" lon="3.64738">
        <ele>164.04</ele>
        <time>2014-08-24T08:26:53Z</time>
      </trkpt>
      <trkpt lat="50.13443" lon="3.64874">
        <ele>164.52</ele>
        <time>2014-08-24T08:27:12Z</time>
      </trkpt>
      <trkpt lat="50.13462" lon="3.64936">
        <ele>165.48</ele>
        <time>2014-08-24T08:27:22Z</time>
      </trkpt>
      <trkpt lat="50.13464" lon="3.64942">
        <ele>165.48</ele>
        <time>2014-08-24T08:27:23Z</time>
      </trkpt>
      <trkpt lat="50.13496" lon="3.65069">
        <ele>164.52</ele>
        <time>2014-08-24T08:27:41Z</time>
      </trkpt>
      <trkpt lat="50.13513" lon="3.65186">
        <ele>164.52</ele>
        <time>2014-08-24T08:27:56Z</time>
      </trkpt>
      <trkpt lat="50.13532" lon="3.65306">
        <ele>164.52</ele>
        <time>2014-08-24T08:28:12Z</time>
      </trkpt>
      <trkpt lat="50.13549" lon="3.65377">
        <ele>164.52</ele>
        <time>2014-08-24T08:28:21Z</time>
      </trkpt>
      <trkpt lat="50.1358" lon="3.65501">
        <ele>164.52</ele>
        <time>2014-08-24T08:28:37Z</time>
      </trkpt>
      <trkpt lat="50.13584" lon="3.65515">
        <ele>164.52</ele>
        <time>2014-08-24T08:28:39Z</time>
      </trkpt>
      <trkpt lat="50.13593" lon="3.6554">
        <ele>164.52</ele>
        <time>2014-08-24T08:28:43Z</time>
      </trkpt>
      <trkpt lat="50.13596" lon="3.65546">
        <ele>164.52</ele>
        <time>2014-08-24T08:28:44Z</time>
      </trkpt>
      <trkpt lat="50.1364" lon="3.65635">
        <ele>165.96</ele>
        <time>2014-08-24T08:29:00Z</time>
      </trkpt>
      <trkpt lat="50.13672" lon="3.65694">
        <ele>167.41</ele>
        <time>2014-08-24T08:29:12Z</time>
      </trkpt>
      <trkpt lat="50.13733" lon="3.6577">
        <ele>167.89</ele>
        <time>2014-08-24T08:29:30Z</time>
      </trkpt>
      <trkpt lat="50.13736" lon="3.65774">
        <ele>167.89</ele>
        <time>2014-08-24T08:29:31Z</time>
      </trkpt>
      <trkpt lat="50.13739" lon="3.65779">
        <ele>167.89</ele>
        <time>2014-08-24T08:29:32Z</time>
      </trkpt>
      <trkpt lat="50.13747" lon="3.6583">
        <ele>167.89</ele>
        <time>2014-08-24T08:29:42Z</time>
      </trkpt>
      <trkpt lat="50.13748" lon="3.65942">
        <ele>167.89</ele>
        <time>2014-08-24T08:30:00Z</time>
      </trkpt>
      <trkpt lat="50.13777" lon="3.65984">
        <ele>166.93</ele>
        <time>2014-08-24T08:30:09Z</time>
      </trkpt>
      <trkpt lat="50.13801" lon="3.66019">
        <ele>165.48</ele>
        <time>2014-08-24T08:30:15Z</time>
      </trkpt>
      <trkpt lat="50.1381" lon="3.66031">
        <ele>165.48</ele>
        <time>2014-08-24T08:30:17Z</time>
      </trkpt>
      <trkpt lat="50.13876" lon="3.66129">
        <ele>163.56</ele>
        <time>2014-08-24T08:30:31Z</time>
      </trkpt>
      <trkpt lat="50.13947" lon="3.66232">
        <ele>161.64</ele>
        <time>2014-08-24T08:30:47Z</time>
      </trkpt>
      <trkpt lat="50.14028" lon="3.66351">
        <ele>159.72</ele>
        <time>2014-08-24T08:31:02Z</time>
      </trkpt>
      <trkpt lat="50.14093" lon="3.66446">
        <ele>161.16</ele>
        <time>2014-08-24T08:31:13Z</time>
      </trkpt>
      <trkpt lat="50.14124" lon="3.66492">
        <ele>163.08</ele>
        <time>2014-08-24T08:31:18Z</time>
      </trkpt>
      <trkpt lat="50.14168" lon="3.66557">
        <ele>165.96</ele>
        <time>2014-08-24T08:31:26Z</time>
      </trkpt>
      <trkpt lat="50.14212" lon="3.6662">
        <ele>167.89</ele>
        <time>2014-08-24T08:31:37Z</time>
      </trkpt>
      <trkpt lat="50.14225" lon="3.66639">
        <ele>168.85</ele>
        <time>2014-08-24T08:31:41Z</time>
      </trkpt>
      <trkpt lat="50.14275" lon="3.66714">
        <ele>168.37</ele>
        <time>2014-08-24T08:31:59Z</time>
      </trkpt>
      <trkpt lat="50.14282" lon="3.6672">
        <ele>168.37</ele>
        <time>2014-08-24T08:32:03Z</time>
      </trkpt>
      <trkpt lat="50.14283" lon="3.6672">
        <ele>168.37</ele>
        <time>2014-08-24T08:32:04Z</time>
      </trkpt>
      <trkpt lat="50.14299" lon="3.66705">
        <ele>168.85</ele>
        <time>2014-08-24T08:32:10Z</time>
      </trkpt>
      <trkpt lat="50.14351" lon="3.66614">
        <ele>168.85</ele>
        <time>2014-08-24T08:32:27Z</time>
      </trkpt>
      <trkpt lat="50.1441" lon="3.66514">
        <ele>168.85</ele>
        <time>2014-08-24T08:32:45Z</time>
      </trkpt>
      <trkpt lat="50.14428" lon="3.66488">
        <ele>169.33</ele>
        <time>2014-08-24T08:32:50Z</time>
      </trkpt>
      <trkpt lat="50.14433" lon="3.66486">
        <ele>169.33</ele>
        <time>2014-08-24T08:32:51Z</time>
      </trkpt>
      <trkpt lat="50.14439" lon="3.66487">
        <ele>169.33</ele>
        <time>2014-08-24T08:32:52Z</time>
      </trkpt>
      <trkpt lat="50.14498" lon="3.66498">
        <ele>167.89</ele>
        <time>2014-08-24T08:33:03Z</time>
      </trkpt>
      <trkpt lat="50.14502" lon="3.66499">
        <ele>167.89</ele>
        <time>2014-08-24T08:33:04Z</time>
      </trkpt>
      <trkpt lat="50.14586" lon="3.66515">
        <ele>166.93</ele>
        <time>2014-08-24T08:33:20Z</time>
      </trkpt>
      <trkpt lat="50.1467" lon="3.66533">
        <ele>165</ele>
        <time>2014-08-24T08:33:36Z</time>
      </trkpt>
      <trkpt lat="50.14692" lon="3.66537">
        <ele>164.04</ele>
        <time>2014-08-24T08:33:40Z</time>
      </trkpt>
      <trkpt lat="50.14698" lon="3.66539">
        <ele>164.04</ele>
        <time>2014-08-24T08:33:41Z</time>
      </trkpt>
      <trkpt lat="50.14772" lon="3.66553">
        <ele>160.68</ele>
        <time>2014-08-24T08:33:53Z</time>
      </trkpt>
      <trkpt lat="50.14815" lon="3.6656">
        <ele>158.75</ele>
        <time>2014-08-24T08:33:59Z</time>
      </trkpt>
      <trkpt lat="50.14923" lon="3.6658">
        <ele>156.83</ele>
        <time>2014-08-24T08:34:15Z</time>
      </trkpt>
      <trkpt lat="50.14973" lon="3.66591">
        <ele>156.35</ele>
        <time>2014-08-24T08:34:24Z</time>
      </trkpt>
      <trkpt lat="50.14983" lon="3.66598">
        <ele>156.35</ele>
        <time>2014-08-24T08:34:26Z</time>
      </trkpt>
      <trkpt lat="50.14987" lon="3.66603">
        <ele>156.35</ele>
        <time>2014-08-24T08:34:27Z</time>
      </trkpt>
      <trkpt lat="50.14991" lon="3.66608">
        <ele>156.35</ele>
        <time>2014-08-24T08:34:28Z</time>
      </trkpt>
      <trkpt lat="50.14994" lon="3.66614">
        <ele>156.35</ele>
        <time>2014-08-24T08:34:29Z</time>
      </trkpt>
      <trkpt lat="50.14996" lon="3.6662">
        <ele>157.31</ele>
        <time>2014-08-24T08:34:30Z</time>
      </trkpt>
      <trkpt lat="50.14999" lon="3.66626">
        <ele>157.79</ele>
        <time>2014-08-24T08:34:31Z</time>
      </trkpt>
      <trkpt lat="50.15001" lon="3.66632">
        <ele>157.79</ele>
        <time>2014-08-24T08:34:32Z</time>
      </trkpt>
      <trkpt lat="50.15003" lon="3.66638">
        <ele>157.79</ele>
        <time>2014-08-24T08:34:33Z</time>
      </trkpt>
      <trkpt lat="50.15032" lon="3.66712">
        <ele>160.2</ele>
        <time>2014-08-24T08:34:46Z</time>
      </trkpt>
      <trkpt lat="50.15036" lon="3.66729">
        <ele>160.68</ele>
        <time>2014-08-24T08:34:55Z</time>
      </trkpt>
      <trkpt lat="50.15035" lon="3.66727">
        <ele>160.68</ele>
        <time>2014-08-24T08:34:56Z</time>
      </trkpt>
      <trkpt lat="50.15035" lon="3.66724">
        <ele>160.68</ele>
        <time>2014-08-24T08:34:57Z</time>
      </trkpt>
      <trkpt lat="50.15036" lon="3.66721">
        <ele>160.68</ele>
        <time>2014-08-24T08:34:58Z</time>
      </trkpt>
      <trkpt lat="50.15038" lon="3.66719">
        <ele>160.68</ele>
        <time>2014-08-24T08:34:59Z</time>
      </trkpt>
      <trkpt lat="50.15041" lon="3.66716">
        <ele>160.68</ele>
        <time>2014-08-24T08:35:00Z</time>
      </trkpt>
      <trkpt lat="50.15044" lon="3.66714">
        <ele>160.68</ele>
        <time>2014-08-24T08:35:01Z</time>
      </trkpt>
      <trkpt lat="50.15048" lon="3.66712">
        <ele>160.68</ele>
        <time>2014-08-24T08:35:02Z</time>
      </trkpt>
      <trkpt lat="50.15051" lon="3.66709">
        <ele>159.72</ele>
        <time>2014-08-24T08:35:03Z</time>
      </trkpt>
      <trkpt lat="50.15059" lon="3.66703">
        <ele>159.72</ele>
        <time>2014-08-24T08:35:05Z</time>
      </trkpt>
      <trkpt lat="50.15116" lon="3.66664">
        <ele>159.24</ele>
        <time>2014-08-24T08:35:17Z</time>
      </trkpt>
      <trkpt lat="50.15182" lon="3.66615">
        <ele>155.87</ele>
        <time>2014-08-24T08:35:31Z</time>
      </trkpt>
      <trkpt lat="50.15243" lon="3.66568">
        <ele>153.95</ele>
        <time>2014-08-24T08:35:43Z</time>
      </trkpt>
      <trkpt lat="50.15309" lon="3.6652">
        <ele>155.39</ele>
        <time>2014-08-24T08:35:57Z</time>
      </trkpt>
      <trkpt lat="50.15313" lon="3.66516">
        <ele>155.39</ele>
        <time>2014-08-24T08:35:58Z</time>
      </trkpt>
      <trkpt lat="50.15365" lon="3.66476">
        <ele>158.27</ele>
        <time>2014-08-24T08:36:11Z</time>
      </trkpt>
      <trkpt lat="50.154" lon="3.66452">
        <ele>159.72</ele>
        <time>2014-08-24T08:36:20Z</time>
      </trkpt>
      <trkpt lat="50.15404" lon="3.66449">
        <ele>160.2</ele>
        <time>2014-08-24T08:36:21Z</time>
      </trkpt>
      <trkpt lat="50.15408" lon="3.66447">
        <ele>160.2</ele>
        <time>2014-08-24T08:36:22Z</time>
      </trkpt>
      <trkpt lat="50.15426" lon="3.66433">
        <ele>160.68</ele>
        <time>2014-08-24T08:36:27Z</time>
      </trkpt>
      <trkpt lat="50.15483" lon="3.66397">
        <ele>161.64</ele>
        <time>2014-08-24T08:36:42Z</time>
      </trkpt>
      <trkpt lat="50.15513" lon="3.66411">
        <ele>161.64</ele>
        <time>2014-08-24T08:36:51Z</time>
      </trkpt>
      <trkpt lat="50.15525" lon="3.66423">
        <ele>159.72</ele>
        <time>2014-08-24T08:36:54Z</time>
      </trkpt>
      <trkpt lat="50.15588" lon="3.66494">
        <ele>156.83</ele>
        <time>2014-08-24T08:37:07Z</time>
      </trkpt>
      <trkpt lat="50.15648" lon="3.66557">
        <ele>155.87</ele>
        <time>2014-08-24T08:37:21Z</time>
      </trkpt>
      <trkpt lat="50.15673" lon="3.66589">
        <ele>154.91</ele>
        <time>2014-08-24T08:37:32Z</time>
      </trkpt>
      <trkpt lat="50.15674" lon="3.66589">
        <ele>154.91</ele>
        <time>2014-08-24T08:37:33Z</time>
      </trkpt>
      <trkpt lat="50.15678" lon="3.66594">
        <ele>154.91</ele>
        <time>2014-08-24T08:37:37Z</time>
      </trkpt>
      <trkpt lat="50.1567" lon="3.66586">
        <ele>154.43</ele>
        <time>2014-08-24T08:37:50Z</time>
      </trkpt>
      <trkpt lat="50.1567" lon="3.66587">
        <ele>154.43</ele>
        <time>2014-08-24T08:38:16Z</time>
      </trkpt>
      <trkpt lat="50.15671" lon="3.66583">
        <ele>154.43</ele>
        <time>2014-08-24T08:38:46Z</time>
      </trkpt>
      <trkpt lat="50.15671" lon="3.66587">
        <ele>154.43</ele>
        <time>2014-08-24T08:39:22Z</time>
      </trkpt>
      <trkpt lat="50.15671" lon="3.66587">
        <ele>154.43</ele>
        <time>2014-08-24T08:39:52Z</time>
      </trkpt>
      <trkpt lat="50.15671" lon="3.66587">
        <ele>154.43</ele>
        <time>2014-08-24T08:40:22Z</time>
      </trkpt>
      <trkpt lat="50.15671" lon="3.66586">
        <ele>154.43</ele>
        <time>2014-08-24T08:40:25Z</time>
      </trkpt>
      <trkpt lat="50.1567" lon="3.66584">
        <ele>154.43</ele>
        <time>2014-08-24T08:40:27Z</time>
      </trkpt>
      <trkpt lat="50.15656" lon="3.66566">
        <ele>154.43</ele>
        <time>2014-08-24T08:40:34Z</time>
      </trkpt>
      <trkpt lat="50.15654" lon="3.66566">
        <ele>154.43</ele>
        <time>2014-08-24T08:40:35Z</time>
      </trkpt>
      <trkpt lat="50.15652" lon="3.66568">
        <ele>155.87</ele>
        <time>2014-08-24T08:40:36Z</time>
      </trkpt>
      <trkpt lat="50.1565" lon="3.6657">
        <ele>155.87</ele>
        <time>2014-08-24T08:40:37Z</time>
      </trkpt>
      <trkpt lat="50.15649" lon="3.66573">
        <ele>155.87</ele>
        <time>2014-08-24T08:40:38Z</time>
      </trkpt>
      <trkpt lat="50.15648" lon="3.66577">
        <ele>156.35</ele>
        <time>2014-08-24T08:40:39Z</time>
      </trkpt>
      <trkpt lat="50.15647" lon="3.66582">
        <ele>156.35</ele>
        <time>2014-08-24T08:40:40Z</time>
      </trkpt>
      <trkpt lat="50.15646" lon="3.66586">
        <ele>156.35</ele>
        <time>2014-08-24T08:40:41Z</time>
      </trkpt>
      <trkpt lat="50.15646" lon="3.66591">
        <ele>156.35</ele>
        <time>2014-08-24T08:40:42Z</time>
      </trkpt>
      <trkpt lat="50.15646" lon="3.66595">
        <ele>156.35</ele>
        <time>2014-08-24T08:40:43Z</time>
      </trkpt>
      <trkpt lat="50.15646" lon="3.66599">
        <ele>156.83</ele>
        <time>2014-08-24T08:40:44Z</time>
      </trkpt>
      <trkpt lat="50.15646" lon="3.66603">
        <ele>156.83</ele>
        <time>2014-08-24T08:40:45Z</time>
      </trkpt>
      <trkpt lat="50.15643" lon="3.66637">
        <ele>157.31</ele>
        <time>2014-08-24T08:40:57Z</time>
      </trkpt>
      <trkpt lat="50.15644" lon="3.66687">
        <ele>157.31</ele>
        <time>2014-08-24T08:41:10Z</time>
      </trkpt>
      <trkpt lat="50.15645" lon="3.667">
        <ele>157.31</ele>
        <time>2014-08-24T08:41:12Z</time>
      </trkpt>
      <trkpt lat="50.15645" lon="3.66708">
        <ele>157.31</ele>
        <time>2014-08-24T08:41:13Z</time>
      </trkpt>
      <trkpt lat="50.15645" lon="3.66714">
        <ele>157.31</ele>
        <time>2014-08-24T08:41:14Z</time>
      </trkpt>
      <trkpt lat="50.15645" lon="3.66775">
        <ele>157.79</ele>
        <time>2014-08-24T08:41:24Z</time>
      </trkpt>
      <trkpt lat="50.15645" lon="3.66835">
        <ele>158.75</ele>
        <time>2014-08-24T08:41:33Z</time>
      </trkpt>
      <trkpt lat="50.15646" lon="3.66878">
        <ele>158.75</ele>
        <time>2014-08-24T08:41:39Z</time>
      </trkpt>
      <trkpt lat="50.1566" lon="3.66911">
        <ele>157.31</ele>
        <time>2014-08-24T08:41:44Z</time>
      </trkpt>
      <trkpt lat="50.15666" lon="3.66924">
        <ele>156.83</ele>
        <time>2014-08-24T08:41:46Z</time>
      </trkpt>
      <trkpt lat="50.15668" lon="3.66932">
        <ele>156.35</ele>
        <time>2014-08-24T08:41:47Z</time>
      </trkpt>
      <trkpt lat="50.1567" lon="3.6694">
        <ele>155.87</ele>
        <time>2014-08-24T08:41:48Z</time>
      </trkpt>
      <trkpt lat="50.15671" lon="3.66948">
        <ele>155.87</ele>
        <time>2014-08-24T08:41:49Z</time>
      </trkpt>
      <trkpt lat="50.15671" lon="3.66955">
        <ele>155.87</ele>
        <time>2014-08-24T08:41:50Z</time>
      </trkpt>
      <trkpt lat="50.15671" lon="3.6696">
        <ele>155.87</ele>
        <time>2014-08-24T08:41:51Z</time>
      </trkpt>
      <trkpt lat="50.1567" lon="3.66966">
        <ele>155.87</ele>
        <time>2014-08-24T08:41:52Z</time>
      </trkpt>
      <trkpt lat="50.1567" lon="3.66971">
        <ele>155.87</ele>
        <time>2014-08-24T08:41:53Z</time>
      </trkpt>
      <trkpt lat="50.15672" lon="3.66976">
        <ele>155.87</ele>
        <time>2014-08-24T08:41:54Z</time>
      </trkpt>
      <trkpt lat="50.15673" lon="3.66981">
        <ele>155.87</ele>
        <time>2014-08-24T08:41:55Z</time>
      </trkpt>
      <trkpt lat="50.15675" lon="3.66984">
        <ele>155.87</ele>
        <time>2014-08-24T08:41:56Z</time>
      </trkpt>
      <trkpt lat="50.15677" lon="3.6699">
        <ele>157.31</ele>
        <time>2014-08-24T08:41:58Z</time>
      </trkpt>
      <trkpt lat="50.15689" lon="3.67019">
        <ele>157.31</ele>
        <time>2014-08-24T08:42:05Z</time>
      </trkpt>
      <trkpt lat="50.157" lon="3.67044">
        <ele>155.87</ele>
        <time>2014-08-24T08:42:09Z</time>
      </trkpt>
      <trkpt lat="50.15704" lon="3.6705">
        <ele>155.87</ele>
        <time>2014-08-24T08:42:10Z</time>
      </trkpt>
      <trkpt lat="50.15708" lon="3.67055">
        <ele>155.87</ele>
        <time>2014-08-24T08:42:11Z</time>
      </trkpt>
      <trkpt lat="50.15711" lon="3.67059">
        <ele>155.87</ele>
        <time>2014-08-24T08:42:12Z</time>
      </trkpt>
      <trkpt lat="50.15714" lon="3.67066">
        <ele>155.87</ele>
        <time>2014-08-24T08:42:21Z</time>
      </trkpt>
      <trkpt lat="50.15723" lon="3.67075">
        <ele>154.91</ele>
        <time>2014-08-24T08:42:45Z</time>
      </trkpt>
      <trkpt lat="50.15726" lon="3.67082">
        <ele>153.95</ele>
        <time>2014-08-24T08:42:46Z</time>
      </trkpt>
      <trkpt lat="50.15727" lon="3.67087">
        <ele>153.95</ele>
        <time>2014-08-24T08:42:47Z</time>
      </trkpt>
      <trkpt lat="50.15735" lon="3.67106">
        <ele>153.95</ele>
        <time>2014-08-24T08:42:52Z</time>
      </trkpt>
      <trkpt lat="50.15737" lon="3.67105">
        <ele>155.39</ele>
        <time>2014-08-24T08:42:53Z</time>
      </trkpt>
      <trkpt lat="50.15738" lon="3.67105">
        <ele>155.39</ele>
        <time>2014-08-24T08:42:54Z</time>
      </trkpt>
      <trkpt lat="50.15742" lon="3.6711">
        <ele>155.39</ele>
        <time>2014-08-24T08:43:14Z</time>
      </trkpt>
      <trkpt lat="50.1574" lon="3.67109">
        <ele>155.39</ele>
        <time>2014-08-24T08:43:25Z</time>
      </trkpt>
      <trkpt lat="50.1574" lon="3.67106">
        <ele>155.39</ele>
        <time>2014-08-24T08:43:26Z</time>
      </trkpt>
      <trkpt lat="50.15739" lon="3.67102">
        <ele>153.95</ele>
        <time>2014-08-24T08:43:27Z</time>
      </trkpt>
      <trkpt lat="50.15739" lon="3.67098">
        <ele>153.95</ele>
        <time>2014-08-24T08:43:28Z</time>
      </trkpt>
      <trkpt lat="50.15738" lon="3.67096">
        <ele>153.95</ele>
        <time>2014-08-24T08:43:29Z</time>
      </trkpt>
      <trkpt lat="50.15738" lon="3.67093">
        <ele>153.95</ele>
        <time>2014-08-24T08:43:30Z</time>
      </trkpt>
      <trkpt lat="50.15737" lon="3.67073">
        <ele>153.95</ele>
        <time>2014-08-24T08:43:37Z</time>
      </trkpt>
      <trkpt lat="50.15737" lon="3.67068">
        <ele>155.39</ele>
        <time>2014-08-24T08:43:39Z</time>
      </trkpt>
      <trkpt lat="50.15734" lon="3.67058">
        <ele>155.39</ele>
        <time>2014-08-24T08:43:42Z</time>
      </trkpt>
      <trkpt lat="50.1573" lon="3.67067">
        <ele>155.87</ele>
        <time>2014-08-24T08:43:46Z</time>
      </trkpt>
      <trkpt lat="50.15725" lon="3.67084">
        <ele>156.35</ele>
        <time>2014-08-24T08:43:50Z</time>
      </trkpt>
      <trkpt lat="50.15728" lon="3.6709">
        <ele>154.43</ele>
        <time>2014-08-24T08:43:52Z</time>
      </trkpt>
      <trkpt lat="50.15732" lon="3.671">
        <ele>154.43</ele>
        <time>2014-08-24T08:43:55Z</time>
      </trkpt>
      <trkpt lat="50.15735" lon="3.67103">
        <ele>154.43</ele>
        <time>2014-08-24T08:43:57Z</time>
      </trkpt>
      <trkpt lat="50.15737" lon="3.67105">
        <ele>154.43</ele>
        <time>2014-08-24T08:43:59Z</time>
      </trkpt>
      <trkpt lat="50.15738" lon="3.67106">
        <ele>154.43</ele>
        <time>2014-08-24T08:44:00Z</time>
      </trkpt>
      <trkpt lat="50.15738" lon="3.67106">
        <ele>154.43</ele>
        <time>2014-08-24T08:44:09Z</time>
      </trkpt>
      <trkpt lat="50.15737" lon="3.67106">
        <ele>154.43</ele>
        <time>2014-08-24T08:44:22Z</time>
      </trkpt>
      <trkpt lat="50.15737" lon="3.67103">
        <ele>154.43</ele>
        <time>2014-08-24T08:44:24Z</time>
      </trkpt>
      <trkpt lat="50.15739" lon="3.67101">
        <ele>154.43</ele>
        <time>2014-08-24T08:44:26Z</time>
      </trkpt>
      <trkpt lat="50.15737" lon="3.67093">
        <ele>153.95</ele>
        <time>2014-08-24T08:44:31Z</time>
      </trkpt>
      <trkpt lat="50.15722" lon="3.67084">
        <ele>155.87</ele>
        <time>2014-08-24T08:44:39Z</time>
      </trkpt>
      <trkpt lat="50.15718" lon="3.67082">
        <ele>155.87</ele>
        <time>2014-08-24T08:44:45Z</time>
      </trkpt>
      <trkpt lat="50.15722" lon="3.67081">
        <ele>155.87</ele>
        <time>2014-08-24T08:44:50Z</time>
      </trkpt>
      <trkpt lat="50.15727" lon="3.67094">
        <ele>153.95</ele>
        <time>2014-08-24T08:44:54Z</time>
      </trkpt>
      <trkpt lat="50.15728" lon="3.67099">
        <ele>153.95</ele>
        <time>2014-08-24T08:44:55Z</time>
      </trkpt>
      <trkpt lat="50.15725" lon="3.67121">
        <ele>155.87</ele>
        <time>2014-08-24T08:45:02Z</time>
      </trkpt>
      <trkpt lat="50.15725" lon="3.67128">
        <ele>155.87</ele>
        <time>2014-08-24T08:45:04Z</time>
      </trkpt>
      <trkpt lat="50.15723" lon="3.67132">
        <ele>155.87</ele>
        <time>2014-08-24T08:45:05Z</time>
      </trkpt>
      <trkpt lat="50.15722" lon="3.67133">
        <ele>155.87</ele>
        <time>2014-08-24T08:45:06Z</time>
      </trkpt>
      <trkpt lat="50.1572" lon="3.67135">
        <ele>155.87</ele>
        <time>2014-08-24T08:45:07Z</time>
      </trkpt>
      <trkpt lat="50.15718" lon="3.67136">
        <ele>155.87</ele>
        <time>2014-08-24T08:45:08Z</time>
      </trkpt>
      <trkpt lat="50.15691" lon="3.6715">
        <ele>156.83</ele>
        <time>2014-08-24T08:45:19Z</time>
      </trkpt>
      <trkpt lat="50.15656" lon="3.67166">
        <ele>158.27</ele>
        <time>2014-08-24T08:45:32Z</time>
      </trkpt>
      <trkpt lat="50.15616" lon="3.6718">
        <ele>158.75</ele>
        <time>2014-08-24T08:45:47Z</time>
      </trkpt>
      <trkpt lat="50.15575" lon="3.67194">
        <ele>158.75</ele>
        <time>2014-08-24T08:46:00Z</time>
      </trkpt>
      <trkpt lat="50.15542" lon="3.67207">
        <ele>159.24</ele>
        <time>2014-08-24T08:46:11Z</time>
      </trkpt>
      <trkpt lat="50.15522" lon="3.67214">
        <ele>160.68</ele>
        <time>2014-08-24T08:46:19Z</time>
      </trkpt>
      <trkpt lat="50.1552" lon="3.67214">
        <ele>160.68</ele>
        <time>2014-08-24T08:46:20Z</time>
      </trkpt>
      <trkpt lat="50.15518" lon="3.67215">
        <ele>160.68</ele>
        <time>2014-08-24T08:46:21Z</time>
      </trkpt>
      <trkpt lat="50.15516" lon="3.67216">
        <ele>160.68</ele>
        <time>2014-08-24T08:46:22Z</time>
      </trkpt>
      <trkpt lat="50.15513" lon="3.67218">
        <ele>160.68</ele>
        <time>2014-08-24T08:46:23Z</time>
      </trkpt>
      <trkpt lat="50.15476" lon="3.67231">
        <ele>161.64</ele>
        <time>2014-08-24T08:46:36Z</time>
      </trkpt>
      <trkpt lat="50.15438" lon="3.67245">
        <ele>162.12</ele>
        <time>2014-08-24T08:46:49Z</time>
      </trkpt>
      <trkpt lat="50.15435" lon="3.67246">
        <ele>162.12</ele>
        <time>2014-08-24T08:46:50Z</time>
      </trkpt>
      <trkpt lat="50.15434" lon="3.67247">
        <ele>162.12</ele>
        <time>2014-08-24T08:46:51Z</time>
      </trkpt>
      <trkpt lat="50.15432" lon="3.67248">
        <ele>162.12</ele>
        <time>2014-08-24T08:46:52Z</time>
      </trkpt>
      <trkpt lat="50.15425" lon="3.6725">
        <ele>161.64</ele>
        <time>2014-08-24T08:46:55Z</time>
      </trkpt>
      <trkpt lat="50.15421" lon="3.67251">
        <ele>161.64</ele>
        <time>2014-08-24T08:46:57Z</time>
      </trkpt>
      <trkpt lat="50.15418" lon="3.67252">
        <ele>161.64</ele>
        <time>2014-08-24T08:46:58Z</time>
      </trkpt>
      <trkpt lat="50.15415" lon="3.67253">
        <ele>161.64</ele>
        <time>2014-08-24T08:46:59Z</time>
      </trkpt>
      <trkpt lat="50.15401" lon="3.67258">
        <ele>161.64</ele>
        <time>2014-08-24T08:47:07Z</time>
      </trkpt>
      <trkpt lat="50.15399" lon="3.6726">
        <ele>161.64</ele>
        <time>2014-08-24T08:47:08Z</time>
      </trkpt>
      <trkpt lat="50.15396" lon="3.67261">
        <ele>161.64</ele>
        <time>2014-08-24T08:47:09Z</time>
      </trkpt>
      <trkpt lat="50.15361" lon="3.67272">
        <ele>162.12</ele>
        <time>2014-08-24T08:47:20Z</time>
      </trkpt>
      <trkpt lat="50.15333" lon="3.6728">
        <ele>162.12</ele>
        <time>2014-08-24T08:47:30Z</time>
      </trkpt>
      <trkpt lat="50.15298" lon="3.67294">
        <ele>162.12</ele>
        <time>2014-08-24T08:47:42Z</time>
      </trkpt>
      <trkpt lat="50.15271" lon="3.67306">
        <ele>160.68</ele>
        <time>2014-08-24T08:47:49Z</time>
      </trkpt>
      <trkpt lat="50.15269" lon="3.67306">
        <ele>160.68</ele>
        <time>2014-08-24T08:47:50Z</time>
      </trkpt>
      <trkpt lat="50.15267" lon="3.67305">
        <ele>160.68</ele>
        <time>2014-08-24T08:47:51Z</time>
      </trkpt>
      <trkpt lat="50.15265" lon="3.67303">
        <ele>160.68</ele>
        <time>2014-08-24T08:47:52Z</time>
      </trkpt>
      <trkpt lat="50.15264" lon="3.673">
        <ele>160.68</ele>
        <time>2014-08-24T08:47:53Z</time>
      </trkpt>
      <trkpt lat="50.15263" lon="3.67296">
        <ele>160.68</ele>
        <time>2014-08-24T08:47:54Z</time>
      </trkpt>
      <trkpt lat="50.15238" lon="3.67238">
        <ele>159.72</ele>
        <time>2014-08-24T08:48:06Z</time>
      </trkpt>
      <trkpt lat="50.15205" lon="3.67156">
        <ele>156.83</ele>
        <time>2014-08-24T08:48:19Z</time>
      </trkpt>
      <trkpt lat="50.15168" lon="3.6706">
        <ele>157.31</ele>
        <time>2014-08-24T08:48:33Z</time>
      </trkpt>
      <trkpt lat="50.15129" lon="3.66962">
        <ele>159.72</ele>
        <time>2014-08-24T08:48:51Z</time>
      </trkpt>
      <trkpt lat="50.15103" lon="3.66896">
        <ele>160.2</ele>
        <time>2014-08-24T08:49:05Z</time>
      </trkpt>
      <trkpt lat="50.1508" lon="3.66838">
        <ele>160.2</ele>
        <time>2014-08-24T08:49:16Z</time>
      </trkpt>
      <trkpt lat="50.15078" lon="3.66832">
        <ele>160.2</ele>
        <time>2014-08-24T08:49:17Z</time>
      </trkpt>
      <trkpt lat="50.15056" lon="3.66771">
        <ele>160.68</ele>
        <time>2014-08-24T08:49:30Z</time>
      </trkpt>
      <trkpt lat="50.15041" lon="3.66737">
        <ele>160.68</ele>
        <time>2014-08-24T08:49:39Z</time>
      </trkpt>
      <trkpt lat="50.15038" lon="3.66735">
        <ele>160.68</ele>
        <time>2014-08-24T08:49:42Z</time>
      </trkpt>
      <trkpt lat="50.15038" lon="3.66737">
        <ele>160.68</ele>
        <time>2014-08-24T08:49:46Z</time>
      </trkpt>
      <trkpt lat="50.15038" lon="3.66739">
        <ele>160.68</ele>
        <time>2014-08-24T08:49:47Z</time>
      </trkpt>
      <trkpt lat="50.15039" lon="3.66743">
        <ele>160.68</ele>
        <time>2014-08-24T08:49:48Z</time>
      </trkpt>
      <trkpt lat="50.1504" lon="3.66746">
        <ele>160.68</ele>
        <time>2014-08-24T08:49:49Z</time>
      </trkpt>
      <trkpt lat="50.15041" lon="3.66749">
        <ele>160.68</ele>
        <time>2014-08-24T08:49:50Z</time>
      </trkpt>
      <trkpt lat="50.15042" lon="3.66752">
        <ele>160.68</ele>
        <time>2014-08-24T08:49:51Z</time>
      </trkpt>
      <trkpt lat="50.15043" lon="3.66754">
        <ele>160.68</ele>
        <time>2014-08-24T08:49:52Z</time>
      </trkpt>
      <trkpt lat="50.15056" lon="3.6679">
        <ele>160.2</ele>
        <time>2014-08-24T08:50:03Z</time>
      </trkpt>
      <trkpt lat="50.15066" lon="3.66815">
        <ele>160.2</ele>
        <time>2014-08-24T08:50:08Z</time>
      </trkpt>
      <trkpt lat="50.15069" lon="3.6682">
        <ele>160.2</ele>
        <time>2014-08-24T08:50:09Z</time>
      </trkpt>
      <trkpt lat="50.1507" lon="3.66825">
        <ele>160.2</ele>
        <time>2014-08-24T08:50:10Z</time>
      </trkpt>
      <trkpt lat="50.15072" lon="3.66831">
        <ele>160.2</ele>
        <time>2014-08-24T08:50:11Z</time>
      </trkpt>
      <trkpt lat="50.15073" lon="3.66836">
        <ele>160.2</ele>
        <time>2014-08-24T08:50:12Z</time>
      </trkpt>
      <trkpt lat="50.15075" lon="3.6684">
        <ele>160.2</ele>
        <time>2014-08-24T08:50:13Z</time>
      </trkpt>
      <trkpt lat="50.15078" lon="3.66845">
        <ele>160.2</ele>
        <time>2014-08-24T08:50:14Z</time>
      </trkpt>
      <trkpt lat="50.1508" lon="3.66848">
        <ele>160.2</ele>
        <time>2014-08-24T08:50:15Z</time>
      </trkpt>
      <trkpt lat="50.15082" lon="3.66852">
        <ele>160.2</ele>
        <time>2014-08-24T08:50:16Z</time>
      </trkpt>
      <trkpt lat="50.15084" lon="3.66856">
        <ele>160.2</ele>
        <time>2014-08-24T08:50:17Z</time>
      </trkpt>
      <trkpt lat="50.15086" lon="3.6686">
        <ele>160.2</ele>
        <time>2014-08-24T08:50:18Z</time>
      </trkpt>
      <trkpt lat="50.15089" lon="3.66875">
        <ele>160.2</ele>
        <time>2014-08-24T08:50:21Z</time>
      </trkpt>
      <trkpt lat="50.15089" lon="3.66877">
        <ele>160.2</ele>
        <time>2014-08-24T08:50:22Z</time>
      </trkpt>
      <trkpt lat="50.15087" lon="3.66879">
        <ele>160.2</ele>
        <time>2014-08-24T08:50:23Z</time>
      </trkpt>
      <trkpt lat="50.15084" lon="3.66881">
        <ele>160.2</ele>
        <time>2014-08-24T08:50:24Z</time>
      </trkpt>
      <trkpt lat="50.15082" lon="3.66883">
        <ele>160.2</ele>
        <time>2014-08-24T08:50:25Z</time>
      </trkpt>
      <trkpt lat="50.1508" lon="3.66885">
        <ele>160.2</ele>
        <time>2014-08-24T08:50:26Z</time>
      </trkpt>
      <trkpt lat="50.15077" lon="3.66886">
        <ele>160.2</ele>
        <time>2014-08-24T08:50:27Z</time>
      </trkpt>
      <trkpt lat="50.15075" lon="3.66887">
        <ele>160.2</ele>
        <time>2014-08-24T08:50:28Z</time>
      </trkpt>
      <trkpt lat="50.15072" lon="3.66889">
        <ele>160.2</ele>
        <time>2014-08-24T08:50:29Z</time>
      </trkpt>
      <trkpt lat="50.1507" lon="3.66891">
        <ele>160.2</ele>
        <time>2014-08-24T08:50:30Z</time>
      </trkpt>
      <trkpt lat="50.15068" lon="3.66893">
        <ele>160.2</ele>
        <time>2014-08-24T08:50:31Z</time>
      </trkpt>
      <trkpt lat="50.15066" lon="3.66897">
        <ele>160.2</ele>
        <time>2014-08-24T08:50:32Z</time>
      </trkpt>
      <trkpt lat="50.15064" lon="3.669">
        <ele>160.2</ele>
        <time>2014-08-24T08:50:33Z</time>
      </trkpt>
      <trkpt lat="50.15062" lon="3.66903">
        <ele>160.2</ele>
        <time>2014-08-24T08:50:34Z</time>
      </trkpt>
      <trkpt lat="50.15044" lon="3.66933">
        <ele>161.16</ele>
        <time>2014-08-24T08:50:44Z</time>
      </trkpt>
      <trkpt lat="50.15027" lon="3.66956">
        <ele>161.64</ele>
        <time>2014-08-24T08:50:53Z</time>
      </trkpt>
      <trkpt lat="50.15002" lon="3.66986">
        <ele>162.12</ele>
        <time>2014-08-24T08:51:06Z</time>
      </trkpt>
      <trkpt lat="50.1498" lon="3.67017">
        <ele>162.6</ele>
        <time>2014-08-24T08:51:17Z</time>
      </trkpt>
      <trkpt lat="50.14955" lon="3.67049">
        <ele>163.08</ele>
        <time>2014-08-24T08:51:29Z</time>
      </trkpt>
      <trkpt lat="50.14951" lon="3.67053">
        <ele>163.56</ele>
        <time>2014-08-24T08:51:31Z</time>
      </trkpt>
      <trkpt lat="50.14949" lon="3.67056">
        <ele>163.56</ele>
        <time>2014-08-24T08:51:32Z</time>
      </trkpt>
      <trkpt lat="50.14941" lon="3.67067">
        <ele>163.56</ele>
        <time>2014-08-24T08:51:41Z</time>
      </trkpt>
      <trkpt lat="50.14931" lon="3.67072">
        <ele>163.08</ele>
        <time>2014-08-24T08:51:50Z</time>
      </trkpt>
      <trkpt lat="50.1493" lon="3.67074">
        <ele>163.08</ele>
        <time>2014-08-24T08:51:51Z</time>
      </trkpt>
      <trkpt lat="50.14907" lon="3.67098">
        <ele>164.04</ele>
        <time>2014-08-24T08:52:01Z</time>
      </trkpt>
      <trkpt lat="50.14906" lon="3.67101">
        <ele>164.04</ele>
        <time>2014-08-24T08:52:02Z</time>
      </trkpt>
      <trkpt lat="50.14901" lon="3.6711">
        <ele>164.04</ele>
        <time>2014-08-24T08:52:05Z</time>
      </trkpt>
      <trkpt lat="50.14899" lon="3.67112">
        <ele>164.04</ele>
        <time>2014-08-24T08:52:06Z</time>
      </trkpt>
      <trkpt lat="50.14883" lon="3.6713">
        <ele>164.52</ele>
        <time>2014-08-24T08:52:15Z</time>
      </trkpt>
      <trkpt lat="50.14859" lon="3.67158">
        <ele>165</ele>
        <time>2014-08-24T08:52:25Z</time>
      </trkpt>
      <trkpt lat="50.14855" lon="3.67163">
        <ele>165</ele>
        <time>2014-08-24T08:52:27Z</time>
      </trkpt>
      <trkpt lat="50.14853" lon="3.67165">
        <ele>165</ele>
        <time>2014-08-24T08:52:28Z</time>
      </trkpt>
      <trkpt lat="50.14851" lon="3.67168">
        <ele>165</ele>
        <time>2014-08-24T08:52:29Z</time>
      </trkpt>
      <trkpt lat="50.14849" lon="3.67171">
        <ele>165</ele>
        <time>2014-08-24T08:52:30Z</time>
      </trkpt>
      <trkpt lat="50.14847" lon="3.67174">
        <ele>165</ele>
        <time>2014-08-24T08:52:31Z</time>
      </trkpt>
      <trkpt lat="50.14844" lon="3.67177">
        <ele>165</ele>
        <time>2014-08-24T08:52:32Z</time>
      </trkpt>
      <trkpt lat="50.14841" lon="3.6718">
        <ele>165.48</ele>
        <time>2014-08-24T08:52:33Z</time>
      </trkpt>
      <trkpt lat="50.14838" lon="3.67184">
        <ele>165.48</ele>
        <time>2014-08-24T08:52:34Z</time>
      </trkpt>
      <trkpt lat="50.14835" lon="3.67187">
        <ele>165.48</ele>
        <time>2014-08-24T08:52:35Z</time>
      </trkpt>
      <trkpt lat="50.1483" lon="3.67192">
        <ele>165.48</ele>
        <time>2014-08-24T08:52:37Z</time>
      </trkpt>
      <trkpt lat="50.14827" lon="3.67195">
        <ele>165.48</ele>
        <time>2014-08-24T08:52:38Z</time>
      </trkpt>
      <trkpt lat="50.14799" lon="3.67229">
        <ele>165.96</ele>
        <time>2014-08-24T08:52:51Z</time>
      </trkpt>
      <trkpt lat="50.14782" lon="3.67252">
        <ele>165.96</ele>
        <time>2014-08-24T08:52:59Z</time>
      </trkpt>
      <trkpt lat="50.1476" lon="3.67275">
        <ele>165.96</ele>
        <time>2014-08-24T08:53:09Z</time>
      </trkpt>
      <trkpt lat="50.14726" lon="3.67322">
        <ele>165.96</ele>
        <time>2014-08-24T08:53:23Z</time>
      </trkpt>
      <trkpt lat="50.14725" lon="3.67325">
        <ele>165.96</ele>
        <time>2014-08-24T08:53:24Z</time>
      </trkpt>
      <trkpt lat="50.14723" lon="3.67326">
        <ele>165.96</ele>
        <time>2014-08-24T08:53:25Z</time>
      </trkpt>
      <trkpt lat="50.14721" lon="3.67328">
        <ele>165.96</ele>
        <time>2014-08-24T08:53:26Z</time>
      </trkpt>
      <trkpt lat="50.14712" lon="3.6733">
        <ele>165.96</ele>
        <time>2014-08-24T08:53:29Z</time>
      </trkpt>
      <trkpt lat="50.14679" lon="3.67368">
        <ele>165.96</ele>
        <time>2014-08-24T08:53:43Z</time>
      </trkpt>
      <trkpt lat="50.14655" lon="3.67398">
        <ele>166.45</ele>
        <time>2014-08-24T08:53:53Z</time>
      </trkpt>
      <trkpt lat="50.14628" lon="3.67429">
        <ele>165.96</ele>
        <time>2014-08-24T08:54:03Z</time>
      </trkpt>
      <trkpt lat="50.14587" lon="3.67477">
        <ele>166.45</ele>
        <time>2014-08-24T08:54:18Z</time>
      </trkpt>
      <trkpt lat="50.14553" lon="3.67517">
        <ele>166.93</ele>
        <time>2014-08-24T08:54:30Z</time>
      </trkpt>
      <trkpt lat="50.14532" lon="3.67542">
        <ele>166.93</ele>
        <time>2014-08-24T08:54:39Z</time>
      </trkpt>
      <trkpt lat="50.14529" lon="3.67545">
        <ele>166.93</ele>
        <time>2014-08-24T08:54:41Z</time>
      </trkpt>
      <trkpt lat="50.14527" lon="3.67547">
        <ele>166.93</ele>
        <time>2014-08-24T08:54:42Z</time>
      </trkpt>
      <trkpt lat="50.14501" lon="3.67579">
        <ele>166.93</ele>
        <time>2014-08-24T08:54:53Z</time>
      </trkpt>
      <trkpt lat="50.14481" lon="3.67599">
        <ele>166.93</ele>
        <time>2014-08-24T08:55:02Z</time>
      </trkpt>
      <trkpt lat="50.14458" lon="3.67629">
        <ele>166.93</ele>
        <time>2014-08-24T08:55:11Z</time>
      </trkpt>
      <trkpt lat="50.14453" lon="3.67639">
        <ele>166.93</ele>
        <time>2014-08-24T08:55:19Z</time>
      </trkpt>
      <trkpt lat="50.14452" lon="3.67653">
        <ele>166.93</ele>
        <time>2014-08-24T08:55:31Z</time>
      </trkpt>
      <trkpt lat="50.14448" lon="3.67655">
        <ele>166.93</ele>
        <time>2014-08-24T08:55:34Z</time>
      </trkpt>
      <trkpt lat="50.14446" lon="3.67655">
        <ele>166.93</ele>
        <time>2014-08-24T08:55:35Z</time>
      </trkpt>
      <trkpt lat="50.14444" lon="3.67655">
        <ele>166.93</ele>
        <time>2014-08-24T08:55:36Z</time>
      </trkpt>
      <trkpt lat="50.14428" lon="3.67655">
        <ele>165.96</ele>
        <time>2014-08-24T08:55:44Z</time>
      </trkpt>
      <trkpt lat="50.14386" lon="3.67649">
        <ele>165.96</ele>
        <time>2014-08-24T08:55:58Z</time>
      </trkpt>
      <trkpt lat="50.14373" lon="3.67646">
        <ele>165</ele>
        <time>2014-08-24T08:56:01Z</time>
      </trkpt>
      <trkpt lat="50.14368" lon="3.67646">
        <ele>165</ele>
        <time>2014-08-24T08:56:02Z</time>
      </trkpt>
      <trkpt lat="50.14354" lon="3.67644">
        <ele>164.52</ele>
        <time>2014-08-24T08:56:05Z</time>
      </trkpt>
      <trkpt lat="50.14274" lon="3.67629">
        <ele>162.12</ele>
        <time>2014-08-24T08:56:20Z</time>
      </trkpt>
      <trkpt lat="50.14264" lon="3.6763">
        <ele>161.64</ele>
        <time>2014-08-24T08:56:22Z</time>
      </trkpt>
      <trkpt lat="50.1426" lon="3.67629">
        <ele>161.64</ele>
        <time>2014-08-24T08:56:23Z</time>
      </trkpt>
      <trkpt lat="50.14257" lon="3.67628">
        <ele>161.64</ele>
        <time>2014-08-24T08:56:24Z</time>
      </trkpt>
      <trkpt lat="50.14253" lon="3.67629">
        <ele>161.64</ele>
        <time>2014-08-24T08:56:25Z</time>
      </trkpt>
      <trkpt lat="50.14251" lon="3.67631">
        <ele>161.16</ele>
        <time>2014-08-24T08:56:26Z</time>
      </trkpt>
      <trkpt lat="50.14249" lon="3.67635">
        <ele>161.16</ele>
        <time>2014-08-24T08:56:27Z</time>
      </trkpt>
      <trkpt lat="50.14248" lon="3.67639">
        <ele>161.16</ele>
        <time>2014-08-24T08:56:28Z</time>
      </trkpt>
      <trkpt lat="50.14248" lon="3.6764">
        <ele>161.16</ele>
        <time>2014-08-24T08:56:29Z</time>
      </trkpt>
      <trkpt lat="50.14251" lon="3.67642">
        <ele>161.16</ele>
        <time>2014-08-24T08:56:35Z</time>
      </trkpt>
      <trkpt lat="50.14251" lon="3.67639">
        <ele>161.16</ele>
        <time>2014-08-24T08:56:36Z</time>
      </trkpt>
      <trkpt lat="50.14251" lon="3.67637">
        <ele>161.16</ele>
        <time>2014-08-24T08:56:37Z</time>
      </trkpt>
      <trkpt lat="50.14251" lon="3.67634">
        <ele>161.16</ele>
        <time>2014-08-24T08:56:38Z</time>
      </trkpt>
      <trkpt lat="50.1425" lon="3.67632">
        <ele>161.16</ele>
        <time>2014-08-24T08:56:39Z</time>
      </trkpt>
      <trkpt lat="50.14247" lon="3.67632">
        <ele>161.16</ele>
        <time>2014-08-24T08:56:40Z</time>
      </trkpt>
      <trkpt lat="50.14246" lon="3.67634">
        <ele>161.16</ele>
        <time>2014-08-24T08:56:41Z</time>
      </trkpt>
      <trkpt lat="50.14246" lon="3.67638">
        <ele>161.16</ele>
        <time>2014-08-24T08:56:42Z</time>
      </trkpt>
      <trkpt lat="50.14247" lon="3.67641">
        <ele>161.16</ele>
        <time>2014-08-24T08:56:43Z</time>
      </trkpt>
      <trkpt lat="50.14249" lon="3.67644">
        <ele>161.16</ele>
        <time>2014-08-24T08:56:44Z</time>
      </trkpt>
      <trkpt lat="50.14265" lon="3.67681">
        <ele>162.6</ele>
        <time>2014-08-24T08:56:57Z</time>
      </trkpt>
      <trkpt lat="50.14287" lon="3.67733">
        <ele>163.56</ele>
        <time>2014-08-24T08:57:12Z</time>
      </trkpt>
      <trkpt lat="50.14313" lon="3.67793">
        <ele>165</ele>
        <time>2014-08-24T08:57:26Z</time>
      </trkpt>
      <trkpt lat="50.1434" lon="3.67851">
        <ele>166.93</ele>
        <time>2014-08-24T08:57:39Z</time>
      </trkpt>
      <trkpt lat="50.14364" lon="3.67904">
        <ele>167.89</ele>
        <time>2014-08-24T08:57:51Z</time>
      </trkpt>
      <trkpt lat="50.14386" lon="3.67953">
        <ele>168.37</ele>
        <time>2014-08-24T08:58:02Z</time>
      </trkpt>
      <trkpt lat="50.14418" lon="3.68026">
        <ele>168.37</ele>
        <time>2014-08-24T08:58:16Z</time>
      </trkpt>
      <trkpt lat="50.1443" lon="3.6805">
        <ele>168.37</ele>
        <time>2014-08-24T08:58:20Z</time>
      </trkpt>
      <trkpt lat="50.14474" lon="3.68152">
        <ele>167.41</ele>
        <time>2014-08-24T08:58:36Z</time>
      </trkpt>
      <trkpt lat="50.14482" lon="3.6817">
        <ele>167.41</ele>
        <time>2014-08-24T08:58:39Z</time>
      </trkpt>
      <trkpt lat="50.14484" lon="3.68176">
        <ele>167.41</ele>
        <time>2014-08-24T08:58:40Z</time>
      </trkpt>
      <trkpt lat="50.14499" lon="3.68209">
        <ele>167.41</ele>
        <time>2014-08-24T08:58:46Z</time>
      </trkpt>
      <trkpt lat="50.14502" lon="3.68215">
        <ele>167.41</ele>
        <time>2014-08-24T08:58:47Z</time>
      </trkpt>
      <trkpt lat="50.14544" lon="3.68309">
        <ele>166.93</ele>
        <time>2014-08-24T08:59:04Z</time>
      </trkpt>
      <trkpt lat="50.14596" lon="3.68423">
        <ele>164.52</ele>
        <time>2014-08-24T08:59:20Z</time>
      </trkpt>
      <trkpt lat="50.14647" lon="3.68536">
        <ele>162.12</ele>
        <time>2014-08-24T08:59:34Z</time>
      </trkpt>
      <trkpt lat="50.14677" lon="3.68603">
        <ele>161.64</ele>
        <time>2014-08-24T08:59:43Z</time>
      </trkpt>
      <trkpt lat="50.14678" lon="3.68611">
        <ele>161.64</ele>
        <time>2014-08-24T08:59:44Z</time>
      </trkpt>
      <trkpt lat="50.14678" lon="3.68618">
        <ele>161.64</ele>
        <time>2014-08-24T08:59:45Z</time>
      </trkpt>
      <trkpt lat="50.14676" lon="3.68628">
        <ele>161.64</ele>
        <time>2014-08-24T08:59:46Z</time>
      </trkpt>
      <trkpt lat="50.14675" lon="3.68631">
        <ele>161.64</ele>
        <time>2014-08-24T08:59:47Z</time>
      </trkpt>
      <trkpt lat="50.14673" lon="3.68637">
        <ele>161.64</ele>
        <time>2014-08-24T08:59:48Z</time>
      </trkpt>
      <trkpt lat="50.14661" lon="3.68672">
        <ele>163.08</ele>
        <time>2014-08-24T08:59:55Z</time>
      </trkpt>
      <trkpt lat="50.14641" lon="3.6874">
        <ele>165.48</ele>
        <time>2014-08-24T09:00:08Z</time>
      </trkpt>
      <trkpt lat="50.14613" lon="3.68808">
        <ele>167.41</ele>
        <time>2014-08-24T09:00:21Z</time>
      </trkpt>
      <trkpt lat="50.14583" lon="3.68886">
        <ele>169.81</ele>
        <time>2014-08-24T09:00:36Z</time>
      </trkpt>
      <trkpt lat="50.1456" lon="3.68942">
        <ele>170.77</ele>
        <time>2014-08-24T09:00:48Z</time>
      </trkpt>
      <trkpt lat="50.14535" lon="3.6901">
        <ele>170.77</ele>
        <time>2014-08-24T09:01:01Z</time>
      </trkpt>
      <trkpt lat="50.14515" lon="3.69058">
        <ele>171.25</ele>
        <time>2014-08-24T09:01:10Z</time>
      </trkpt>
      <trkpt lat="50.14513" lon="3.69064">
        <ele>171.25</ele>
        <time>2014-08-24T09:01:11Z</time>
      </trkpt>
      <trkpt lat="50.14511" lon="3.6907">
        <ele>171.25</ele>
        <time>2014-08-24T09:01:12Z</time>
      </trkpt>
      <trkpt lat="50.14486" lon="3.69134">
        <ele>172.21</ele>
        <time>2014-08-24T09:01:24Z</time>
      </trkpt>
      <trkpt lat="50.14463" lon="3.69189">
        <ele>172.21</ele>
        <time>2014-08-24T09:01:37Z</time>
      </trkpt>
      <trkpt lat="50.1443" lon="3.69213">
        <ele>172.21</ele>
        <time>2014-08-24T09:01:49Z</time>
      </trkpt>
      <trkpt lat="50.14411" lon="3.69219">
        <ele>172.21</ele>
        <time>2014-08-24T09:01:57Z</time>
      </trkpt>
      <trkpt lat="50.1441" lon="3.69218">
        <ele>172.21</ele>
        <time>2014-08-24T09:01:58Z</time>
      </trkpt>
      <trkpt lat="50.14407" lon="3.69217">
        <ele>172.21</ele>
        <time>2014-08-24T09:02:10Z</time>
      </trkpt>
      <trkpt lat="50.14404" lon="3.69218">
        <ele>172.21</ele>
        <time>2014-08-24T09:02:37Z</time>
      </trkpt>
      <trkpt lat="50.14408" lon="3.6921">
        <ele>172.21</ele>
        <time>2014-08-24T09:03:06Z</time>
      </trkpt>
      <trkpt lat="50.14408" lon="3.69214">
        <ele>172.21</ele>
        <time>2014-08-24T09:03:36Z</time>
      </trkpt>
      <trkpt lat="50.14407" lon="3.69216">
        <ele>172.69</ele>
        <time>2014-08-24T09:04:05Z</time>
      </trkpt>
      <trkpt lat="50.14405" lon="3.69211">
        <ele>172.69</ele>
        <time>2014-08-24T09:04:12Z</time>
      </trkpt>
      <trkpt lat="50.14386" lon="3.69174">
        <ele>172.69</ele>
        <time>2014-08-24T09:04:24Z</time>
      </trkpt>
      <trkpt lat="50.14369" lon="3.6914">
        <ele>172.69</ele>
        <time>2014-08-24T09:04:31Z</time>
      </trkpt>
      <trkpt lat="50.14367" lon="3.69135">
        <ele>172.69</ele>
        <time>2014-08-24T09:04:32Z</time>
      </trkpt>
      <trkpt lat="50.14361" lon="3.69124">
        <ele>172.69</ele>
        <time>2014-08-24T09:04:34Z</time>
      </trkpt>
      <trkpt lat="50.14358" lon="3.69119">
        <ele>172.69</ele>
        <time>2014-08-24T09:04:35Z</time>
      </trkpt>
      <trkpt lat="50.14356" lon="3.69114">
        <ele>172.69</ele>
        <time>2014-08-24T09:04:36Z</time>
      </trkpt>
      <trkpt lat="50.14353" lon="3.69109">
        <ele>172.69</ele>
        <time>2014-08-24T09:04:37Z</time>
      </trkpt>
      <trkpt lat="50.14351" lon="3.69104">
        <ele>171.25</ele>
        <time>2014-08-24T09:04:38Z</time>
      </trkpt>
      <trkpt lat="50.14348" lon="3.691">
        <ele>171.25</ele>
        <time>2014-08-24T09:04:39Z</time>
      </trkpt>
      <trkpt lat="50.14346" lon="3.69095">
        <ele>171.25</ele>
        <time>2014-08-24T09:04:40Z</time>
      </trkpt>
      <trkpt lat="50.14318" lon="3.6904">
        <ele>170.77</ele>
        <time>2014-08-24T09:04:52Z</time>
      </trkpt>
      <trkpt lat="50.14303" lon="3.69013">
        <ele>169.81</ele>
        <time>2014-08-24T09:05:00Z</time>
      </trkpt>
      <trkpt lat="50.14301" lon="3.69013">
        <ele>169.81</ele>
        <time>2014-08-24T09:05:01Z</time>
      </trkpt>
      <trkpt lat="50.143" lon="3.69014">
        <ele>169.33</ele>
        <time>2014-08-24T09:05:02Z</time>
      </trkpt>
      <trkpt lat="50.14295" lon="3.69018">
        <ele>169.33</ele>
        <time>2014-08-24T09:05:05Z</time>
      </trkpt>
      <trkpt lat="50.14295" lon="3.6902">
        <ele>169.33</ele>
        <time>2014-08-24T09:05:06Z</time>
      </trkpt>
      <trkpt lat="50.14294" lon="3.69035">
        <ele>168.85</ele>
        <time>2014-08-24T09:05:09Z</time>
      </trkpt>
      <trkpt lat="50.14292" lon="3.6905">
        <ele>168.37</ele>
        <time>2014-08-24T09:05:11Z</time>
      </trkpt>
      <trkpt lat="50.14291" lon="3.69058">
        <ele>168.37</ele>
        <time>2014-08-24T09:05:12Z</time>
      </trkpt>
      <trkpt lat="50.1429" lon="3.69065">
        <ele>168.37</ele>
        <time>2014-08-24T09:05:13Z</time>
      </trkpt>
      <trkpt lat="50.14289" lon="3.69072">
        <ele>168.37</ele>
        <time>2014-08-24T09:05:14Z</time>
      </trkpt>
      <trkpt lat="50.14287" lon="3.69077">
        <ele>167.89</ele>
        <time>2014-08-24T09:05:15Z</time>
      </trkpt>
      <trkpt lat="50.14286" lon="3.69083">
        <ele>167.89</ele>
        <time>2014-08-24T09:05:16Z</time>
      </trkpt>
      <trkpt lat="50.14285" lon="3.6909">
        <ele>167.89</ele>
        <time>2014-08-24T09:05:17Z</time>
      </trkpt>
      <trkpt lat="50.14284" lon="3.69097">
        <ele>167.41</ele>
        <time>2014-08-24T09:05:18Z</time>
      </trkpt>
      <trkpt lat="50.14282" lon="3.6912">
        <ele>167.41</ele>
        <time>2014-08-24T09:05:21Z</time>
      </trkpt>
      <trkpt lat="50.1428" lon="3.69129">
        <ele>167.41</ele>
        <time>2014-08-24T09:05:22Z</time>
      </trkpt>
      <trkpt lat="50.14256" lon="3.69194">
        <ele>165.48</ele>
        <time>2014-08-24T09:05:30Z</time>
      </trkpt>
      <trkpt lat="50.14256" lon="3.69202">
        <ele>165.48</ele>
        <time>2014-08-24T09:05:31Z</time>
      </trkpt>
      <trkpt lat="50.14255" lon="3.69209">
        <ele>165.48</ele>
        <time>2014-08-24T09:05:32Z</time>
      </trkpt>
      <trkpt lat="50.14253" lon="3.69214">
        <ele>165.48</ele>
        <time>2014-08-24T09:05:33Z</time>
      </trkpt>
      <trkpt lat="50.1425" lon="3.69219">
        <ele>165.48</ele>
        <time>2014-08-24T09:05:34Z</time>
      </trkpt>
      <trkpt lat="50.14247" lon="3.69225">
        <ele>164.52</ele>
        <time>2014-08-24T09:05:35Z</time>
      </trkpt>
      <trkpt lat="50.14245" lon="3.69232">
        <ele>164.52</ele>
        <time>2014-08-24T09:05:36Z</time>
      </trkpt>
      <trkpt lat="50.14244" lon="3.6924">
        <ele>164.52</ele>
        <time>2014-08-24T09:05:37Z</time>
      </trkpt>
      <trkpt lat="50.14242" lon="3.69249">
        <ele>164.04</ele>
        <time>2014-08-24T09:05:38Z</time>
      </trkpt>
      <trkpt lat="50.14239" lon="3.69268">
        <ele>163.56</ele>
        <time>2014-08-24T09:05:40Z</time>
      </trkpt>
      <trkpt lat="50.14238" lon="3.69278">
        <ele>162.6</ele>
        <time>2014-08-24T09:05:41Z</time>
      </trkpt>
      <trkpt lat="50.14237" lon="3.69287">
        <ele>162.6</ele>
        <time>2014-08-24T09:05:42Z</time>
      </trkpt>
      <trkpt lat="50.14234" lon="3.69303">
        <ele>162.6</ele>
        <time>2014-08-24T09:05:44Z</time>
      </trkpt>
      <trkpt lat="50.14234" lon="3.69311">
        <ele>164.04</ele>
        <time>2014-08-24T09:05:45Z</time>
      </trkpt>
      <trkpt lat="50.14233" lon="3.69321">
        <ele>164.04</ele>
        <time>2014-08-24T09:05:46Z</time>
      </trkpt>
      <trkpt lat="50.14228" lon="3.69377">
        <ele>165</ele>
        <time>2014-08-24T09:05:54Z</time>
      </trkpt>
      <trkpt lat="50.14223" lon="3.6942">
        <ele>165.48</ele>
        <time>2014-08-24T09:06:00Z</time>
      </trkpt>
      <trkpt lat="50.14222" lon="3.69428">
        <ele>165.48</ele>
        <time>2014-08-24T09:06:01Z</time>
      </trkpt>
      <trkpt lat="50.14221" lon="3.69435">
        <ele>165.48</ele>
        <time>2014-08-24T09:06:02Z</time>
      </trkpt>
      <trkpt lat="50.1422" lon="3.69443">
        <ele>165.48</ele>
        <time>2014-08-24T09:06:03Z</time>
      </trkpt>
      <trkpt lat="50.14219" lon="3.69449">
        <ele>165.48</ele>
        <time>2014-08-24T09:06:04Z</time>
      </trkpt>
      <trkpt lat="50.1422" lon="3.69456">
        <ele>165.48</ele>
        <time>2014-08-24T09:06:05Z</time>
      </trkpt>
      <trkpt lat="50.14219" lon="3.69464">
        <ele>165.48</ele>
        <time>2014-08-24T09:06:06Z</time>
      </trkpt>
      <trkpt lat="50.14219" lon="3.6947">
        <ele>165.96</ele>
        <time>2014-08-24T09:06:07Z</time>
      </trkpt>
      <trkpt lat="50.14218" lon="3.69476">
        <ele>165.96</ele>
        <time>2014-08-24T09:06:08Z</time>
      </trkpt>
      <trkpt lat="50.14217" lon="3.69481">
        <ele>165.96</ele>
        <time>2014-08-24T09:06:09Z</time>
      </trkpt>
      <trkpt lat="50.14215" lon="3.695">
        <ele>165.96</ele>
        <time>2014-08-24T09:06:12Z</time>
      </trkpt>
      <trkpt lat="50.1422" lon="3.69574">
        <ele>165.96</ele>
        <time>2014-08-24T09:06:23Z</time>
      </trkpt>
      <trkpt lat="50.1422" lon="3.69595">
        <ele>165.96</ele>
        <time>2014-08-24T09:06:26Z</time>
      </trkpt>
      <trkpt lat="50.1422" lon="3.69601">
        <ele>165.96</ele>
        <time>2014-08-24T09:06:27Z</time>
      </trkpt>
      <trkpt lat="50.14223" lon="3.69614">
        <ele>165.96</ele>
        <time>2014-08-24T09:06:29Z</time>
      </trkpt>
      <trkpt lat="50.14224" lon="3.6962">
        <ele>165.96</ele>
        <time>2014-08-24T09:06:30Z</time>
      </trkpt>
      <trkpt lat="50.14225" lon="3.69625">
        <ele>165.96</ele>
        <time>2014-08-24T09:06:31Z</time>
      </trkpt>
      <trkpt lat="50.14239" lon="3.69669">
        <ele>166.93</ele>
        <time>2014-08-24T09:06:40Z</time>
      </trkpt>
      <trkpt lat="50.14245" lon="3.6973">
        <ele>166.93</ele>
        <time>2014-08-24T09:06:50Z</time>
      </trkpt>
      <trkpt lat="50.14245" lon="3.69738">
        <ele>166.93</ele>
        <time>2014-08-24T09:06:51Z</time>
      </trkpt>
      <trkpt lat="50.14245" lon="3.69747">
        <ele>166.93</ele>
        <time>2014-08-24T09:06:52Z</time>
      </trkpt>
      <trkpt lat="50.14246" lon="3.69755">
        <ele>166.93</ele>
        <time>2014-08-24T09:06:53Z</time>
      </trkpt>
      <trkpt lat="50.14247" lon="3.69764">
        <ele>166.93</ele>
        <time>2014-08-24T09:06:54Z</time>
      </trkpt>
      <trkpt lat="50.14247" lon="3.69771">
        <ele>165.48</ele>
        <time>2014-08-24T09:06:55Z</time>
      </trkpt>
      <trkpt lat="50.14247" lon="3.6978">
        <ele>165.48</ele>
        <time>2014-08-24T09:06:56Z</time>
      </trkpt>
      <trkpt lat="50.14249" lon="3.69789">
        <ele>165.48</ele>
        <time>2014-08-24T09:06:57Z</time>
      </trkpt>
      <trkpt lat="50.1425" lon="3.69798">
        <ele>164.52</ele>
        <time>2014-08-24T09:06:58Z</time>
      </trkpt>
      <trkpt lat="50.1425" lon="3.69807">
        <ele>164.52</ele>
        <time>2014-08-24T09:06:59Z</time>
      </trkpt>
      <trkpt lat="50.14251" lon="3.69817">
        <ele>164.04</ele>
        <time>2014-08-24T09:07:00Z</time>
      </trkpt>
      <trkpt lat="50.14252" lon="3.69827">
        <ele>164.04</ele>
        <time>2014-08-24T09:07:01Z</time>
      </trkpt>
      <trkpt lat="50.14253" lon="3.69847">
        <ele>162.6</ele>
        <time>2014-08-24T09:07:03Z</time>
      </trkpt>
      <trkpt lat="50.14255" lon="3.69857">
        <ele>162.6</ele>
        <time>2014-08-24T09:07:04Z</time>
      </trkpt>
      <trkpt lat="50.14256" lon="3.69868">
        <ele>161.64</ele>
        <time>2014-08-24T09:07:05Z</time>
      </trkpt>
      <trkpt lat="50.14257" lon="3.69879">
        <ele>161.16</ele>
        <time>2014-08-24T09:07:06Z</time>
      </trkpt>
      <trkpt lat="50.14259" lon="3.69891">
        <ele>160.68</ele>
        <time>2014-08-24T09:07:07Z</time>
      </trkpt>
      <trkpt lat="50.1426" lon="3.69903">
        <ele>160.68</ele>
        <time>2014-08-24T09:07:08Z</time>
      </trkpt>
      <trkpt lat="50.1426" lon="3.69916">
        <ele>159.24</ele>
        <time>2014-08-24T09:07:09Z</time>
      </trkpt>
      <trkpt lat="50.1426" lon="3.69928">
        <ele>159.24</ele>
        <time>2014-08-24T09:07:10Z</time>
      </trkpt>
      <trkpt lat="50.14261" lon="3.69964">
        <ele>157.79</ele>
        <time>2014-08-24T09:07:13Z</time>
      </trkpt>
      <trkpt lat="50.14262" lon="3.69993">
        <ele>156.83</ele>
        <time>2014-08-24T09:07:16Z</time>
      </trkpt>
      <trkpt lat="50.1425" lon="3.70031">
        <ele>155.39</ele>
        <time>2014-08-24T09:07:23Z</time>
      </trkpt>
      <trkpt lat="50.14247" lon="3.70035">
        <ele>155.39</ele>
        <time>2014-08-24T09:07:24Z</time>
      </trkpt>
      <trkpt lat="50.14245" lon="3.70041">
        <ele>154.91</ele>
        <time>2014-08-24T09:07:25Z</time>
      </trkpt>
      <trkpt lat="50.14242" lon="3.70046">
        <ele>154.91</ele>
        <time>2014-08-24T09:07:26Z</time>
      </trkpt>
      <trkpt lat="50.1424" lon="3.70052">
        <ele>154.43</ele>
        <time>2014-08-24T09:07:27Z</time>
      </trkpt>
      <trkpt lat="50.14238" lon="3.70057">
        <ele>154.43</ele>
        <time>2014-08-24T09:07:28Z</time>
      </trkpt>
      <trkpt lat="50.14235" lon="3.70063">
        <ele>154.43</ele>
        <time>2014-08-24T09:07:29Z</time>
      </trkpt>
      <trkpt lat="50.14229" lon="3.70076">
        <ele>154.43</ele>
        <time>2014-08-24T09:07:31Z</time>
      </trkpt>
      <trkpt lat="50.14219" lon="3.70113">
        <ele>154.43</ele>
        <time>2014-08-24T09:07:36Z</time>
      </trkpt>
      <trkpt lat="50.14218" lon="3.70119">
        <ele>154.43</ele>
        <time>2014-08-24T09:07:37Z</time>
      </trkpt>
      <trkpt lat="50.14215" lon="3.70126">
        <ele>155.87</ele>
        <time>2014-08-24T09:07:38Z</time>
      </trkpt>
      <trkpt lat="50.14212" lon="3.70131">
        <ele>155.87</ele>
        <time>2014-08-24T09:07:39Z</time>
      </trkpt>
      <trkpt lat="50.14208" lon="3.70134">
        <ele>155.87</ele>
        <time>2014-08-24T09:07:40Z</time>
      </trkpt>
      <trkpt lat="50.14204" lon="3.70138">
        <ele>155.87</ele>
        <time>2014-08-24T09:07:41Z</time>
      </trkpt>
      <trkpt lat="50.142" lon="3.70143">
        <ele>155.87</ele>
        <time>2014-08-24T09:07:42Z</time>
      </trkpt>
      <trkpt lat="50.14198" lon="3.70148">
        <ele>155.87</ele>
        <time>2014-08-24T09:07:43Z</time>
      </trkpt>
      <trkpt lat="50.14195" lon="3.70152">
        <ele>155.87</ele>
        <time>2014-08-24T09:07:44Z</time>
      </trkpt>
      <trkpt lat="50.14191" lon="3.70156">
        <ele>155.87</ele>
        <time>2014-08-24T09:07:45Z</time>
      </trkpt>
      <trkpt lat="50.14186" lon="3.70159">
        <ele>155.87</ele>
        <time>2014-08-24T09:07:46Z</time>
      </trkpt>
      <trkpt lat="50.14182" lon="3.70162">
        <ele>154.43</ele>
        <time>2014-08-24T09:07:47Z</time>
      </trkpt>
      <trkpt lat="50.14177" lon="3.70166">
        <ele>154.43</ele>
        <time>2014-08-24T09:07:48Z</time>
      </trkpt>
      <trkpt lat="50.14173" lon="3.70171">
        <ele>153.95</ele>
        <time>2014-08-24T09:07:49Z</time>
      </trkpt>
      <trkpt lat="50.14169" lon="3.70175">
        <ele>153.95</ele>
        <time>2014-08-24T09:07:50Z</time>
      </trkpt>
      <trkpt lat="50.14147" lon="3.70209">
        <ele>152.03</ele>
        <time>2014-08-24T09:07:56Z</time>
      </trkpt>
      <trkpt lat="50.14125" lon="3.70254">
        <ele>151.06</ele>
        <time>2014-08-24T09:08:06Z</time>
      </trkpt>
      <trkpt lat="50.14115" lon="3.70275">
        <ele>150.58</ele>
        <time>2014-08-24T09:08:11Z</time>
      </trkpt>
      <trkpt lat="50.14105" lon="3.70295">
        <ele>149.62</ele>
        <time>2014-08-24T09:08:15Z</time>
      </trkpt>
      <trkpt lat="50.14057" lon="3.70351">
        <ele>147.22</ele>
        <time>2014-08-24T09:08:28Z</time>
      </trkpt>
      <trkpt lat="50.14051" lon="3.7036">
        <ele>146.74</ele>
        <time>2014-08-24T09:08:30Z</time>
      </trkpt>
      <trkpt lat="50.14033" lon="3.70394">
        <ele>145.78</ele>
        <time>2014-08-24T09:08:37Z</time>
      </trkpt>
      <trkpt lat="50.14017" lon="3.7045">
        <ele>145.3</ele>
        <time>2014-08-24T09:08:47Z</time>
      </trkpt>
      <trkpt lat="50.14016" lon="3.70456">
        <ele>145.3</ele>
        <time>2014-08-24T09:08:48Z</time>
      </trkpt>
      <trkpt lat="50.13998" lon="3.70517">
        <ele>143.37</ele>
        <time>2014-08-24T09:08:59Z</time>
      </trkpt>
      <trkpt lat="50.13978" lon="3.70567">
        <ele>141.45</ele>
        <time>2014-08-24T09:09:09Z</time>
      </trkpt>
      <trkpt lat="50.13972" lon="3.70592">
        <ele>140.97</ele>
        <time>2014-08-24T09:09:21Z</time>
      </trkpt>
      <trkpt lat="50.13972" lon="3.70592">
        <ele>144.34</ele>
        <time>2014-08-24T09:09:22Z</time>
      </trkpt>
      <trkpt lat="50.13971" lon="3.70593">
        <ele>140.97</ele>
        <time>2014-08-24T09:09:23Z</time>
      </trkpt>
      <trkpt lat="50.13966" lon="3.70611">
        <ele>140.97</ele>
        <time>2014-08-24T09:09:38Z</time>
      </trkpt>
      <trkpt lat="50.13965" lon="3.70619">
        <ele>140.97</ele>
        <time>2014-08-24T09:09:51Z</time>
      </trkpt>
      <trkpt lat="50.13953" lon="3.7066">
        <ele>139.53</ele>
        <time>2014-08-24T09:10:03Z</time>
      </trkpt>
      <trkpt lat="50.13947" lon="3.7071">
        <ele>138.09</ele>
        <time>2014-08-24T09:10:13Z</time>
      </trkpt>
      <trkpt lat="50.13945" lon="3.7074">
        <ele>138.09</ele>
        <time>2014-08-24T09:10:19Z</time>
      </trkpt>
      <trkpt lat="50.13947" lon="3.70745">
        <ele>138.09</ele>
        <time>2014-08-24T09:10:20Z</time>
      </trkpt>
      <trkpt lat="50.1398" lon="3.70795">
        <ele>137.61</ele>
        <time>2014-08-24T09:10:33Z</time>
      </trkpt>
      <trkpt lat="50.14009" lon="3.70836">
        <ele>137.13</ele>
        <time>2014-08-24T09:10:44Z</time>
      </trkpt>
      <trkpt lat="50.14046" lon="3.70893">
        <ele>136.16</ele>
        <time>2014-08-24T09:10:58Z</time>
      </trkpt>
      <trkpt lat="50.14074" lon="3.70931">
        <ele>135.68</ele>
        <time>2014-08-24T09:11:08Z</time>
      </trkpt>
      <trkpt lat="50.14086" lon="3.7095">
        <ele>134.72</ele>
        <time>2014-08-24T09:11:16Z</time>
      </trkpt>
      <trkpt lat="50.14085" lon="3.70952">
        <ele>134.72</ele>
        <time>2014-08-24T09:11:17Z</time>
      </trkpt>
      <trkpt lat="50.14078" lon="3.70965">
        <ele>134.72</ele>
        <time>2014-08-24T09:11:28Z</time>
      </trkpt>
      <trkpt lat="50.14075" lon="3.7097">
        <ele>134.72</ele>
        <time>2014-08-24T09:11:30Z</time>
      </trkpt>
      <trkpt lat="50.1408" lon="3.70989">
        <ele>134.72</ele>
        <time>2014-08-24T09:11:36Z</time>
      </trkpt>
      <trkpt lat="50.14107" lon="3.71015">
        <ele>136.16</ele>
        <time>2014-08-24T09:11:52Z</time>
      </trkpt>
      <trkpt lat="50.14108" lon="3.71023">
        <ele>136.64</ele>
        <time>2014-08-24T09:11:55Z</time>
      </trkpt>
      <trkpt lat="50.14098" lon="3.71065">
        <ele>136.64</ele>
        <time>2014-08-24T09:12:08Z</time>
      </trkpt>
      <trkpt lat="50.1409" lon="3.71115">
        <ele>137.61</ele>
        <time>2014-08-24T09:12:21Z</time>
      </trkpt>
      <trkpt lat="50.14083" lon="3.7115">
        <ele>138.57</ele>
        <time>2014-08-24T09:12:32Z</time>
      </trkpt>
      <trkpt lat="50.14073" lon="3.71196">
        <ele>139.05</ele>
        <time>2014-08-24T09:12:45Z</time>
      </trkpt>
      <trkpt lat="50.14047" lon="3.71242">
        <ele>139.05</ele>
        <time>2014-08-24T09:12:58Z</time>
      </trkpt>
      <trkpt lat="50.14014" lon="3.71275">
        <ele>137.13</ele>
        <time>2014-08-24T09:13:11Z</time>
      </trkpt>
      <trkpt lat="50.1401" lon="3.71275">
        <ele>137.13</ele>
        <time>2014-08-24T09:13:12Z</time>
      </trkpt>
      <trkpt lat="50.14007" lon="3.71272">
        <ele>137.13</ele>
        <time>2014-08-24T09:13:13Z</time>
      </trkpt>
      <trkpt lat="50.14005" lon="3.71268">
        <ele>136.64</ele>
        <time>2014-08-24T09:13:14Z</time>
      </trkpt>
      <trkpt lat="50.13949" lon="3.71204">
        <ele>134.72</ele>
        <time>2014-08-24T09:13:28Z</time>
      </trkpt>
      <trkpt lat="50.13938" lon="3.71191">
        <ele>134.24</ele>
        <time>2014-08-24T09:13:31Z</time>
      </trkpt>
      <trkpt lat="50.13935" lon="3.71187">
        <ele>134.24</ele>
        <time>2014-08-24T09:13:32Z</time>
      </trkpt>
      <trkpt lat="50.1392" lon="3.71166">
        <ele>134.24</ele>
        <time>2014-08-24T09:13:39Z</time>
      </trkpt>
      <trkpt lat="50.13918" lon="3.71169">
        <ele>134.24</ele>
        <time>2014-08-24T09:13:40Z</time>
      </trkpt>
      <trkpt lat="50.13917" lon="3.71171">
        <ele>134.24</ele>
        <time>2014-08-24T09:13:41Z</time>
      </trkpt>
      <trkpt lat="50.1388" lon="3.71242">
        <ele>134.24</ele>
        <time>2014-08-24T09:13:55Z</time>
      </trkpt>
      <trkpt lat="50.13851" lon="3.71317">
        <ele>133.28</ele>
        <time>2014-08-24T09:14:07Z</time>
      </trkpt>
      <trkpt lat="50.13849" lon="3.71324">
        <ele>133.28</ele>
        <time>2014-08-24T09:14:08Z</time>
      </trkpt>
      <trkpt lat="50.13842" lon="3.71343">
        <ele>133.28</ele>
        <time>2014-08-24T09:14:11Z</time>
      </trkpt>
      <trkpt lat="50.13816" lon="3.71444">
        <ele>132.8</ele>
        <time>2014-08-24T09:14:25Z</time>
      </trkpt>
      <trkpt lat="50.1381" lon="3.71472">
        <ele>132.8</ele>
        <time>2014-08-24T09:14:29Z</time>
      </trkpt>
      <trkpt lat="50.13808" lon="3.71487">
        <ele>132.8</ele>
        <time>2014-08-24T09:14:31Z</time>
      </trkpt>
      <trkpt lat="50.13795" lon="3.71537">
        <ele>132.32</ele>
        <time>2014-08-24T09:14:38Z</time>
      </trkpt>
      <trkpt lat="50.13774" lon="3.71666">
        <ele>131.84</ele>
        <time>2014-08-24T09:14:54Z</time>
      </trkpt>
      <trkpt lat="50.13773" lon="3.71674">
        <ele>131.84</ele>
        <time>2014-08-24T09:14:55Z</time>
      </trkpt>
      <trkpt lat="50.13772" lon="3.71681">
        <ele>131.84</ele>
        <time>2014-08-24T09:14:56Z</time>
      </trkpt>
      <trkpt lat="50.1377" lon="3.71699">
        <ele>131.84</ele>
        <time>2014-08-24T09:15:00Z</time>
      </trkpt>
      <trkpt lat="50.13767" lon="3.71702">
        <ele>131.84</ele>
        <time>2014-08-24T09:15:01Z</time>
      </trkpt>
      <trkpt lat="50.13765" lon="3.71704">
        <ele>131.84</ele>
        <time>2014-08-24T09:15:02Z</time>
      </trkpt>
      <trkpt lat="50.13762" lon="3.71706">
        <ele>131.84</ele>
        <time>2014-08-24T09:15:03Z</time>
      </trkpt>
      <trkpt lat="50.1376" lon="3.71709">
        <ele>131.84</ele>
        <time>2014-08-24T09:15:04Z</time>
      </trkpt>
      <trkpt lat="50.13741" lon="3.71751">
        <ele>132.8</ele>
        <time>2014-08-24T09:15:13Z</time>
      </trkpt>
      <trkpt lat="50.13701" lon="3.71824">
        <ele>132.8</ele>
        <time>2014-08-24T09:15:27Z</time>
      </trkpt>
      <trkpt lat="50.13652" lon="3.71909">
        <ele>132.8</ele>
        <time>2014-08-24T09:15:43Z</time>
      </trkpt>
      <trkpt lat="50.13609" lon="3.71979">
        <ele>132.8</ele>
        <time>2014-08-24T09:15:57Z</time>
      </trkpt>
      <trkpt lat="50.13602" lon="3.71985">
        <ele>132.8</ele>
        <time>2014-08-24T09:15:59Z</time>
      </trkpt>
      <trkpt lat="50.13551" lon="3.72">
        <ele>132.8</ele>
        <time>2014-08-24T09:16:11Z</time>
      </trkpt>
      <trkpt lat="50.13547" lon="3.71998">
        <ele>132.8</ele>
        <time>2014-08-24T09:16:12Z</time>
      </trkpt>
      <trkpt lat="50.1353" lon="3.71988">
        <ele>132.8</ele>
        <time>2014-08-24T09:16:16Z</time>
      </trkpt>
      <trkpt lat="50.13488" lon="3.71952">
        <ele>132.8</ele>
        <time>2014-08-24T09:16:27Z</time>
      </trkpt>
      <trkpt lat="50.13485" lon="3.71947">
        <ele>132.8</ele>
        <time>2014-08-24T09:16:28Z</time>
      </trkpt>
      <trkpt lat="50.13483" lon="3.71941">
        <ele>132.8</ele>
        <time>2014-08-24T09:16:29Z</time>
      </trkpt>
      <trkpt lat="50.13481" lon="3.71934">
        <ele>132.8</ele>
        <time>2014-08-24T09:16:30Z</time>
      </trkpt>
      <trkpt lat="50.13479" lon="3.71927">
        <ele>132.8</ele>
        <time>2014-08-24T09:16:31Z</time>
      </trkpt>
      <trkpt lat="50.13478" lon="3.7192">
        <ele>132.8</ele>
        <time>2014-08-24T09:16:32Z</time>
      </trkpt>
      <trkpt lat="50.13477" lon="3.71913">
        <ele>132.8</ele>
        <time>2014-08-24T09:16:33Z</time>
      </trkpt>
      <trkpt lat="50.13458" lon="3.71793">
        <ele>132.8</ele>
        <time>2014-08-24T09:16:52Z</time>
      </trkpt>
      <trkpt lat="50.13413" lon="3.71704">
        <ele>132.8</ele>
        <time>2014-08-24T09:17:09Z</time>
      </trkpt>
      <trkpt lat="50.13381" lon="3.71654">
        <ele>132.8</ele>
        <time>2014-08-24T09:17:21Z</time>
      </trkpt>
      <trkpt lat="50.13382" lon="3.7165">
        <ele>132.8</ele>
        <time>2014-08-24T09:17:22Z</time>
      </trkpt>
      <trkpt lat="50.13382" lon="3.71646">
        <ele>132.8</ele>
        <time>2014-08-24T09:17:23Z</time>
      </trkpt>
      <trkpt lat="50.13382" lon="3.71641">
        <ele>132.8</ele>
        <time>2014-08-24T09:17:24Z</time>
      </trkpt>
      <trkpt lat="50.1338" lon="3.71637">
        <ele>132.8</ele>
        <time>2014-08-24T09:17:25Z</time>
      </trkpt>
      <trkpt lat="50.13378" lon="3.71632">
        <ele>132.8</ele>
        <time>2014-08-24T09:17:26Z</time>
      </trkpt>
      <trkpt lat="50.13377" lon="3.71627">
        <ele>132.8</ele>
        <time>2014-08-24T09:17:27Z</time>
      </trkpt>
      <trkpt lat="50.13375" lon="3.71622">
        <ele>132.8</ele>
        <time>2014-08-24T09:17:28Z</time>
      </trkpt>
      <trkpt lat="50.13374" lon="3.71617">
        <ele>132.8</ele>
        <time>2014-08-24T09:17:29Z</time>
      </trkpt>
      <trkpt lat="50.13372" lon="3.71611">
        <ele>132.8</ele>
        <time>2014-08-24T09:17:30Z</time>
      </trkpt>
      <trkpt lat="50.13369" lon="3.71607">
        <ele>132.8</ele>
        <time>2014-08-24T09:17:31Z</time>
      </trkpt>
      <trkpt lat="50.13348" lon="3.71553">
        <ele>132.8</ele>
        <time>2014-08-24T09:17:42Z</time>
      </trkpt>
      <trkpt lat="50.13347" lon="3.71548">
        <ele>132.8</ele>
        <time>2014-08-24T09:17:43Z</time>
      </trkpt>
      <trkpt lat="50.13346" lon="3.71543">
        <ele>132.8</ele>
        <time>2014-08-24T09:17:44Z</time>
      </trkpt>
      <trkpt lat="50.13346" lon="3.71538">
        <ele>132.8</ele>
        <time>2014-08-24T09:17:45Z</time>
      </trkpt>
      <trkpt lat="50.13347" lon="3.71532">
        <ele>132.8</ele>
        <time>2014-08-24T09:17:46Z</time>
      </trkpt>
      <trkpt lat="50.13349" lon="3.71526">
        <ele>132.8</ele>
        <time>2014-08-24T09:17:47Z</time>
      </trkpt>
      <trkpt lat="50.1335" lon="3.71522">
        <ele>132.8</ele>
        <time>2014-08-24T09:17:48Z</time>
      </trkpt>
      <trkpt lat="50.13352" lon="3.71517">
        <ele>132.8</ele>
        <time>2014-08-24T09:17:49Z</time>
      </trkpt>
      <trkpt lat="50.13354" lon="3.71512">
        <ele>132.8</ele>
        <time>2014-08-24T09:17:50Z</time>
      </trkpt>
      <trkpt lat="50.13356" lon="3.71507">
        <ele>132.8</ele>
        <time>2014-08-24T09:17:51Z</time>
      </trkpt>
      <trkpt lat="50.13366" lon="3.71453">
        <ele>132.8</ele>
        <time>2014-08-24T09:18:02Z</time>
      </trkpt>
      <trkpt lat="50.13383" lon="3.71388">
        <ele>133.28</ele>
        <time>2014-08-24T09:18:15Z</time>
      </trkpt>
      <trkpt lat="50.13408" lon="3.71344">
        <ele>133.28</ele>
        <time>2014-08-24T09:18:25Z</time>
      </trkpt>
      <trkpt lat="50.13433" lon="3.71302">
        <ele>133.28</ele>
        <time>2014-08-24T09:18:36Z</time>
      </trkpt>
      <trkpt lat="50.1346" lon="3.71254">
        <ele>133.28</ele>
        <time>2014-08-24T09:18:47Z</time>
      </trkpt>
      <trkpt lat="50.13492" lon="3.71189">
        <ele>133.28</ele>
        <time>2014-08-24T09:18:58Z</time>
      </trkpt>
      <trkpt lat="50.13518" lon="3.71121">
        <ele>133.28</ele>
        <time>2014-08-24T09:19:12Z</time>
      </trkpt>
      <trkpt lat="50.13531" lon="3.71045">
        <ele>133.28</ele>
        <time>2014-08-24T09:19:26Z</time>
      </trkpt>
      <trkpt lat="50.13531" lon="3.70994">
        <ele>133.28</ele>
        <time>2014-08-24T09:19:36Z</time>
      </trkpt>
      <trkpt lat="50.13537" lon="3.70924">
        <ele>133.28</ele>
        <time>2014-08-24T09:19:48Z</time>
      </trkpt>
      <trkpt lat="50.13539" lon="3.70918">
        <ele>133.28</ele>
        <time>2014-08-24T09:19:49Z</time>
      </trkpt>
      <trkpt lat="50.13542" lon="3.70912">
        <ele>133.28</ele>
        <time>2014-08-24T09:19:50Z</time>
      </trkpt>
      <trkpt lat="50.13545" lon="3.70906">
        <ele>133.28</ele>
        <time>2014-08-24T09:19:51Z</time>
      </trkpt>
      <trkpt lat="50.13549" lon="3.70902">
        <ele>133.28</ele>
        <time>2014-08-24T09:19:52Z</time>
      </trkpt>
      <trkpt lat="50.13553" lon="3.70899">
        <ele>133.28</ele>
        <time>2014-08-24T09:19:53Z</time>
      </trkpt>
      <trkpt lat="50.13561" lon="3.70888">
        <ele>133.28</ele>
        <time>2014-08-24T09:19:56Z</time>
      </trkpt>
      <trkpt lat="50.13561" lon="3.70882">
        <ele>133.28</ele>
        <time>2014-08-24T09:19:57Z</time>
      </trkpt>
      <trkpt lat="50.1356" lon="3.70876">
        <ele>133.28</ele>
        <time>2014-08-24T09:19:58Z</time>
      </trkpt>
      <trkpt lat="50.13558" lon="3.70871">
        <ele>133.28</ele>
        <time>2014-08-24T09:19:59Z</time>
      </trkpt>
      <trkpt lat="50.13555" lon="3.70865">
        <ele>133.28</ele>
        <time>2014-08-24T09:20:00Z</time>
      </trkpt>
      <trkpt lat="50.13552" lon="3.70861">
        <ele>133.28</ele>
        <time>2014-08-24T09:20:01Z</time>
      </trkpt>
      <trkpt lat="50.13513" lon="3.7082">
        <ele>133.28</ele>
        <time>2014-08-24T09:20:14Z</time>
      </trkpt>
      <trkpt lat="50.13493" lon="3.70811">
        <ele>131.84</ele>
        <time>2014-08-24T09:20:21Z</time>
      </trkpt>
      <trkpt lat="50.13456" lon="3.7077">
        <ele>131.84</ele>
        <time>2014-08-24T09:20:35Z</time>
      </trkpt>
      <trkpt lat="50.13454" lon="3.70765">
        <ele>131.84</ele>
        <time>2014-08-24T09:20:36Z</time>
      </trkpt>
      <trkpt lat="50.13451" lon="3.70761">
        <ele>131.84</ele>
        <time>2014-08-24T09:20:37Z</time>
      </trkpt>
      <trkpt lat="50.13448" lon="3.70756">
        <ele>131.84</ele>
        <time>2014-08-24T09:20:38Z</time>
      </trkpt>
      <trkpt lat="50.13426" lon="3.707">
        <ele>132.8</ele>
        <time>2014-08-24T09:20:51Z</time>
      </trkpt>
      <trkpt lat="50.13418" lon="3.70651">
        <ele>132.8</ele>
        <time>2014-08-24T09:21:01Z</time>
      </trkpt>
      <trkpt lat="50.13394" lon="3.7059">
        <ele>133.28</ele>
        <time>2014-08-24T09:21:13Z</time>
      </trkpt>
      <trkpt lat="50.1337" lon="3.70549">
        <ele>133.28</ele>
        <time>2014-08-24T09:21:23Z</time>
      </trkpt>
      <trkpt lat="50.13347" lon="3.705">
        <ele>133.28</ele>
        <time>2014-08-24T09:21:35Z</time>
      </trkpt>
      <trkpt lat="50.1334" lon="3.70441">
        <ele>133.28</ele>
        <time>2014-08-24T09:21:45Z</time>
      </trkpt>
      <trkpt lat="50.13335" lon="3.70415">
        <ele>133.28</ele>
        <time>2014-08-24T09:21:49Z</time>
      </trkpt>
      <trkpt lat="50.13334" lon="3.70408">
        <ele>133.28</ele>
        <time>2014-08-24T09:21:50Z</time>
      </trkpt>
      <trkpt lat="50.13329" lon="3.70362">
        <ele>133.28</ele>
        <time>2014-08-24T09:21:56Z</time>
      </trkpt>
      <trkpt lat="50.13329" lon="3.70355">
        <ele>133.28</ele>
        <time>2014-08-24T09:21:57Z</time>
      </trkpt>
      <trkpt lat="50.13324" lon="3.70294">
        <ele>133.28</ele>
        <time>2014-08-24T09:22:07Z</time>
      </trkpt>
      <trkpt lat="50.13302" lon="3.70226">
        <ele>133.28</ele>
        <time>2014-08-24T09:22:19Z</time>
      </trkpt>
      <trkpt lat="50.13274" lon="3.70162">
        <ele>131.84</ele>
        <time>2014-08-24T09:22:32Z</time>
      </trkpt>
      <trkpt lat="50.13258" lon="3.70098">
        <ele>131.36</ele>
        <time>2014-08-24T09:22:44Z</time>
      </trkpt>
      <trkpt lat="50.13254" lon="3.70085">
        <ele>131.36</ele>
        <time>2014-08-24T09:22:46Z</time>
      </trkpt>
      <trkpt lat="50.1325" lon="3.70072">
        <ele>131.36</ele>
        <time>2014-08-24T09:22:48Z</time>
      </trkpt>
      <trkpt lat="50.13241" lon="3.70048">
        <ele>131.36</ele>
        <time>2014-08-24T09:22:52Z</time>
      </trkpt>
      <trkpt lat="50.13238" lon="3.70042">
        <ele>131.36</ele>
        <time>2014-08-24T09:22:53Z</time>
      </trkpt>
      <trkpt lat="50.13224" lon="3.7">
        <ele>132.8</ele>
        <time>2014-08-24T09:23:00Z</time>
      </trkpt>
      <trkpt lat="50.13208" lon="3.69929">
        <ele>133.28</ele>
        <time>2014-08-24T09:23:14Z</time>
      </trkpt>
      <trkpt lat="50.13188" lon="3.69827">
        <ele>132.32</ele>
        <time>2014-08-24T09:23:28Z</time>
      </trkpt>
      <trkpt lat="50.13186" lon="3.6982">
        <ele>132.32</ele>
        <time>2014-08-24T09:23:29Z</time>
      </trkpt>
      <trkpt lat="50.13183" lon="3.69813">
        <ele>132.32</ele>
        <time>2014-08-24T09:23:30Z</time>
      </trkpt>
      <trkpt lat="50.1318" lon="3.69806">
        <ele>132.32</ele>
        <time>2014-08-24T09:23:31Z</time>
      </trkpt>
      <trkpt lat="50.13177" lon="3.698">
        <ele>132.32</ele>
        <time>2014-08-24T09:23:32Z</time>
      </trkpt>
      <trkpt lat="50.13174" lon="3.69793">
        <ele>132.32</ele>
        <time>2014-08-24T09:23:33Z</time>
      </trkpt>
      <trkpt lat="50.13172" lon="3.69786">
        <ele>132.32</ele>
        <time>2014-08-24T09:23:34Z</time>
      </trkpt>
      <trkpt lat="50.13169" lon="3.69772">
        <ele>132.32</ele>
        <time>2014-08-24T09:23:36Z</time>
      </trkpt>
      <trkpt lat="50.13167" lon="3.69766">
        <ele>132.32</ele>
        <time>2014-08-24T09:23:37Z</time>
      </trkpt>
      <trkpt lat="50.13164" lon="3.69753">
        <ele>132.32</ele>
        <time>2014-08-24T09:23:39Z</time>
      </trkpt>
      <trkpt lat="50.13158" lon="3.69721">
        <ele>132.32</ele>
        <time>2014-08-24T09:23:44Z</time>
      </trkpt>
      <trkpt lat="50.13156" lon="3.69715">
        <ele>132.32</ele>
        <time>2014-08-24T09:23:45Z</time>
      </trkpt>
      <trkpt lat="50.13129" lon="3.69593">
        <ele>132.32</ele>
        <time>2014-08-24T09:24:02Z</time>
      </trkpt>
      <trkpt lat="50.13095" lon="3.69463">
        <ele>132.32</ele>
        <time>2014-08-24T09:24:21Z</time>
      </trkpt>
      <trkpt lat="50.13093" lon="3.69457">
        <ele>132.32</ele>
        <time>2014-08-24T09:24:22Z</time>
      </trkpt>
      <trkpt lat="50.13086" lon="3.6944">
        <ele>132.32</ele>
        <time>2014-08-24T09:24:25Z</time>
      </trkpt>
      <trkpt lat="50.13077" lon="3.69426">
        <ele>132.32</ele>
        <time>2014-08-24T09:24:28Z</time>
      </trkpt>
      <trkpt lat="50.13037" lon="3.69359">
        <ele>133.28</ele>
        <time>2014-08-24T09:24:44Z</time>
      </trkpt>
      <trkpt lat="50.13007" lon="3.69268">
        <ele>133.28</ele>
        <time>2014-08-24T09:24:59Z</time>
      </trkpt>
      <trkpt lat="50.12973" lon="3.69176">
        <ele>134.24</ele>
        <time>2014-08-24T09:25:15Z</time>
      </trkpt>
      <trkpt lat="50.12934" lon="3.69089">
        <ele>134.24</ele>
        <time>2014-08-24T09:25:32Z</time>
      </trkpt>
      <trkpt lat="50.1292" lon="3.69052">
        <ele>134.24</ele>
        <time>2014-08-24T09:25:38Z</time>
      </trkpt>
      <trkpt lat="50.12913" lon="3.69026">
        <ele>134.24</ele>
        <time>2014-08-24T09:25:42Z</time>
      </trkpt>
      <trkpt lat="50.12892" lon="3.68939">
        <ele>133.28</ele>
        <time>2014-08-24T09:25:55Z</time>
      </trkpt>
      <trkpt lat="50.12882" lon="3.68921">
        <ele>133.28</ele>
        <time>2014-08-24T09:25:59Z</time>
      </trkpt>
      <trkpt lat="50.12879" lon="3.68922">
        <ele>133.28</ele>
        <time>2014-08-24T09:26:00Z</time>
      </trkpt>
      <trkpt lat="50.12875" lon="3.68925">
        <ele>133.28</ele>
        <time>2014-08-24T09:26:01Z</time>
      </trkpt>
      <trkpt lat="50.12872" lon="3.68928">
        <ele>133.28</ele>
        <time>2014-08-24T09:26:02Z</time>
      </trkpt>
      <trkpt lat="50.1287" lon="3.68931">
        <ele>132.8</ele>
        <time>2014-08-24T09:26:03Z</time>
      </trkpt>
      <trkpt lat="50.12867" lon="3.68935">
        <ele>132.8</ele>
        <time>2014-08-24T09:26:04Z</time>
      </trkpt>
      <trkpt lat="50.12864" lon="3.68939">
        <ele>132.8</ele>
        <time>2014-08-24T09:26:05Z</time>
      </trkpt>
      <trkpt lat="50.12862" lon="3.68944">
        <ele>132.8</ele>
        <time>2014-08-24T09:26:06Z</time>
      </trkpt>
      <trkpt lat="50.12823" lon="3.68987">
        <ele>132.8</ele>
        <time>2014-08-24T09:26:18Z</time>
      </trkpt>
      <trkpt lat="50.12819" lon="3.68987">
        <ele>132.8</ele>
        <time>2014-08-24T09:26:19Z</time>
      </trkpt>
      <trkpt lat="50.12815" lon="3.68985">
        <ele>132.8</ele>
        <time>2014-08-24T09:26:20Z</time>
      </trkpt>
      <trkpt lat="50.12776" lon="3.68933">
        <ele>132.8</ele>
        <time>2014-08-24T09:26:34Z</time>
      </trkpt>
      <trkpt lat="50.1276" lon="3.68911">
        <ele>133.76</ele>
        <time>2014-08-24T09:26:40Z</time>
      </trkpt>
      <trkpt lat="50.1273" lon="3.68872">
        <ele>134.24</ele>
        <time>2014-08-24T09:26:53Z</time>
      </trkpt>
      <trkpt lat="50.127" lon="3.68825">
        <ele>134.72</ele>
        <time>2014-08-24T09:27:07Z</time>
      </trkpt>
      <trkpt lat="50.12689" lon="3.68804">
        <ele>135.2</ele>
        <time>2014-08-24T09:27:13Z</time>
      </trkpt>
      <trkpt lat="50.12688" lon="3.68801">
        <ele>135.2</ele>
        <time>2014-08-24T09:27:14Z</time>
      </trkpt>
      <trkpt lat="50.12688" lon="3.68797">
        <ele>136.16</ele>
        <time>2014-08-24T09:27:15Z</time>
      </trkpt>
      <trkpt lat="50.12689" lon="3.68793">
        <ele>136.16</ele>
        <time>2014-08-24T09:27:16Z</time>
      </trkpt>
      <trkpt lat="50.1269" lon="3.68789">
        <ele>136.16</ele>
        <time>2014-08-24T09:27:17Z</time>
      </trkpt>
      <trkpt lat="50.12692" lon="3.68786">
        <ele>136.16</ele>
        <time>2014-08-24T09:27:18Z</time>
      </trkpt>
      <trkpt lat="50.12694" lon="3.68783">
        <ele>136.16</ele>
        <time>2014-08-24T09:27:19Z</time>
      </trkpt>
      <trkpt lat="50.12697" lon="3.68782">
        <ele>136.16</ele>
        <time>2014-08-24T09:27:20Z</time>
      </trkpt>
      <trkpt lat="50.127" lon="3.6878">
        <ele>136.16</ele>
        <time>2014-08-24T09:27:21Z</time>
      </trkpt>
      <trkpt lat="50.12702" lon="3.68778">
        <ele>136.16</ele>
        <time>2014-08-24T09:27:22Z</time>
      </trkpt>
      <trkpt lat="50.12705" lon="3.68775">
        <ele>136.16</ele>
        <time>2014-08-24T09:27:23Z</time>
      </trkpt>
      <trkpt lat="50.12707" lon="3.68773">
        <ele>136.16</ele>
        <time>2014-08-24T09:27:24Z</time>
      </trkpt>
      <trkpt lat="50.12708" lon="3.68769">
        <ele>136.16</ele>
        <time>2014-08-24T09:27:25Z</time>
      </trkpt>
      <trkpt lat="50.12709" lon="3.68766">
        <ele>136.16</ele>
        <time>2014-08-24T09:27:26Z</time>
      </trkpt>
      <trkpt lat="50.12711" lon="3.68762">
        <ele>136.16</ele>
        <time>2014-08-24T09:27:27Z</time>
      </trkpt>
      <trkpt lat="50.12712" lon="3.68758">
        <ele>136.16</ele>
        <time>2014-08-24T09:27:28Z</time>
      </trkpt>
      <trkpt lat="50.12713" lon="3.68754">
        <ele>136.16</ele>
        <time>2014-08-24T09:27:29Z</time>
      </trkpt>
      <trkpt lat="50.12715" lon="3.6875">
        <ele>136.16</ele>
        <time>2014-08-24T09:27:30Z</time>
      </trkpt>
      <trkpt lat="50.12725" lon="3.68733">
        <ele>134.24</ele>
        <time>2014-08-24T09:27:34Z</time>
      </trkpt>
      <trkpt lat="50.12755" lon="3.68685">
        <ele>134.24</ele>
        <time>2014-08-24T09:27:45Z</time>
      </trkpt>
      <trkpt lat="50.12777" lon="3.68657">
        <ele>134.24</ele>
        <time>2014-08-24T09:27:52Z</time>
      </trkpt>
      <trkpt lat="50.12782" lon="3.68646">
        <ele>135.2</ele>
        <time>2014-08-24T09:27:54Z</time>
      </trkpt>
      <trkpt lat="50.12785" lon="3.68634">
        <ele>135.2</ele>
        <time>2014-08-24T09:27:56Z</time>
      </trkpt>
      <trkpt lat="50.12785" lon="3.68627">
        <ele>135.2</ele>
        <time>2014-08-24T09:27:57Z</time>
      </trkpt>
      <trkpt lat="50.12785" lon="3.6862">
        <ele>135.2</ele>
        <time>2014-08-24T09:27:58Z</time>
      </trkpt>
      <trkpt lat="50.12783" lon="3.68614">
        <ele>135.2</ele>
        <time>2014-08-24T09:27:59Z</time>
      </trkpt>
      <trkpt lat="50.1278" lon="3.68608">
        <ele>135.2</ele>
        <time>2014-08-24T09:28:00Z</time>
      </trkpt>
      <trkpt lat="50.12775" lon="3.68597">
        <ele>135.2</ele>
        <time>2014-08-24T09:28:02Z</time>
      </trkpt>
      <trkpt lat="50.12738" lon="3.68526">
        <ele>135.2</ele>
        <time>2014-08-24T09:28:16Z</time>
      </trkpt>
      <trkpt lat="50.12736" lon="3.6852">
        <ele>135.2</ele>
        <time>2014-08-24T09:28:17Z</time>
      </trkpt>
      <trkpt lat="50.12734" lon="3.68513">
        <ele>135.2</ele>
        <time>2014-08-24T09:28:18Z</time>
      </trkpt>
      <trkpt lat="50.12734" lon="3.68506">
        <ele>133.76</ele>
        <time>2014-08-24T09:28:19Z</time>
      </trkpt>
      <trkpt lat="50.12736" lon="3.68499">
        <ele>133.76</ele>
        <time>2014-08-24T09:28:20Z</time>
      </trkpt>
      <trkpt lat="50.12739" lon="3.68495">
        <ele>133.76</ele>
        <time>2014-08-24T09:28:21Z</time>
      </trkpt>
      <trkpt lat="50.12742" lon="3.68492">
        <ele>133.76</ele>
        <time>2014-08-24T09:28:22Z</time>
      </trkpt>
      <trkpt lat="50.12746" lon="3.68489">
        <ele>133.76</ele>
        <time>2014-08-24T09:28:23Z</time>
      </trkpt>
      <trkpt lat="50.12791" lon="3.68449">
        <ele>135.68</ele>
        <time>2014-08-24T09:28:38Z</time>
      </trkpt>
      <trkpt lat="50.12793" lon="3.68446">
        <ele>135.68</ele>
        <time>2014-08-24T09:28:39Z</time>
      </trkpt>
      <trkpt lat="50.12794" lon="3.68441">
        <ele>135.68</ele>
        <time>2014-08-24T09:28:40Z</time>
      </trkpt>
      <trkpt lat="50.12794" lon="3.68437">
        <ele>135.68</ele>
        <time>2014-08-24T09:28:41Z</time>
      </trkpt>
      <trkpt lat="50.12793" lon="3.68433">
        <ele>135.68</ele>
        <time>2014-08-24T09:28:42Z</time>
      </trkpt>
      <trkpt lat="50.12792" lon="3.68429">
        <ele>135.68</ele>
        <time>2014-08-24T09:28:43Z</time>
      </trkpt>
      <trkpt lat="50.1279" lon="3.68425">
        <ele>136.16</ele>
        <time>2014-08-24T09:28:44Z</time>
      </trkpt>
      <trkpt lat="50.12768" lon="3.6836">
        <ele>136.16</ele>
        <time>2014-08-24T09:28:57Z</time>
      </trkpt>
      <trkpt lat="50.12732" lon="3.68248">
        <ele>134.24</ele>
        <time>2014-08-24T09:29:16Z</time>
      </trkpt>
      <trkpt lat="50.12721" lon="3.68215">
        <ele>134.24</ele>
        <time>2014-08-24T09:29:22Z</time>
      </trkpt>
      <trkpt lat="50.12682" lon="3.68132">
        <ele>133.76</ele>
        <time>2014-08-24T09:29:37Z</time>
      </trkpt>
      <trkpt lat="50.12632" lon="3.68022">
        <ele>133.28</ele>
        <time>2014-08-24T09:29:56Z</time>
      </trkpt>
      <trkpt lat="50.12627" lon="3.68011">
        <ele>133.76</ele>
        <time>2014-08-24T09:29:58Z</time>
      </trkpt>
      <trkpt lat="50.12624" lon="3.68006">
        <ele>133.28</ele>
        <time>2014-08-24T09:29:59Z</time>
      </trkpt>
      <trkpt lat="50.12616" lon="3.6799">
        <ele>133.76</ele>
        <time>2014-08-24T09:30:02Z</time>
      </trkpt>
      <trkpt lat="50.12613" lon="3.67985">
        <ele>133.76</ele>
        <time>2014-08-24T09:30:03Z</time>
      </trkpt>
      <trkpt lat="50.12578" lon="3.67922">
        <ele>133.28</ele>
        <time>2014-08-24T09:30:14Z</time>
      </trkpt>
      <trkpt lat="50.12575" lon="3.67917">
        <ele>133.28</ele>
        <time>2014-08-24T09:30:15Z</time>
      </trkpt>
      <trkpt lat="50.12571" lon="3.67912">
        <ele>133.28</ele>
        <time>2014-08-24T09:30:16Z</time>
      </trkpt>
      <trkpt lat="50.12567" lon="3.67907">
        <ele>133.28</ele>
        <time>2014-08-24T09:30:17Z</time>
      </trkpt>
      <trkpt lat="50.12563" lon="3.67903">
        <ele>133.28</ele>
        <time>2014-08-24T09:30:18Z</time>
      </trkpt>
      <trkpt lat="50.12555" lon="3.67896">
        <ele>133.28</ele>
        <time>2014-08-24T09:30:20Z</time>
      </trkpt>
      <trkpt lat="50.12502" lon="3.67845">
        <ele>133.28</ele>
        <time>2014-08-24T09:30:35Z</time>
      </trkpt>
      <trkpt lat="50.12476" lon="3.67815">
        <ele>133.28</ele>
        <time>2014-08-24T09:30:45Z</time>
      </trkpt>
      <trkpt lat="50.12475" lon="3.67814">
        <ele>133.28</ele>
        <time>2014-08-24T09:30:46Z</time>
      </trkpt>
      <trkpt lat="50.12472" lon="3.6782">
        <ele>132.8</ele>
        <time>2014-08-24T09:30:59Z</time>
      </trkpt>
      <trkpt lat="50.1247" lon="3.67822">
        <ele>132.32</ele>
        <time>2014-08-24T09:31:21Z</time>
      </trkpt>
      <trkpt lat="50.12469" lon="3.67818">
        <ele>132.32</ele>
        <time>2014-08-24T09:31:44Z</time>
      </trkpt>
      <trkpt lat="50.12468" lon="3.67811">
        <ele>132.8</ele>
        <time>2014-08-24T09:32:20Z</time>
      </trkpt>
      <trkpt lat="50.12467" lon="3.67806">
        <ele>132.8</ele>
        <time>2014-08-24T09:32:59Z</time>
      </trkpt>
      <trkpt lat="50.12467" lon="3.67804">
        <ele>132.8</ele>
        <time>2014-08-24T09:33:32Z</time>
      </trkpt>
      <trkpt lat="50.12467" lon="3.67799">
        <ele>133.28</ele>
        <time>2014-08-24T09:34:09Z</time>
      </trkpt>
      <trkpt lat="50.12467" lon="3.67797">
        <ele>133.76</ele>
        <time>2014-08-24T09:34:38Z</time>
      </trkpt>
      <trkpt lat="50.12466" lon="3.67797">
        <ele>133.76</ele>
        <time>2014-08-24T09:35:10Z</time>
      </trkpt>
      <trkpt lat="50.12467" lon="3.67798">
        <ele>134.24</ele>
        <time>2014-08-24T09:35:38Z</time>
      </trkpt>
      <trkpt lat="50.12467" lon="3.67797">
        <ele>134.24</ele>
        <time>2014-08-24T09:36:04Z</time>
      </trkpt>
      <trkpt lat="50.12466" lon="3.67796">
        <ele>134.72</ele>
        <time>2014-08-24T09:36:39Z</time>
      </trkpt>
      <trkpt lat="50.12466" lon="3.67799">
        <ele>134.72</ele>
        <time>2014-08-24T09:37:06Z</time>
      </trkpt>
      <trkpt lat="50.12466" lon="3.678">
        <ele>135.2</ele>
        <time>2014-08-24T09:37:32Z</time>
      </trkpt>
      <trkpt lat="50.12467" lon="3.67799">
        <ele>135.2</ele>
        <time>2014-08-24T09:37:57Z</time>
      </trkpt>
      <trkpt lat="50.12465" lon="3.67796">
        <ele>135.68</ele>
        <time>2014-08-24T09:38:37Z</time>
      </trkpt>
      <trkpt lat="50.12465" lon="3.67798">
        <ele>135.68</ele>
        <time>2014-08-24T09:39:08Z</time>
      </trkpt>
      <trkpt lat="50.12466" lon="3.67795">
        <ele>136.16</ele>
        <time>2014-08-24T09:39:40Z</time>
      </trkpt>
      <trkpt lat="50.12466" lon="3.67795">
        <ele>136.16</ele>
        <time>2014-08-24T09:39:48Z</time>
      </trkpt>
      <trkpt lat="50.12467" lon="3.67797">
        <ele>136.16</ele>
        <time>2014-08-24T09:40:01Z</time>
      </trkpt>
    </trkseg>
  </trk>
</gpx>